[[{"header":{"parameterUnit":"m.s-1","parameterCategory":1,"la1":30.6,"la2":29.2853,"lo1":-89.7004,"lo2":-87.6739,"dy":0.0162,"dx":0.0183,"nx":112,"ny":82,"refTime":"2024-06-04T06:00:00:Z","depth":0,"parameterNumber":2,"parameterNumberName":"U-component_of_WINDS"},"data":[0.0,0.0,0.0,0.0,0.0,0.0,0.0,0.0,0.0,0.0,0.0,0.0,0.0,0.0,0.0,0.0,0.0,0.0,0.0,0.0,0.0,0.0,0.0,0.0,0.0,0.0,0.0,0.0,0.0,0.0,0.0,0.0,0.0,0.0,0.0,0.0,0.0,0.0,0.0,0.0,0.0,0.0,0.0,0.0,0.0,0.0,0.0,0.0,0.0,0.0,0.0,0.0,0.0,0.0,0.0,0.0,0.0,0.0,0.0,0.0,0.0,0.0,0.0,0.0,0.0,0.0,0.0,0.0,0.0,0.0,0.0,0.0,0.0,0.0,0.0,0.0,0.0,0.0,0.0,0.0,0.0,0.0,0.0,0.0,0.0,0.0,0.0,0.0,0.0,0.0,-1.0528,-1.0802,-1.164,-1.2224,-1.2224,-1.2037,-1.142,-1.0275,0.0,0.0,0.0,0.0,0.0,0.0,0.0,0.0,0.0,0.0,0.0,0.0,0.0,0.0,0.0,0.0,0.0,0.0,0.0,0.0,0.0,0.0,0.0,0.0,0.0,0.0,0.0,0.0,0.0,0.0,0.0,0.0,0.0,0.0,0.0,0.0,0.0,0.0,0.0,0.0,0.0,0.0,0.0,0.0,0.0,0.0,0.0,0.0,0.0,0.0,0.0,0.0,0.0,0.0,0.0,0.0,0.0,0.0,0.0,0.0,0.0,0.0,0.0,0.0,0.0,0.0,0.0,0.0,0.0,0.0,0.0,0.0,0.0,0.0,0.0,0.0,0.0,0.0,0.0,0.0,0.0,0.0,0.0,0.0,0.0,0.0,0.0,0.0,0.0,0.0,0.0,0.0,0.0,0.0,0.0,0.0,0.0,0.0,0.0,0.0,0.0,0.0,0.0,0.0,-1.0325,-1.1663,-1.1825,-1.1781,-1.1781,-1.1563,-1.1152,-1.0553,0.0,0.0,0.0,0.0,0.0,0.0,0.0,0.0,0.0,0.0,0.0,0.0,0.0,0.0,0.0,0.0,0.0,0.0,0.0,0.0,0.0,0.0,0.0,0.0,0.0,0.0,0.0,0.0,0.0,0.0,0.0,0.0,0.0,0.0,0.0,0.0,0.0,0.0,0.0,0.0,0.0,0.0,0.0,0.0,0.0,0.0,0.0,0.0,0.0,0.0,0.0,0.0,0.0,0.0,0.0,0.0,0.0,0.0,0.0,0.0,0.0,0.0,0.0,0.0,0.0,0.0,0.0,0.0,0.0,0.0,0.0,0.0,0.0,0.0,0.0,0.0,0.0,0.0,0.0,0.0,0.0,0.0,0.0,0.0,0.0,0.0,0.0,0.0,0.0,0.0,0.0,0.0,0.0,0.0,0.0,0.0,0.0,0.0,0.0,0.0,0.0,0.0,0.0,-1.0052,-1.0515,-1.1707,-1.1781,-1.1706,-1.1706,-1.1519,-1.1122,-1.0635,-0.9866,0.0,0.0,0.0,0.0,0.0,0.0,0.0,0.0,0.0,0.0,0.0,0.0,0.0,0.0,0.0,0.0,0.0,0.0,0.0,0.0,0.0,0.0,0.0,0.0,0.0,0.0,0.0,0.0,0.0,0.0,0.0,0.0,0.0,0.0,0.0,0.0,0.0,0.0,0.0,0.0,0.0,0.0,0.0,0.0,0.0,0.0,0.0,0.0,0.0,0.0,0.0,0.0,0.0,0.0,0.0,0.0,0.0,0.0,0.0,0.0,0.0,0.0,0.0,0.0,0.0,0.0,0.0,0.0,0.0,0.0,0.0,0.0,0.0,0.0,0.0,0.0,0.0,0.0,0.0,0.0,0.0,0.0,0.0,0.0,0.0,0.0,0.0,0.0,0.0,0.0,0.0,0.0,0.0,0.0,0.0,0.0,0.0,0.0,0.0,0.0,0.0,0.0,-1.0444,-1.0763,-1.1537,-1.1558,-1.1558,-1.1558,-1.1292,-1.0972,-1.0565,-1.0295,0.0,0.0,0.0,0.0,0.0,0.0,0.0,0.0,0.0,0.0,0.0,0.0,0.0,0.0,0.0,0.0,0.0,0.0,0.0,0.0,0.0,0.0,0.0,0.0,0.0,0.0,0.0,0.0,0.0,0.0,0.0,0.0,0.0,0.0,0.0,0.0,0.0,0.0,0.0,0.0,0.0,0.0,0.0,0.0,0.0,0.0,0.0,0.0,0.0,0.0,0.0,0.0,0.0,0.0,0.0,0.0,0.0,0.0,0.0,0.0,0.0,0.0,0.0,0.0,0.0,0.0,0.0,0.0,0.0,0.0,0.0,0.0,0.0,0.0,0.0,0.0,0.0,0.0,0.0,0.0,0.0,0.0,0.0,0.0,0.0,0.0,0.0,0.0,0.0,0.0,0.0,0.0,0.0,0.0,0.0,0.0,0.0,0.0,0.0,0.0,0.0,0.0,-1.0508,-1.105,-1.1372,-1.126,-1.1111,-1.1111,-1.0665,-1.0369,-1.0333,-1.0279,0.0,0.0,0.0,0.0,0.0,0.0,0.0,0.0,0.0,0.0,0.0,0.0,0.0,0.0,0.0,0.0,0.0,0.0,0.0,0.0,0.0,0.0,0.0,0.0,0.0,0.0,0.0,0.0,0.0,0.0,0.0,0.0,0.0,0.0,0.0,0.0,0.0,0.0,0.0,0.0,0.0,0.0,0.0,0.0,0.0,0.0,0.0,0.0,0.0,0.0,0.0,0.0,0.0,0.0,0.0,0.0,0.0,0.0,0.0,0.0,0.0,0.0,0.0,0.0,0.0,0.0,0.0,0.0,0.0,0.0,0.0,0.0,0.0,0.0,0.0,0.0,0.0,0.0,0.0,0.0,0.0,0.0,0.0,0.0,0.0,0.0,0.0,0.0,0.0,0.0,0.0,0.0,0.0,0.0,0.0,0.0,0.0,0.0,0.0,0.0,0.0,0.0,-1.0171,-1.0804,-1.1193,-1.1186,-1.1111,-1.1111,-1.093,-1.0688,-1.0498,0.0,0.0,0.0,0.0,0.0,0.0,0.0,0.0,0.0,0.0,0.0,0.0,0.0,0.0,0.0,0.0,0.0,0.0,0.0,0.0,0.0,0.0,0.0,0.0,0.0,0.0,0.0,0.0,0.0,0.0,0.0,0.0,0.0,0.0,0.0,0.0,0.0,0.0,0.0,0.0,0.0,0.0,0.0,0.0,0.0,0.0,0.0,0.0,0.0,0.0,0.0,0.0,0.0,0.0,0.0,0.0,0.0,0.0,0.0,0.0,0.0,0.0,0.0,0.0,0.0,0.0,0.0,0.0,0.0,0.0,0.0,0.0,0.0,0.0,0.0,0.0,0.0,0.0,0.0,0.0,0.0,0.0,0.0,0.0,0.0,0.0,0.0,0.0,0.0,0.0,0.0,0.0,0.0,0.0,0.0,0.0,0.0,0.0,0.0,0.0,0.0,0.0,-0.9463,-1.0071,-1.0627,-1.1045,-1.1111,-1.1111,-1.1111,-1.0888,-1.079,-1.0744,0.0,0.0,0.0,0.0,0.0,0.0,0.0,0.0,0.0,0.0,0.0,0.0,0.0,0.0,0.0,0.0,0.0,0.0,0.0,0.0,0.0,0.0,0.0,0.0,0.0,0.0,0.0,0.0,0.0,0.0,0.0,0.0,0.0,0.0,0.0,0.0,0.0,0.0,0.0,0.0,0.0,0.0,0.0,0.0,0.0,0.0,0.0,0.0,0.0,0.0,0.0,0.0,0.0,0.0,0.0,0.0,0.0,0.0,0.0,0.0,0.0,0.0,0.0,0.0,0.0,0.0,0.0,0.0,0.0,0.0,0.0,0.0,0.0,0.0,0.0,0.0,0.0,0.0,0.0,0.0,0.0,0.0,0.0,0.0,0.0,0.0,0.0,0.0,0.0,0.0,0.0,0.0,0.0,0.0,0.0,0.0,0.0,0.0,0.0,0.0,0.0,0.0,-0.9767,-1.0305,-1.0822,-1.1081,-1.1111,-1.1111,-1.1111,-1.0475,-1.0422,0.0,0.0,0.0,0.0,0.0,0.0,0.0,0.0,0.0,0.0,0.0,0.0,0.0,0.0,0.0,0.0,0.0,0.0,0.0,0.0,0.0,0.0,0.0,0.0,0.0,0.0,0.0,0.0,0.0,0.0,0.0,0.0,0.0,0.0,0.0,0.0,0.0,0.0,0.0,0.0,0.0,0.0,0.0,0.0,0.0,0.0,0.0,0.0,0.0,0.0,0.0,0.0,0.0,0.0,0.0,0.0,0.0,0.0,0.0,0.0,0.0,0.0,0.0,0.0,0.0,0.0,0.0,0.0,0.0,0.0,0.0,0.0,0.0,0.0,0.0,0.0,0.0,0.0,0.0,0.0,0.0,0.0,0.0,0.0,0.0,0.0,0.0,0.0,0.0,0.0,0.0,0.0,0.0,0.0,0.0,0.0,0.0,0.0,0.0,0.0,0.0,0.0,0.0,-0.9551,-1.0367,-1.0967,-1.1081,-1.1111,-1.1111,-1.1111,-1.0893,-1.091,-1.1111,0.0,0.0,0.0,0.0,0.0,0.0,0.0,0.0,0.0,0.0,0.0,0.0,0.0,0.0,0.0,0.0,0.0,0.0,0.0,0.0,0.0,0.0,0.0,0.0,0.0,0.0,0.0,0.0,0.0,0.0,0.0,0.0,0.0,0.0,0.0,0.0,0.0,0.0,0.0,0.0,0.0,0.0,0.0,0.0,0.0,0.0,0.0,0.0,0.0,0.0,0.0,0.0,0.0,0.0,0.0,0.0,0.0,0.0,0.0,0.0,0.0,0.0,0.0,0.0,0.0,0.0,0.0,0.0,0.0,0.0,0.0,0.0,0.0,0.0,0.0,0.0,0.0,0.0,0.0,0.0,0.0,0.0,0.0,0.0,0.0,0.0,0.0,0.0,0.0,0.0,0.0,0.0,0.0,0.0,0.0,0.0,0.0,0.0,0.0,0.0,0.0,0.0,-0.9506,-1.0493,-1.118,-1.1262,-1.1286,-1.128,-1.1111,-1.1101,-1.095,-1.0504,0.0,0.0,0.0,0.0,0.0,0.0,0.0,0.0,0.0,0.0,0.0,0.0,0.0,0.0,0.0,0.0,0.0,0.0,0.0,0.0,0.0,0.0,0.0,0.0,0.0,0.0,0.0,0.0,0.0,0.0,0.0,0.0,0.0,0.0,0.0,0.0,0.0,0.0,0.0,0.0,0.0,0.0,0.0,0.0,0.0,0.0,0.0,0.0,0.0,0.0,0.0,0.0,0.0,0.0,0.0,0.0,0.0,0.0,0.0,0.0,0.0,0.0,0.0,0.0,0.0,0.0,0.0,0.0,0.0,0.0,0.0,0.0,0.0,0.0,0.0,0.0,0.0,0.0,0.0,0.0,0.0,0.0,0.0,0.0,0.0,0.0,0.0,0.0,0.0,0.0,0.0,0.0,0.0,0.0,0.0,0.0,0.0,0.0,0.0,0.0,0.0,0.0,-0.9544,-1.0665,-1.1462,-1.1486,-1.1636,-1.1534,-1.1111,-1.1113,-1.0673,-0.9687,0.0,0.0,0.0,0.0,0.0,0.0,0.0,0.0,0.0,0.0,0.0,0.0,0.0,0.0,0.0,0.0,0.0,0.0,0.0,0.0,0.0,0.0,0.0,0.0,0.0,0.0,0.0,0.0,0.0,0.0,0.0,0.0,0.0,0.0,0.0,0.0,0.0,0.0,0.0,0.0,0.0,0.0,0.0,0.0,0.0,0.0,0.0,0.0,0.0,0.0,0.0,0.0,0.0,0.0,0.0,0.0,0.0,0.0,0.0,0.0,-0.8475,-0.7884,0.0,0.0,0.0,0.0,0.0,0.0,0.0,0.0,0.0,0.0,0.0,0.0,0.0,0.0,0.0,0.0,0.0,0.0,0.0,0.0,0.0,0.0,0.0,0.0,0.0,0.0,0.0,0.0,0.0,0.0,0.0,0.0,0.0,0.0,0.0,0.0,0.0,0.0,0.0,0.0,-1.0085,-1.0728,-1.1271,-1.1641,-1.1751,-1.1623,-1.1111,-1.1113,-1.0994,-1.0765,-0.8985,0.0,0.0,0.0,0.0,0.0,0.0,0.0,0.0,0.0,0.0,0.0,0.0,0.0,0.0,0.0,0.0,0.0,0.0,0.0,0.0,0.0,0.0,0.0,0.0,0.0,0.0,0.0,0.0,0.0,0.0,0.0,0.0,0.0,0.0,0.0,0.0,0.0,0.0,0.0,0.0,0.0,0.0,0.0,0.0,0.0,0.0,0.0,0.0,0.0,0.0,0.0,0.0,0.0,0.0,0.0,0.0,0.0,0.0,0.0,-0.9172,-0.8694,0.0,0.0,0.0,0.0,0.0,0.0,0.0,0.0,0.0,0.0,0.0,0.0,0.0,0.0,0.0,0.0,0.0,0.0,0.0,0.0,0.0,0.0,0.0,0.0,0.0,0.0,0.0,0.0,0.0,0.0,0.0,0.0,0.0,0.0,0.0,0.0,0.0,0.0,0.0,0.0,-1.0073,-1.0902,-1.1561,-1.1903,-1.2166,-1.2209,-1.1903,-1.1429,-1.1076,-1.1083,-0.955,0.0,0.0,0.0,0.0,0.0,0.0,0.0,0.0,0.0,0.0,0.0,0.0,0.0,0.0,0.0,0.0,0.0,0.0,0.0,0.0,0.0,0.0,0.0,0.0,0.0,0.0,0.0,0.0,0.0,0.0,0.0,0.0,0.0,0.0,0.0,0.0,0.0,0.0,0.0,0.0,0.0,0.0,0.0,0.0,0.0,0.0,0.0,0.0,0.0,0.0,0.0,0.0,0.0,-0.9768,-0.9841,-1.0025,-1.0224,-1.0249,-1.028,-0.9993,-0.9737,-0.9519,-0.9386,0.0,0.0,0.0,0.0,0.0,0.0,0.0,0.0,0.0,0.0,0.0,0.0,0.0,0.0,0.0,0.0,0.0,0.0,0.0,0.0,0.0,0.0,-1.1068,-1.1243,-1.171,-1.1757,-1.0488,0.0,0.0,0.0,0.0,0.0,0.0,0.0,0.0,0.0,0.0,0.0,-1.0089,-1.1175,-1.2002,-1.226,-1.2527,-1.2669,-1.2667,-1.1685,-1.1127,-1.1077,-1.03,-0.9267,0.0,0.0,0.0,0.0,0.0,0.0,0.0,0.0,0.0,0.0,0.0,0.0,0.0,0.0,0.0,0.0,0.0,0.0,0.0,0.0,0.0,0.0,0.0,0.0,0.0,0.0,0.0,0.0,0.0,0.0,0.0,0.0,-0.7036,-0.7635,0.0,0.0,0.0,0.0,0.0,0.0,0.0,0.0,0.0,0.0,0.0,0.0,0.0,-0.9235,-0.9488,-1.0381,-1.0773,-1.0592,-1.1658,-1.2145,-1.2084,-1.2159,-1.2151,-1.2228,-1.1866,0.0,-1.0021,-1.0413,0.0,0.0,0.0,0.0,0.0,0.0,0.0,0.0,0.0,0.0,0.0,0.0,0.0,0.0,0.0,0.0,0.0,0.0,0.0,0.0,0.0,0.0,-1.2546,-1.258,-1.2779,-1.2906,-1.252,-1.1431,-1.0509,-1.0053,-0.9706,-0.9335,0.0,0.0,0.0,0.0,0.0,0.0,-1.0865,-1.1517,-1.2088,-1.262,-1.2637,-1.2669,-1.2667,-1.1685,-1.1117,-1.1103,-1.0969,-1.043,-0.936,-0.9294,0.0,0.0,0.0,0.0,0.0,0.0,0.0,0.0,0.0,0.0,0.0,0.0,0.0,0.0,0.0,0.0,0.0,0.0,0.0,0.0,0.0,0.0,0.0,0.0,0.0,0.0,0.0,0.0,0.0,-0.6972,-0.7444,-0.7789,-0.7677,-0.7605,0.0,0.0,0.0,0.0,0.0,0.0,0.0,0.0,0.0,-1.0118,-1.0346,-1.0703,-1.1146,-1.1676,-1.1954,-1.1915,-1.2258,-1.2501,-1.2537,-1.2694,-1.2765,-1.2803,-1.2752,-1.2348,-1.1821,-1.1475,-1.1005,-1.043,0.0,0.0,0.0,0.0,-1.0353,-1.0364,-1.0975,-1.1154,-1.1042,-1.1202,0.0,0.0,0.0,0.0,0.0,0.0,0.0,-1.1523,-1.169,-1.2365,-1.3046,-1.3213,-1.34,-1.3369,-1.3154,-1.246,-1.1691,-1.108,-1.0905,-1.0428,-0.9168,-0.9304,0.0,0.0,0.0,-1.0504,-1.1012,-1.1641,-1.223,-1.2674,-1.2693,-1.2708,-1.2707,-1.173,-1.108,-1.1121,-1.1106,-1.0891,-1.0387,-1.0399,-0.9162,0.0,0.0,0.0,0.0,0.0,0.0,0.0,0.0,0.0,0.0,0.0,0.0,0.0,0.0,0.0,0.0,0.0,0.0,0.0,0.0,0.0,0.0,0.0,0.0,0.0,0.0,0.0,0.0,-0.7561,-0.7927,-0.8081,-0.8172,-0.8147,0.0,0.0,0.0,0.0,0.0,0.0,-0.956,-1.0089,-1.0579,-1.1056,-1.155,-1.2045,-1.2473,-1.2692,-1.284,-1.3,-1.283,-1.2868,-1.303,-1.3111,-1.3192,-1.3104,-1.3266,-1.3353,-1.3226,-1.2415,-1.2,-1.1854,-1.1779,-1.1647,-1.162,-1.184,-1.1814,-1.1728,-1.2461,-1.2573,-1.2368,-1.223,-1.1933,-1.1574,-1.0778,0.0,0.0,0.0,0.0,-1.2278,-1.2572,-1.2979,-1.3394,-1.3687,-1.3754,-1.3762,-1.3553,-1.3258,-1.27,-1.1948,-1.1835,-1.131,-0.9857,-1.0074,0.0,-0.9421,-1.0248,-1.0962,-1.1239,-1.1869,-1.2398,-1.2681,-1.2705,-1.2693,-1.2705,-1.1956,-1.1364,-1.1128,-1.1073,-1.1065,-1.107,-1.1121,-1.0327,-0.8742,0.0,0.0,0.0,0.0,0.0,0.0,0.0,0.0,0.0,0.0,0.0,0.0,0.0,0.0,0.0,0.0,0.0,0.0,0.0,0.0,0.0,0.0,0.0,0.0,0.0,0.0,0.0,0.0,0.0,-0.8546,-0.8822,0.0,0.0,0.0,0.0,-0.9108,-1.0023,-1.0685,-1.0823,-1.1586,-1.2043,-1.2005,-1.2361,-1.2441,-1.2307,-1.2907,-1.3294,-1.3294,-1.3741,-1.4041,-1.4041,-1.4048,-1.3873,-1.3691,-1.3691,-1.3691,-1.3652,-1.3246,-1.2824,-1.247,-1.2685,-1.2437,-1.215,-1.2592,-1.2692,-1.2726,-1.3066,-1.318,-1.3206,-1.3467,-1.316,-1.2694,-1.2291,-1.2204,0.0,0.0,-1.2672,-1.3213,-1.3419,-1.3601,-1.3694,-1.3995,-1.4075,-1.4082,-1.4068,-1.3802,-1.3374,-1.2272,-1.1966,-1.1626,-1.1013,0.0,-1.0965,-1.096,-1.1274,-1.1594,-1.1846,-1.2331,-1.2693,-1.2705,-1.2705,-1.2693,-1.2705,-1.2667,-1.217,-1.114,-1.1082,-1.1118,-1.1099,-1.1068,-1.1047,-1.0942,-0.8854,0.0,0.0,0.0,0.0,0.0,0.0,0.0,0.0,0.0,0.0,0.0,0.0,0.0,0.0,0.0,0.0,0.0,0.0,0.0,0.0,0.0,0.0,0.0,0.0,0.0,0.0,0.0,0.0,-0.911,-0.9381,0.0,-0.9517,-0.9987,-1.0288,-1.0387,-1.1064,-1.1559,-1.1809,-1.2098,-1.2584,-1.3192,-1.3302,-1.362,-1.3991,-1.4089,-1.4228,-1.4409,-1.4421,-1.4474,-1.4649,-1.4649,-1.4649,-1.4562,-1.4562,-1.4562,-1.4542,-1.4429,-1.4048,-1.3546,-1.3814,-1.3821,-1.3685,-1.4062,-1.426,-1.4188,-1.4302,-1.4342,-1.4322,-1.4235,-1.3935,-1.3587,-1.348,-1.3581,-1.3734,-1.3734,-1.4021,-1.4362,-1.4469,-1.4496,-1.4522,-1.4629,-1.4379,-1.419,-1.419,-1.3844,-1.3498,-1.312,-1.3033,-1.2856,-1.2357,-1.226,-1.2058,-1.1484,-1.1745,-1.2074,-1.2337,-1.2553,-1.2705,-1.2705,-1.2705,-1.2668,-1.2668,-1.2713,-1.2519,-1.2147,-1.1504,-1.1129,-1.1115,-1.1137,-1.1091,-1.1066,-0.967,-0.8169,0.0,0.0,0.0,0.0,0.0,0.0,0.0,0.0,0.0,0.0,0.0,0.0,0.0,0.0,0.0,0.0,0.0,0.0,0.0,0.0,0.0,0.0,0.0,0.0,0.0,-0.9405,-0.9862,-0.9792,-1.0208,-1.0547,-1.0616,-1.1093,-1.139,-1.1587,-1.2117,-1.2479,-1.2757,-1.294,-1.3374,-1.4017,-1.4123,-1.4394,-1.4867,-1.4777,-1.4777,-1.4963,-1.4777,-1.4867,-1.4963,-1.4963,-1.4963,-1.4963,-1.4963,-1.4963,-1.4963,-1.4963,-1.4736,-1.4402,-1.4596,-1.4669,-1.4696,-1.489,-1.4963,-1.4963,-1.4963,-1.4963,-1.493,-1.4736,-1.4536,-1.4382,-1.4382,-1.4516,-1.4669,-1.4669,-1.481,-1.4963,-1.4963,-1.4963,-1.4963,-1.4963,-1.4687,-1.4495,-1.4495,-1.4231,-1.3991,-1.4085,-1.3913,-1.3649,-1.3272,-1.3199,-1.3024,-1.2234,-1.2398,-1.2564,-1.2647,-1.2659,-1.2715,-1.2711,-1.2705,-1.2705,-1.2705,-1.2674,-1.255,-1.2185,-1.1467,-1.0588,-0.9537,-0.9501,-0.947,-0.9508,-0.8791,-0.8033,-0.7249,0.0,0.0,0.0,0.0,0.0,0.0,0.0,0.0,0.0,0.0,0.0,0.0,0.0,0.0,0.0,0.0,0.0,0.0,0.0,0.0,0.0,0.0,0.0,-0.9653,-0.9913,-1.0308,-1.0642,-1.1329,-1.1745,-1.1608,-1.2182,-1.259,-1.2609,-1.3101,-1.347,-1.3841,-1.4296,-1.4575,-1.4597,-1.488,-1.4887,-1.4617,-1.49,-1.499,-1.499,-1.499,-1.499,-1.499,-1.499,-1.499,-1.499,-1.499,-1.499,-1.499,-1.499,-1.499,-1.499,-1.4983,-1.4977,-1.4977,-1.499,-1.499,-1.499,-1.499,-1.499,-1.499,-1.499,-1.499,-1.499,-1.499,-1.499,-1.499,-1.499,-1.499,-1.499,-1.499,-1.499,-1.499,-1.499,-1.499,-1.499,-1.499,-1.499,-1.507,-1.5357,-1.4636,-1.3907,-1.3622,-1.3707,-1.3785,-1.3308,-1.3211,0.0,-1.278,-1.2745,-1.2738,-1.2667,-1.2717,-1.2711,-1.2711,-1.2739,-1.228,-1.1204,-1.1147,-0.9723,-0.6535,-0.6317,-0.6321,-0.6328,-0.6375,-0.6311,-0.5988,0.0,0.0,0.0,0.0,0.0,0.0,0.0,0.0,0.0,0.0,0.0,0.0,0.0,0.0,0.0,0.0,0.0,0.0,0.0,0.0,0.0,-0.994,-1.0378,-1.0127,-1.0898,-1.1527,-1.1689,-1.2069,-1.2491,-1.2775,-1.3024,-1.32,-1.3436,-1.3801,-1.4056,-1.4343,-1.4523,-1.479,-1.5172,-1.5277,-1.5378,-1.5491,-1.5498,-1.5591,-1.5591,-1.5591,-1.5591,-1.5591,-1.5591,-1.5591,-1.5591,-1.5591,-1.5591,-1.5591,-1.5591,-1.5591,-1.5571,-1.5357,-1.5277,-1.5304,-1.5518,-1.5591,-1.5591,-1.5591,-1.5591,-1.5591,-1.5591,-1.5591,-1.5591,-1.5591,-1.5591,-1.5591,-1.5591,-1.5591,-1.5591,-1.5591,-1.5591,-1.5591,-1.5591,-1.5498,-1.5404,-1.5404,-1.5223,-1.5061,-1.5139,-1.5087,-1.5058,-1.4943,-1.4443,-1.4109,-1.3923,-1.3333,-1.3117,-1.3746,-1.3141,-1.273,-1.269,-1.2698,-1.2679,-1.2679,-1.2734,-1.2261,-1.1181,-1.1627,-1.1193,-0.9509,-0.745,-0.6381,-0.6375,-0.6698,-0.6583,0.0,0.0,0.0,0.0,0.0,0.0,0.0,0.0,0.0,0.0,0.0,0.0,0.0,0.0,0.0,0.0,0.0,0.0,0.0,0.0,0.0,0.0,-1.0763,-1.1289,-1.1154,-1.1728,-1.2214,-1.2588,-1.2863,-1.3228,-1.3633,-1.3756,-1.3946,-1.4311,-1.4438,-1.4652,-1.4942,-1.4955,-1.5087,-1.5571,-1.5578,-1.5658,-1.5832,-1.5832,-1.5832,-1.5832,-1.5832,-1.5832,-1.5832,-1.5832,-1.5832,-1.5832,-1.5832,-1.5832,-1.5832,-1.5832,-1.5832,-1.5812,0.0,0.0,0.0,0.0,-1.5832,-1.5832,-1.5832,-1.5832,-1.5832,-1.5832,-1.5832,-1.5832,-1.5832,-1.5832,-1.5832,-1.5832,-1.5832,-1.5832,-1.5832,-1.5832,-1.5832,-1.5832,-1.573,-1.5635,-1.5635,-1.5452,-1.5363,-1.5363,-1.5547,0.0,-1.5605,-1.5041,-1.4542,-1.4253,-1.3749,-1.3719,-1.4819,-1.439,-1.3956,-1.3973,-1.3607,-1.3169,-1.2768,-1.3045,0.0,0.0,0.0,-1.1514,-0.986,-0.8172,0.0,0.0,0.0,0.0,0.0,-0.6989,0.0,0.0,-0.6631,-0.6728,0.0,0.0,0.0,0.0,0.0,0.0,0.0,0.0,0.0,0.0,0.0,0.0,0.0,0.0,0.0,0.0,-1.177,-1.2338,-1.2438,-1.2452,-1.2676,-1.3222,-1.3536,-1.3858,-1.4209,-1.4462,-1.4696,-1.499,-1.5017,-1.5137,-1.5431,-1.5444,0.0,0.0,0.0,-1.5832,-1.5832,-1.5832,-1.5832,-1.5832,-1.5832,-1.5832,-1.5832,-1.5832,-1.5832,-1.5832,-1.5832,-1.5832,-1.5832,-1.5832,-1.5832,-1.5832,-1.5832,-1.5832,-1.5832,-1.5832,-1.5832,-1.5832,-1.5832,0.0,0.0,-1.5832,-1.5832,-1.5832,-1.5832,-1.5832,-1.5832,-1.5832,-1.5832,-1.5832,-1.5832,-1.5832,-1.5832,-1.5832,-1.5832,-1.5832,-1.5832,-1.5832,-1.5832,-1.5832,-1.5832,-1.5832,-1.5832,-1.5534,-1.5134,-1.4536,-1.4435,-1.4766,-1.5658,-1.5824,-1.5828,-1.5777,-1.4993,0.0,-1.3133,-1.3732,-1.4102,-1.4125,-1.2737,-1.089,-0.8712,-0.8631,-0.8581,-0.8622,-0.8173,-0.8007,-0.8205,-0.8015,-0.7878,-0.7866,-0.7266,-0.7359,0.0,0.0,0.0,0.0,0.0,0.0,0.0,0.0,0.0,0.0,0.0,0.0,0.0,0.0,0.0,-1.1557,-1.2037,-1.2559,-1.328,-1.338,-1.3366,-1.3539,-1.3977,-1.4396,-1.4422,-1.4736,-1.4997,-1.5291,-1.5311,-1.5438,-1.5732,-1.5745,-1.5772,-1.5832,-1.5832,-1.5832,-1.5832,-1.5832,-1.5832,-1.5832,-1.5832,0.0,-1.5832,-1.5832,-1.5832,-1.5832,-1.5832,-1.5832,-1.5832,-1.5832,-1.5832,-1.5832,-1.5832,-1.5832,-1.5832,-1.5832,-1.5832,-1.5832,-1.5832,-1.5832,-1.5832,-1.5832,-1.5832,-1.5832,-1.5832,-1.5832,0.0,-1.5832,-1.5832,-1.5832,-1.5832,-1.5832,-1.5832,-1.5832,-1.5832,-1.5832,-1.5832,-1.5832,-1.5832,-1.5832,-1.5832,-1.5832,-1.5832,-1.573,-1.5635,-1.5527,-1.5527,-1.5615,-1.5772,-1.5765,-1.5752,-1.5819,-1.5604,-1.5436,-1.5179,-1.4501,-1.4106,-1.4132,-1.1112,-0.9117,-0.86,-0.8568,-0.861,-0.8603,-0.8649,-0.8493,-0.8049,-0.8402,-0.8613,-0.8605,-0.8211,-0.8105,0.0,0.0,0.0,0.0,0.0,0.0,0.0,0.0,0.0,0.0,0.0,-1.008,-1.0661,0.0,-1.1283,-1.2164,-1.2559,-1.2966,-1.3561,-1.3774,-1.3868,-1.3868,-1.4255,-1.4583,-1.473,-1.501,-1.5297,-1.5591,-1.5611,-1.5678,-1.5818,-1.5832,-1.5832,-1.5832,-1.5832,-1.5832,-1.5832,-1.5832,-1.5832,-1.5832,-1.5832,-1.5832,-1.5832,-1.5832,-1.5832,-1.5832,-1.5832,-1.5832,-1.5832,-1.5832,-1.5832,-1.5832,-1.5832,-1.5832,-1.5832,-1.5832,-1.5832,-1.5832,-1.5832,-1.5832,-1.5832,-1.5832,-1.5832,-1.5832,-1.5832,-1.5832,-1.5832,-1.5832,-1.5832,-1.5832,-1.5832,-1.5832,-1.5832,-1.5832,-1.5832,-1.5832,-1.5832,-1.5832,-1.5832,-1.5832,-1.5832,-1.5832,-1.5832,-1.5832,-1.5832,-1.5832,-1.5832,-1.5832,-1.5832,-1.5832,-1.5832,-1.5845,-1.5826,-1.5785,-1.5841,-1.5255,-1.4691,-1.4184,-1.2394,-1.1392,-1.1321,-0.9571,-0.8678,-0.8832,-0.8922,-0.8743,-0.8556,-0.8828,-0.8958,-0.8958,-0.8865,-0.8775,0.0,0.0,0.0,0.0,0.0,0.0,0.0,-0.9733,-1.0234,-1.0347,-1.0561,-1.0889,-1.1416,-1.1557,-1.187,-1.2775,-1.3093,-1.3394,-1.3687,-1.3935,-1.4108,-1.4162,-1.4429,-1.4723,-1.5023,-1.5311,-1.5578,-1.5812,-1.5832,-1.5832,-1.5832,-1.5832,-1.5832,-1.5832,-1.5832,-1.5832,-1.5832,-1.5832,-1.5832,-1.5832,-1.5832,-1.5832,-1.5832,-1.5832,-1.5832,-1.5832,-1.5832,-1.5832,-1.5832,-1.5832,-1.5832,-1.5832,-1.5832,-1.5832,-1.5832,-1.5832,-1.5832,-1.5832,-1.5832,-1.5832,-1.5832,-1.5832,-1.5832,-1.5832,-1.5832,-1.5832,-1.5832,-1.5832,-1.5832,-1.5832,-1.5832,-1.5832,-1.5832,-1.5832,-1.5832,-1.5832,-1.5832,-1.5832,-1.5832,-1.5832,-1.5832,-1.5832,-1.5832,-1.5832,-1.5832,-1.5832,-1.5832,-1.5832,-1.5832,-1.5832,-1.5832,-1.5832,-1.5832,-1.5839,-1.5817,-1.5048,-1.4546,-1.4466,-1.439,-1.4403,-1.4457,-1.0842,-0.893,-0.9194,-0.9129,-0.9051,-0.9145,-0.9181,-0.9202,-0.9202,-0.9344,-0.9311,-0.8977,-0.9285,-0.9486,-0.9486,-0.9566,-0.9826,0.0,-1.0621,-1.0655,-1.1169,-1.1303,-1.143,-1.1757,-1.2031,-1.2412,-1.3053,-1.3407,-1.3701,-1.3995,-1.4068,-1.4182,-1.4442,-1.4736,-1.503,-1.5317,-1.5611,-1.5792,-1.5825,-1.5832,-1.5832,-1.5832,-1.5832,-1.5832,-1.5832,-1.5832,-1.5832,-1.5832,-1.5832,-1.5832,-1.5832,-1.5832,-1.5832,-1.5832,-1.5832,-1.5832,-1.5832,-1.5832,-1.5832,-1.5832,-1.5832,-1.5832,-1.5832,-1.5832,-1.5832,-1.5832,-1.5832,-1.5832,-1.5832,-1.5832,-1.5832,-1.5832,-1.5832,-1.5832,-1.5832,-1.5832,-1.5832,-1.5832,-1.5832,-1.5832,-1.5832,-1.5832,-1.5832,-1.5832,-1.5832,-1.5832,-1.5832,-1.5832,-1.5832,-1.5832,-1.5832,-1.5832,-1.5832,-1.5832,-1.5832,-1.5832,-1.5832,-1.5832,-1.5832,-1.5832,-1.5832,-1.5832,-1.5832,-1.5832,-1.5818,-1.5785,-1.2465,-1.1786,-1.5405,-1.5568,-1.5626,-1.5629,-1.1657,-0.9524,-0.9584,-0.9543,-0.9427,-0.9328,-0.949,-0.9567,-0.9567,-0.9587,-0.9498,-0.9419,-0.9586,-0.9686,-0.9686,-1.0067,-1.0501,-1.0695,-1.1042,-1.139,-1.1637,-1.1817,-1.2024,-1.2325,-1.2553,-1.2759,-1.3367,-1.3567,-1.3748,-1.4048,-1.4088,-1.4195,-1.4482,-1.4783,-1.5077,-1.5364,-1.5658,-1.5832,-1.5832,-1.5832,-1.5832,-1.5832,-1.5832,-1.5832,-1.5832,-1.5832,-1.5832,-1.5832,-1.5832,-1.5832,-1.5832,-1.5832,-1.5832,-1.5832,-1.5832,-1.5832,-1.5832,-1.5832,-1.5832,-1.5832,-1.5832,-1.5832,-1.5832,-1.5832,-1.5832,-1.5832,-1.5832,-1.5832,-1.5832,-1.5832,-1.5832,-1.5832,-1.5832,-1.5832,-1.5832,-1.5832,-1.5832,-1.5832,-1.5832,-1.5832,-1.5832,-1.5832,-1.5832,-1.5832,-1.5832,-1.5832,-1.5832,-1.5832,-1.5832,-1.5832,-1.5832,-1.5832,-1.5832,-1.5832,-1.5832,-1.5832,-1.5832,-1.5832,-1.5832,-1.5832,-1.5832,-1.5832,-1.5832,-1.5832,-1.4797,-1.2443,-1.2841,-1.2936,-1.222,-1.2168,-1.2173,-1.2146,-1.0514,-0.964,-0.9606,-0.9579,-0.9616,-0.9514,-0.9592,-0.9628,-0.9628,-0.9628,-0.9587,-0.9576,-0.9737,-0.982,-0.9907,-1.0461,-1.0982,-1.0929,-1.1485,-1.1891,-1.1977,-1.2151,-1.2392,-1.2768,-1.2896,-1.3046,-1.3561,-1.3714,-1.3841,-1.4055,-1.4088,-1.4222,-1.4596,-1.4836,-1.511,-1.5478,-1.5705,-1.5832,-1.5832,-1.5832,-1.5832,-1.5832,-1.5832,-1.5832,-1.5832,-1.5832,-1.5832,-1.5832,-1.5832,-1.5832,-1.5832,-1.5832,-1.5832,-1.5832,-1.5832,-1.5832,-1.5832,-1.5832,-1.5832,-1.5832,-1.5832,-1.5832,-1.5832,-1.5832,-1.5832,-1.5832,-1.5832,-1.5832,-1.5832,-1.5832,-1.5832,-1.5832,-1.5832,-1.5832,-1.5832,-1.5832,-1.5832,-1.5832,-1.5832,-1.5832,-1.5832,-1.5832,-1.5832,-1.5832,-1.5832,-1.5832,-1.5832,-1.5832,-1.5832,-1.5832,-1.5832,-1.5832,-1.5832,-1.5832,-1.5832,-1.5832,-1.5832,-1.5832,-1.5832,-1.5832,-1.5832,-1.5832,-1.5832,-1.5757,-1.462,-1.1547,-1.3052,-1.2802,-0.974,-0.9575,-0.9612,-0.9551,-0.9555,-0.9575,-0.9628,-0.9628,-0.9628,-0.9628,-0.9628,-0.9628,-0.9628,-0.9628,-0.9723,-0.9486,-0.9724,-1.0174,-1.0461,-1.0768,-1.1136,-1.1703,-1.185,-1.1951,-1.2231,-1.2291,-1.2392,-1.2768,-1.2993,-1.3293,-1.3594,-1.3881,-1.4075,-1.4088,-1.4088,-1.4302,-1.4883,-1.4957,-1.519,-1.5758,-1.5825,-1.5832,-1.5832,-1.5832,-1.5832,-1.5832,-1.5832,-1.5832,-1.5832,-1.5832,-1.5832,-1.5832,-1.5832,-1.5832,-1.5832,-1.5832,-1.5832,-1.5832,-1.5832,-1.5832,-1.5832,-1.5832,-1.5832,-1.5832,-1.5832,-1.5832,-1.5832,-1.5832,-1.5832,-1.5832,-1.5832,-1.5832,-1.5832,-1.5832,-1.5832,-1.5832,-1.5832,-1.5832,-1.5832,-1.5832,-1.5832,-1.5832,-1.5832,-1.5832,-1.5832,-1.5832,-1.5832,-1.5832,-1.5832,-1.5832,-1.5832,-1.5832,-1.5832,-1.5832,-1.5832,-1.5832,-1.5832,-1.5832,-1.5832,-1.5832,-1.5832,-1.5832,-1.5832,-1.5832,-1.5832,-1.5832,-1.5832,-1.583,-1.5747,-1.5629,-1.2073,-0.9701,-0.9643,-0.9555,-0.9624,-0.9624,-0.9624,-0.9624,-0.9628,-0.9628,-0.9628,-0.9628,-0.9628,-0.9628,-0.9628,-0.9628,-1.0109,-1.01,-1.0322,-1.0481,-1.0775,-1.1216,-1.1623,-1.1824,-1.2017,-1.2184,-1.2278,-1.2305,-1.2392,-1.2768,-1.2999,-1.3307,-1.3594,-1.4055,-1.4376,-1.4376,-1.4549,-1.4743,-1.4943,-1.5137,-1.5331,-1.5524,-1.5718,-1.5832,-1.5832,-1.5832,-1.5832,-1.5832,-1.5832,-1.5832,-1.5832,-1.5832,-1.5832,-1.5832,-1.5832,-1.5832,-1.5832,-1.5832,-1.5832,-1.5832,-1.5832,-1.5832,-1.5832,-1.5832,-1.5832,-1.5832,-1.5832,-1.5832,-1.5832,-1.5832,-1.5832,-1.5832,-1.5832,-1.5832,-1.5832,-1.5832,-1.5832,-1.5832,-1.5832,-1.5832,-1.5832,-1.5832,-1.5832,-1.5832,-1.5832,-1.5832,-1.5832,-1.5832,-1.5832,-1.5832,-1.5832,-1.5832,-1.5832,-1.5832,-1.5832,-1.5832,-1.5832,-1.5832,-1.5832,-1.5832,-1.5832,-1.5832,-1.5832,-1.5832,-1.5832,-1.5832,-1.5832,-1.5832,-1.5832,-1.5763,-1.577,-1.5832,-1.4502,-1.2501,-0.974,-0.9616,-0.9579,-0.9624,-0.9628,-0.9628,-0.9628,-0.9628,-0.9628,-0.9628,-0.9628,-0.9916,-1.069,-1.069,-1.1175,-1.0498,-1.0624,-1.0745,-1.1182,-1.159,-1.1897,-1.1997,-1.2171,-1.2271,-1.2171,-1.2144,-1.2238,-1.2532,-1.2752,-1.3053,-1.3561,-1.4048,-1.4402,-1.4502,-1.4776,-1.5003,-1.5104,-1.5284,-1.5438,-1.5538,-1.5718,-1.5832,-1.5832,-1.5832,-1.5832,-1.5832,-1.5832,-1.5832,-1.5832,-1.5832,-1.5832,-1.5832,-1.5832,-1.5832,-1.5832,-1.5832,-1.5832,-1.5832,-1.5832,-1.5832,-1.5832,-1.5832,-1.5832,-1.5832,-1.5832,-1.5832,-1.5832,-1.5832,-1.5832,-1.5832,-1.5832,-1.5832,-1.5832,-1.5832,-1.5832,-1.5832,-1.5832,-1.5832,-1.5832,-1.5832,-1.5832,-1.5832,-1.5832,-1.5832,-1.5832,-1.5832,-1.5832,-1.5832,-1.5832,-1.5832,-1.5832,-1.5832,-1.5832,-1.5832,-1.5832,-1.5832,-1.5832,-1.5832,-1.5832,-1.5832,-1.5832,-1.5832,-1.5832,-1.5832,-1.5832,-1.5832,-1.5832,-1.5832,-1.5832,-1.5832,-1.583,-1.4641,-1.1961,-1.0383,-0.9624,-0.9587,-0.9571,-0.9583,-0.9628,-1.0306,-1.0502,-1.0207,-1.0502,-1.1082,-1.1755,-1.1755,-1.2242,-1.0746,-1.0728,-1.0893,-1.1663,-1.1877,-1.1957,-1.2218,-1.2278,-1.2198,-1.1904,-1.1844,-1.1931,-1.2204,-1.2278,-1.2585,-1.3454,-1.3881,-1.4208,-1.4502,-1.481,-1.511,-1.5384,-1.5418,-1.5524,-1.5805,-1.5832,-1.5832,-1.5832,-1.5832,-1.5832,-1.5832,-1.5832,-1.5832,-1.5832,-1.5832,-1.5832,-1.5832,-1.5832,-1.5832,-1.5832,-1.5832,-1.5832,-1.5832,-1.5832,-1.5832,-1.5832,-1.5832,-1.5832,-1.5832,-1.5845,-1.5845,-1.5832,-1.5845,-1.5845,-1.5832,-1.5832,-1.5832,-1.5832,-1.5832,-1.5832,-1.5832,-1.5832,-1.5832,-1.5832,-1.5832,-1.5832,-1.5832,-1.5832,-1.5832,-1.5832,-1.5832,-1.5832,-1.5832,-1.5832,-1.5832,-1.5832,-1.5832,-1.5832,-1.5832,-1.5832,-1.5832,-1.5832,-1.5832,-1.5832,-1.5832,-1.5832,-1.5832,-1.5832,-1.5832,-1.5832,-1.5832,-1.5832,-1.5832,-1.5832,-1.5832,-1.583,-1.5794,-1.58,-1.2062,-0.9964,-0.9926,-0.9672,-0.9697,-0.9924,-1.1765,-1.2242,-1.1268,-1.2242,-1.2727,-1.2829,-1.2829,-1.3312,-1.0931,-1.127,-1.159,-1.1817,-1.2031,-1.2151,-1.2011,-1.1984,-1.1897,-1.1597,-1.1543,-1.1563,-1.1637,-1.2004,-1.2445,-1.2906,-1.3781,-1.4509,-1.481,-1.5284,-1.5631,-1.5712,-1.5718,-1.5745,-1.5818,-1.5832,-1.5832,-1.5832,-1.5832,-1.5832,-1.5832,-1.5832,-1.5832,-1.5832,-1.5832,-1.5832,-1.5832,-1.5832,-1.5832,-1.5832,-1.5832,-1.5832,-1.5832,-1.5832,-1.5832,-1.5832,-1.5832,-1.5832,-1.5845,-1.6072,-1.6032,-1.5852,-1.6072,-1.6025,-1.5832,-1.5832,-1.5832,-1.5832,-1.5832,-1.5832,-1.5832,-1.5832,-1.5832,-1.5832,-1.5832,-1.5832,-1.5832,-1.5832,-1.5832,-1.5832,-1.5832,-1.5832,-1.5832,-1.5832,-1.5832,-1.5832,-1.5832,-1.5832,-1.5832,-1.5832,-1.5832,-1.5832,-1.5832,-1.5832,-1.5832,-1.5832,-1.5832,-1.5832,-1.5832,-1.5832,-1.5832,-1.5832,-1.5832,-1.5832,-1.5832,-1.5757,-1.581,-1.5794,-1.4846,-1.4256,-1.4237,-1.1284,-1.1085,-1.4175,-1.318,-1.2533,-1.2339,-1.2533,-1.3119,-1.3902,-1.3902,-1.4484,-1.1364,-1.1617,-1.1897,-1.2031,-1.2084,-1.2037,-1.1744,-1.167,-1.1557,-1.1136,-1.1149,-1.1236,-1.1236,-1.161,-1.2098,-1.2728,-1.3527,-1.4329,-1.489,-1.5351,-1.5685,-1.5812,-1.5832,-1.5832,-1.5832,-1.5832,-1.5832,-1.5832,-1.5832,-1.5832,-1.5832,-1.5832,-1.5832,-1.5832,-1.5832,-1.5832,-1.5832,-1.5832,-1.5832,-1.5832,-1.5832,-1.5832,-1.5832,-1.5832,-1.5832,-1.5832,-1.5832,-1.5832,-1.5852,-1.6152,-1.6099,-1.5858,-1.6159,-1.6092,-1.5832,-1.5832,-1.5832,-1.5832,-1.5832,-1.5832,-1.5832,-1.5832,-1.5832,-1.5832,-1.5832,-1.5832,-1.5832,-1.5832,-1.5832,-1.5832,-1.5832,-1.5832,-1.5832,-1.5832,-1.5832,-1.5832,-1.5832,-1.5832,-1.5832,-1.5832,-1.5832,-1.5832,-1.5832,-1.5832,-1.5832,-1.5832,-1.5832,-1.5832,-1.5832,-1.5832,-1.5832,-1.5832,-1.5832,-1.5832,-1.5832,-1.5832,-1.5757,-1.5823,-1.5823,-1.5767,-1.577,-1.3578,-1.3392,-1.5725,-1.466,-1.38,-1.3414,-1.3896,-1.4376,-1.4968,-1.4968,-1.5255,-1.175,-1.187,-1.1977,-1.2191,-1.2058,-1.177,-1.1396,-1.1309,-1.1142,-1.0561,-1.0675,-1.0875,-1.0875,-1.1149,-1.1657,-1.2545,-1.3193,-1.3908,-1.4836,-1.5211,-1.5504,-1.5792,-1.5832,-1.5832,-1.5832,-1.5832,-1.5832,-1.5832,-1.5832,-1.5832,-1.5832,-1.5832,-1.5832,-1.5832,-1.5832,-1.5832,-1.5832,-1.5832,-1.5832,-1.5832,-1.5832,-1.5832,-1.5832,-1.5832,-1.5832,-1.5832,-1.5832,-1.5832,-1.5852,-1.6152,-1.6099,-1.5858,-1.6159,-1.6092,-1.5832,-1.5832,-1.5832,-1.5832,-1.5832,-1.5832,-1.5832,-1.5832,-1.5832,-1.5832,-1.5832,-1.5832,-1.5832,-1.5832,-1.5832,-1.5832,-1.5832,-1.5832,-1.5832,-1.5832,-1.5832,-1.5832,-1.5832,-1.5832,-1.5832,-1.5832,-1.5832,-1.5832,-1.5832,-1.5832,-1.5832,-1.5832,-1.5832,-1.5832,-1.5832,-1.5832,-1.5832,-1.5832,-1.5832,-1.5832,-1.5832,-1.5832,-1.5832,-1.5832,-1.5832,-1.5777,-1.5774,-1.5783,-1.5817,-1.5789,-1.5823,-1.535,-1.449,-1.535,-1.5832,-1.5832,-1.5832,-1.5832,-1.1557,-1.1857,-1.2184,-1.1991,-1.1904,-1.1663,-1.0954,-1.0715,-1.0541,-0.996,-1.0067,-1.0267,-1.0267,-1.0708,-1.1356,-1.2238,-1.2886,-1.3674,-1.481,-1.5211,-1.5504,-1.5792,-1.5832,-1.5832,-1.5832,-1.5832,-1.5832,-1.5832,-1.5832,-1.5832,-1.5832,-1.5832,-1.5832,-1.5832,-1.5832,-1.5832,-1.5832,-1.5832,-1.5832,-1.5832,-1.5832,-1.5832,-1.5832,-1.5832,-1.5832,-1.5832,-1.5832,-1.5832,-1.5852,-1.6152,-1.6099,-1.5858,-1.6159,-1.6092,-1.5832,-1.5832,-1.5832,-1.5832,-1.5832,-1.5832,-1.5832,-1.5832,-1.5832,-1.5832,-1.5832,-1.5832,-1.5832,-1.5832,-1.5832,-1.5832,-1.5832,-1.5832,-1.5832,-1.5832,-1.5832,-1.5832,-1.5832,-1.5832,-1.5832,-1.5832,-1.5832,-1.5832,-1.5832,-1.5832,-1.5832,-1.5832,-1.5832,-1.5832,-1.5832,-1.5832,-1.5832,-1.5832,-1.5832,-1.5832,-1.5832,-1.5832,-1.5832,-1.5832,-1.5832,-1.5838,-1.5757,-1.5838,-1.5845,-1.5783,-1.5845,-1.573,-1.554,-1.573,-1.5832,-1.5832,-1.5832,-1.5832,-1.1657,-1.1864,-1.2044,-1.1904,-1.1757,-1.141,-1.0528,-1.0327,-1.016,-0.9573,-0.9686,-0.9933,-1.0087,-1.0474,-1.1056,-1.1931,-1.2445,-1.3206,-1.4543,-1.4856,-1.5164,-1.5758,-1.5832,-1.6015,-1.6487,-1.6581,-1.6581,-1.6581,-1.6581,-1.6393,-1.5832,-1.5832,-1.5832,-1.5832,-1.5832,-1.5832,-1.5832,-1.5832,-1.5832,-1.5832,-1.5832,-1.5832,-1.5832,-1.5832,-1.5832,-1.5832,-1.5832,-1.5832,-1.5852,-1.6152,-1.6099,-1.5858,-1.6159,-1.6092,-1.5832,-1.5832,-1.5832,-1.5832,-1.5832,-1.5832,-1.5832,-1.5832,-1.5832,-1.5832,-1.5832,-1.5832,-1.5832,-1.5832,-1.5832,-1.5832,-1.5832,-1.5832,-1.5832,-1.5832,-1.5832,-1.5832,-1.5832,-1.5832,-1.5832,-1.5832,-1.5832,-1.5832,-1.5832,-1.5832,-1.5832,-1.5832,-1.5832,-1.5832,-1.5832,-1.5832,-1.5832,-1.5832,-1.5832,-1.5832,-1.5832,-1.5832,-1.5832,-1.5832,-1.5832,-1.5832,-1.5832,-1.5832,-1.5832,-1.5832,-1.5832,-1.5832,-1.5832,-1.5832,-1.5832,-1.5832,-1.5927,-1.592,-1.1637,-1.1777,-1.1837,-1.171,-1.155,-1.1176,-1.0241,-1.002,-0.986,-0.9265,-0.9379,-0.9679,-0.9967,-1.0267,-1.0775,-1.1717,-1.2058,-1.2802,-1.4464,-1.4729,-1.5082,-1.5912,-1.625,-1.6669,-1.7232,-1.7512,-1.7512,-1.7326,-1.7326,-1.6864,-1.5825,-1.5832,-1.5832,-1.5832,-1.5832,-1.5832,-1.5832,-1.5832,-1.5832,-1.5832,-1.5832,-1.5832,-1.5832,-1.5832,-1.5832,-1.5832,-1.5832,-1.5832,-1.5845,-1.6079,-1.6039,-1.5852,-1.6086,-1.6039,-1.5832,-1.5832,-1.5832,-1.5832,-1.5832,-1.5832,-1.5832,-1.5832,-1.5832,-1.5832,-1.5832,-1.5832,-1.5832,-1.5832,-1.5832,-1.5832,-1.5832,-1.5832,-1.5832,-1.5832,-1.5832,-1.5832,-1.5832,-1.5832,-1.5832,-1.5832,-1.5832,-1.5832,-1.5832,-1.5832,-1.5832,-1.5832,-1.5832,-1.5832,-1.5832,-1.5832,-1.5832,-1.5832,-1.5832,-1.5832,-1.5832,-1.5832,-1.5832,-1.5832,-1.5832,-1.5832,-1.5832,-1.5832,-1.5832,-1.5832,-1.5832,-1.5832,-1.5832,-1.5832,-1.5832,-1.5927,-1.6021,-1.6103,-1.1202,-1.1463,-1.1744,-1.1209,-1.1249,-1.1129,-0.9987,-0.9726,-0.9552,-0.8965,-0.9078,-0.9372,-0.9666,-0.996,-1.0534,-1.1683,-1.1891,-1.2716,-1.4964,-1.5602,-1.6024,-1.6519,-1.7773,-1.8241,-1.7419,-1.8149,-1.8241,-1.7326,-1.7326,-1.6864,-1.5825,-1.5832,-1.5832,-1.5832,-1.5832,-1.5832,-1.5832,-1.5832,-1.5832,-1.5832,-1.5832,-1.5832,-1.5832,-1.5832,-1.5832,-1.5832,-1.5832,-1.5832,-1.5832,-1.5858,-1.5852,-1.5832,-1.5858,-1.5852,-1.5832,-1.5832,-1.5832,-1.5832,-1.5832,-1.5832,-1.5832,-1.5832,-1.5832,-1.5832,-1.5832,-1.5832,-1.5832,-1.5832,-1.5832,-1.5832,-1.5832,-1.5832,-1.5832,-1.5832,-1.5832,-1.5832,-1.5832,-1.5832,-1.5832,-1.5832,-1.5832,-1.5832,-1.5832,-1.5832,-1.5832,-1.5832,-1.5832,-1.5832,-1.5832,-1.5832,-1.5832,-1.5832,-1.5832,-1.5832,-1.5832,-1.5832,-1.5832,-1.5832,-1.5832,-1.5832,-1.5832,-1.5832,-1.5832,-1.5832,-1.5832,-1.5832,-1.5832,-1.5832,-1.5927,-1.613,-1.5906,-1.6089,-1.0975,-1.1162,-1.1283,-1.1049,-1.1082,-1.0902,-0.9907,-0.9686,-0.9519,-0.8925,-0.8898,-0.9065,-0.9365,-0.9659,-1.0067,-1.0708,-1.1441,-1.2493,-1.4062,-1.5057,-1.6108,-1.711,-1.7905,-1.8656,-1.9039,-1.943,-1.9521,-1.9155,-1.8519,-1.8056,-1.7591,-1.7044,-1.6669,-1.6669,-1.6109,-1.5832,-1.5832,-1.5832,-1.5832,-1.5832,-1.5832,-1.5832,-1.5832,-1.5832,-1.5832,-1.5832,-1.5832,-1.5832,-1.5832,-1.5832,-1.5832,-1.5832,-1.5832,-1.5832,-1.5832,-1.5832,-1.5832,-1.5832,-1.5832,-1.5832,-1.5832,-1.5832,-1.5832,-1.5832,-1.5832,-1.5832,-1.5832,-1.5832,-1.5832,-1.5832,-1.5832,-1.5832,-1.5832,-1.5832,-1.5832,-1.5832,-1.5832,-1.5832,-1.5832,-1.5832,-1.5832,-1.5832,-1.5832,-1.5832,-1.5832,-1.5832,-1.5832,-1.5832,-1.5832,-1.5832,-1.5832,-1.5832,-1.5832,-1.5832,-1.5832,-1.5832,-1.5832,-1.5832,-1.5832,-1.5832,-1.5832,-1.5832,-1.5832,-1.5832,-1.5818,-1.592,-1.6245,-1.6204,-1.619,-1.6285,-1.6379,-1.6264,-1.0782,-1.0929,-1.0969,-1.0882,-1.0929,-1.0762,-0.9886,-0.9686,-0.9519,-0.8925,-0.891,-0.9178,-0.957,-0.9988,-1.0413,-1.0901,-1.1816,-1.2908,-1.4186,-1.5364,-1.6563,-1.7693,-1.8431,-1.9242,-2.0052,-2.0189,-2.0339,-2.0339,-1.9613,-1.9247,-1.9247,-1.8334,-1.7606,-1.7333,-1.6298,-1.5832,-1.5832,-1.6109,-1.6204,-1.6204,-1.6204,-1.6204,-1.6204,-1.5927,-1.5832,-1.5832,-1.5832,-1.5832,-1.5832,-1.5832,-1.5832,-1.5832,-1.5832,-1.5832,-1.5832,-1.5832,-1.5832,-1.5832,-1.5832,-1.5832,-1.5832,-1.5832,-1.5832,-1.5832,-1.5832,-1.5832,-1.5832,-1.5832,-1.5832,-1.5832,-1.5832,-1.5832,-1.5832,-1.5832,-1.5832,-1.5832,-1.5832,-1.5832,-1.5832,-1.5832,-1.5832,-1.5832,-1.5832,-1.5832,-1.5832,-1.5832,-1.5832,-1.5832,-1.5832,-1.5832,-1.5832,-1.5832,-1.5832,-1.5832,-1.5832,-1.5832,-1.5832,-1.5832,-1.5832,-1.5825,-1.5818,-1.5818,-1.5812,-1.5798,-1.5994,-1.6312,-1.6848,-1.6501,-1.6372,-1.6459,-1.6662,-1.6539,-1.0544,-1.0775,-1.0922,-1.0698,-1.0782,-1.0762,-0.9886,-0.9686,-0.9519,-0.8925,-0.9211,-0.9804,-1.0561,-1.1141,-1.1829,-1.2798,-1.3338,-1.4215,-1.6148,-1.7037,-1.7802,-1.8303,-1.9671,-2.0251,-1.9763,-2.0035,-2.0339,-2.0339,-2.0249,-2.0249,-2.0249,-1.9338,-1.8334,-1.7326,-1.6298,-1.5832,-1.5832,-1.677,-1.7232,-1.7232,-1.7232,-1.7232,-1.7232,-1.6204,-1.5832,-1.5832,-1.5832,-1.5832,-1.5832,-1.5832,-1.5832,-1.5832,-1.5832,-1.5832,-1.5832,-1.5832,-1.5832,-1.5832,-1.5832,-1.5832,-1.5832,-1.5832,-1.5832,-1.5832,-1.5832,-1.5832,-1.5832,-1.5832,-1.5832,-1.5832,-1.5832,-1.5832,-1.5832,-1.5832,-1.5832,-1.5832,-1.5832,-1.5832,-1.5832,-1.5832,-1.5832,-1.5832,-1.5832,-1.5832,-1.5832,-1.5832,-1.5832,-1.5832,-1.5832,-1.5832,-1.5832,-1.5832,-1.5832,-1.5832,-1.5832,-1.5832,-1.5832,-1.5832,-1.5832,-1.5818,-1.5798,-1.5798,-1.5778,-1.5833,-1.6358,-1.6805,-1.7334,-1.6805,-1.6676,-1.6763,-1.6655,-1.6842,-1.0621,-1.1181,-1.1594,-1.073,-1.0604,-1.0429,-0.9543,-0.9652,-0.9866,-0.9446,-0.9762,-1.0236,-1.0446,-1.1044,-1.1727,-1.2346,-1.3537,-1.4748,-1.6034,-1.7424,-1.8608,-1.9317,-2.0589,-2.1225,-2.1078,-2.1382,-2.1454,-2.1275,-2.1454,-2.1454,-2.1275,-2.0348,-1.9338,-1.8334,-1.7318,-1.6864,-1.6864,-1.7785,-1.8334,-1.8334,-1.8334,-1.7971,-1.7326,-1.6951,-1.6864,-1.677,-1.6109,-1.6204,-1.6763,-1.6109,-1.5832,-1.5825,-1.6581,-1.6864,-1.6951,-1.7591,-1.7863,-1.7863,-1.7863,-1.7863,-1.7777,-1.7044,-1.6864,-1.6669,-1.6015,-1.5832,-1.5832,-1.5832,-1.5832,-1.5832,-1.5832,-1.5832,-1.5832,-1.5832,-1.5832,-1.5832,-1.5832,-1.5832,-1.5832,-1.5832,-1.5832,-1.5832,-1.5832,-1.5832,-1.5832,-1.5832,-1.5832,-1.5832,-1.5832,-1.5832,-1.5832,-1.5832,-1.5832,-1.5832,-1.5832,-1.5832,-1.5832,-1.5832,-1.5818,-1.5805,-1.5798,-1.6414,-1.6819,-1.6805,-1.7001,-1.7102,-1.7312,-1.7167,-1.7138,-1.7138,-1.7131,-1.7138,0.0,-1.1352,-1.17,-1.1016,-1.0857,-1.0605,-1.0005,-1.0151,-1.0325,-0.9985,-1.0328,-1.0777,-1.096,-1.1639,-1.2341,-1.2745,-1.3961,-1.5212,-1.6287,-1.7596,-1.8898,-2.0017,-2.0943,-2.1502,-2.159,-2.1915,-2.2097,-2.1998,-2.2008,-2.2097,-2.1998,-2.0979,-2.015,-1.9695,-1.8603,-1.8056,-1.8141,-1.9147,-1.9604,-1.9513,-1.9513,-1.9147,-1.8427,-1.8064,-1.7878,-1.7878,-1.7217,-1.7318,0.0,-1.7225,-1.6943,-1.703,-1.7591,-1.7878,-1.7971,-1.8611,-1.8788,-1.8788,-1.8788,-1.8788,-1.8703,-1.8056,-1.7878,-1.7692,-1.6669,-1.6109,-1.5832,-1.5832,-1.5832,-1.5832,-1.5832,-1.5832,-1.5832,-1.5832,-1.5832,-1.5832,-1.5832,-1.5832,-1.5832,-1.5832,-1.5832,-1.5832,-1.5832,-1.5832,-1.5832,-1.5832,-1.5832,-1.5832,-1.5832,-1.5832,-1.5832,-1.5832,-1.5832,-1.5832,-1.5832,-1.5832,-1.5825,-1.5818,-1.5805,-1.5994,-1.6393,-1.7015,-1.7319,-1.7297,-1.7283,-1.7276,-1.7276,-1.734,-1.7326,-1.7326,-1.7326,-1.7326,0.0,-1.1456,-1.14,-1.1376,-1.132,-1.1146,-1.0862,-1.0852,0.0,-1.0498,-1.0931,-1.1489,-1.1861,-1.2663,-1.3406,-1.3892,-1.4634,-1.556,-1.678,-1.7697,-1.8825,-2.0374,-2.0906,-2.1327,-2.15,-2.1951,-2.2185,-2.2353,-2.2274,-2.2185,-2.2353,-2.1329,-2.0863,-2.1141,-1.9951,-1.9405,-1.9588,-2.0593,-2.0953,-2.0683,-2.0683,-2.0602,-2.0339,-1.9338,-1.8972,-1.8972,-1.888,-1.888,-1.888,-1.888,-1.8788,-1.8796,-1.888,-1.888,-1.888,-1.8972,-1.898,-1.898,-1.898,-1.898,-1.8972,-1.8972,-1.888,-1.8611,-1.7692,-1.6669,-1.592,-1.5825,-1.5832,-1.5832,-1.5832,-1.5832,-1.5832,-1.5832,-1.5832,-1.5832,-1.5832,-1.5832,-1.5832,-1.5832,-1.5832,-1.5832,-1.5832,-1.5832,-1.5832,-1.5832,-1.5832,-1.5832,-1.5832,-1.5832,-1.5825,-1.5825,-1.5825,-1.5825,-1.5825,-1.5825,-1.5818,-1.5798,-1.59,-1.6298,-1.7305,-1.7297,-1.7283,-1.7326,-1.7326,-1.7326,-1.7326,-1.7326,-1.7326,-1.7326,-1.7326,-1.7326,-1.2324,0.0,-1.1944,-1.0788,-1.0404,-1.0196,0.0,-1.0205,-1.0721,-1.0637,0.0,-1.2045,-1.2434,-1.2693,-1.325,-1.4598,-1.523,-1.5973,-1.7183,-1.8757,-2.0114,-2.1117,-2.1764,-2.2114,-2.2202,-2.2473,-2.253,-2.2432,-2.253,-2.2539,-2.2441,-2.2157,-2.2069,-2.2334,-2.2069,-2.1507,-2.0683,-2.1606,-2.2069,-2.198,-2.1802,-2.1436,-2.0773,-2.0413,-2.0141,-2.0141,-1.9588,-1.9604,-1.9886,-1.9322,-1.8964,-1.888,-1.9613,-1.9977,-2.0068,-2.0718,-2.1006,-2.1006,-2.1006,-2.1006,-2.0907,-2.0158,-1.943,-1.8788,-1.8519,-1.7785,-1.677,-1.6015,-1.5832,-1.5832,-1.5832,-1.5832,-1.5832,-1.5832,-1.5832,-1.5832,-1.5832,-1.5832,-1.5832,-1.5832,-1.5832,-1.5832,-1.5832,-1.5832,-1.5832,-1.5832,-1.5832,-1.5832,-1.5832,-1.5818,-1.5805,-1.5805,-1.5772,-1.5752,-1.5752,-1.5785,-1.5805,-1.5798,-1.6501,-1.7001,-1.7305,-1.7268,-1.734,-1.7326,-1.7326,-1.7326,-1.7326,-1.7326,-1.7326,-1.7326,-1.7326,-1.7326,-1.2388,-1.2471,-1.2491,-1.1734,-1.1432,-1.1239,-1.0899,0.0,0.0,0.0,0.0,0.0,-1.2411,-1.2952,-1.3626,-1.4523,-1.5318,-1.6383,-1.7865,-1.9406,-2.0724,-2.1551,-2.1929,-2.2233,-2.2511,-2.2706,-2.2794,-2.2706,-2.2794,-2.2794,-2.2706,-2.2618,-2.2706,-2.2969,-2.2969,-2.2599,-2.1952,-2.2511,-2.2706,-2.2618,-2.2441,-2.2167,-2.1606,-2.1516,-2.1418,-2.1418,-2.0962,-2.097,-2.1257,-2.0791,-2.0512,-2.052,-2.1069,-2.1248,-2.1347,-2.1731,-2.1919,-2.183,-2.1741,-2.1741,-2.1642,-2.1087,-2.0538,-2.0076,-1.9613,-1.9063,-1.8519,-1.7498,-1.685,-1.648,-1.648,-1.6109,-1.5832,-1.5832,-1.5832,-1.5832,-1.5832,-1.5832,-1.5832,-1.5832,-1.5832,-1.5832,-1.5832,-1.5832,-1.5832,-1.5832,-1.5818,-1.5812,-1.5812,-1.5785,-1.5981,-1.6414,-1.6487,-1.648,-1.648,-1.6487,-1.6494,-1.6494,-1.7001,-1.729,-1.7276,-1.734,-1.7326,-1.7326,-1.7326,-1.7326,-1.7326,-1.7326,-1.7326,-1.7326,-1.7326,-1.7326,-1.232,-1.2594,-1.3011,-1.2859,-1.2789,-1.2725,-1.2508,0.0,0.0,0.0,0.0,0.0,0.0,-1.3264,-1.4138,-1.4401,-1.5411,-1.6844,-1.8559,-1.9839,-2.0847,-2.1542,-2.1836,-2.2141,-2.2669,-2.2843,-2.2882,-2.3057,-2.2969,-2.2882,-2.3057,-2.2969,-2.2882,-2.3047,-2.3135,-2.3135,-2.3135,-2.3135,-2.2969,-2.2891,-2.2794,-2.2706,-2.253,-2.2441,-2.2441,-2.2441,-2.253,-2.2441,-2.2441,-2.2441,-2.2441,-2.2441,-2.2441,-2.2441,-2.2353,-2.2185,-2.2185,-2.2097,-2.183,-2.1731,-2.1741,-2.1741,-2.1741,-2.1553,-2.0718,-2.0529,-2.0348,-1.9521,-1.8427,-1.7512,-1.7326,-1.656,-1.5805,-1.5825,-1.5832,-1.5832,-1.5832,-1.5832,-1.5832,-1.5832,-1.5832,-1.5832,-1.5832,-1.5825,-1.5825,-1.5825,-1.5805,-1.5886,-1.6001,-1.6062,-1.6358,-1.7225,-1.7327,-1.7319,-1.7319,-1.7305,-1.729,-1.729,-1.729,-1.7276,-1.7326,-1.7326,-1.7326,-1.7326,-1.7326,-1.7326,-1.7326,-1.7326,-1.7326,-1.7326,-1.7326,-1.7326,-1.3082,-1.3403,-1.3422,-1.2032,-1.1853,-1.1931,-1.1444,0.0,0.0,0.0,0.0,0.0,0.0,-1.3673,-1.4156,-1.5217,-1.6457,-1.7735,-1.9051,-1.986,-2.0543,-2.0943,-2.181,-2.2454,-2.2522,-2.2843,-2.3057,-2.3135,-2.3057,-2.3057,-2.3135,-2.3057,-2.3057,-2.3135,-2.3135,-2.3135,-2.3135,-2.3135,-2.3047,-2.3047,-2.2882,-2.2882,-2.2969,-2.2794,-2.2715,-2.2706,-2.2882,-2.2784,-2.2441,-2.2618,-2.2618,-2.2441,-2.2441,-2.2441,-2.2441,-2.2353,-2.2353,-2.2353,-2.2097,-2.1919,-2.1741,-2.1741,-2.1741,-2.1642,-2.1553,-2.1463,-2.1463,-2.1275,-1.9985,-1.8334,-1.7512,-1.6591,-1.5785,-1.5805,-1.5832,-1.5832,-1.5832,-1.5832,-1.5832,-1.5832,-1.5832,-1.5832,-1.5832,-1.5812,-1.5805,-1.5805,-1.5765,-1.6156,-1.6928,-1.7102,-1.7102,-1.7305,-1.7276,-1.7347,-1.7347,-1.734,-1.734,-1.734,-1.734,-1.7333,-1.7326,-1.7326,-1.7326,-1.7326,-1.7326,-1.7326,-1.7326,-1.7326,-1.7326,-1.7326,-1.7326,-1.7326,-1.2725,-1.319,-1.3501,-1.2716,-1.2957,-1.3288,-1.2963,-1.2947,0.0,0.0,0.0,0.0,0.0,-1.4382,-1.5396,-1.69,-1.8081,-1.8956,-1.9543,-2.0149,-2.0575,-2.1002,-2.15,-2.1914,-2.2148,-2.2549,-2.2803,-2.2803,-2.3008,-2.3135,-2.3135,-2.3135,-2.3135,-2.3135,-2.3135,-2.3135,-2.3135,-2.3135,-2.3135,-2.3135,-2.2969,-2.2969,-2.3135,-2.2969,-2.2969,-2.2969,-2.3057,-2.296,-2.2794,-2.2882,-2.2882,-2.2784,-2.2784,-2.2784,-2.2784,-2.2618,-2.2441,-2.2185,-2.2097,-2.1919,-2.1741,-2.1741,-2.1741,-2.1741,-2.1741,-2.1741,-2.1741,-2.1741,-2.0718,-1.9422,-1.8848,-1.7186,-1.5839,-1.5806,-1.5778,-1.5832,-1.5832,-1.5832,-1.5832,-1.5832,-1.5832,-1.5832,-1.5832,-1.5812,-1.6008,-1.655,-1.6609,-1.6777,-1.7218,-1.729,-1.7268,-1.7268,-1.734,-1.7326,-1.7326,-1.7326,-1.7326,-1.7326,-1.7326,-1.7326,-1.7326,-1.7326,-1.7326,-1.7326,-1.7326,-1.7326,-1.7326,-1.7326,-1.7326,-1.7326,-1.7326,-1.7326,-1.2568,-1.293,-1.3408,-1.3603,0.0,-1.4376,-1.442,-1.4244,-1.4038,0.0,0.0,0.0,-1.4359,-1.5417,-1.6838,-1.8354,-1.936,-1.9951,-2.0049,-2.0352,-2.0693,-2.1035,-2.1172,-2.1367,-2.1699,-2.2119,-2.2363,-2.2363,-2.2754,-2.2988,-2.2988,-2.3086,-2.3135,-2.3135,-2.3135,-2.3135,-2.3135,-2.3135,-2.3135,-2.3135,-2.3135,-2.3135,-2.3135,-2.3135,-2.3135,-2.3135,-2.3135,-2.3135,-2.3135,-2.3135,-2.3135,-2.3135,-2.3135,-2.3135,-2.3047,-2.2969,-2.2618,-2.2274,-2.2185,-2.2008,-2.183,-2.1741,-2.1741,-2.1741,-2.1741,-2.1741,-2.1741,-2.1741,-2.1177,-2.052,-2.0017,-1.8593,-1.6908,-1.6019,-1.5806,-1.5792,-1.5825,-1.5832,-1.5832,-1.5832,-1.5832,-1.5832,-1.5825,-1.5798,-1.6103,-1.7174,-1.7327,-1.7283,-1.7283,-1.7254,-1.7326,-1.7326,-1.7326,-1.7326,-1.7326,-1.7326,-1.7326,-1.7326,-1.7326,-1.7326,-1.7326,-1.7326,-1.7326,-1.7326,-1.7326,-1.7326,-1.7326,-1.7326,-1.7326,-1.7326,-1.7326,-1.7326,-1.3203,-1.3174,-1.3115,-1.3896,-1.3848,-1.3756,-1.4434,-1.4334,-1.4301,-1.4974,-1.5206,-1.5449,-1.585,-1.6992,-1.8174,-1.9092,-1.9619,-2.0059,-2.0459,-2.0547,-2.0576,-2.0605,-2.0986,-2.125,-2.1279,-2.168,-2.1934,-2.1934,-2.2324,-2.2559,-2.2559,-2.293,-2.3135,-2.3135,-2.3135,-2.3135,-2.3135,-2.3135,-2.3135,-2.3135,-2.3135,-2.3135,-2.3135,-2.3135,-2.3135,-2.3135,-2.3135,-2.3135,-2.3135,-2.3135,-2.3135,-2.3135,-2.3135,-2.3135,-2.3135,-2.3047,-2.2969,-2.2715,-2.2441,-2.2353,-2.2264,-2.182,-2.183,-2.2008,-2.1741,-2.1741,-2.1741,-2.1741,-2.1642,-2.1365,-2.052,-2.0724,-2.0386,-1.67,-1.5832,-1.5779,-1.5805,-1.5832,-1.5832,-1.5832,-1.5832,-1.5825,-1.5805,-1.5765,-1.6149,-1.7102,-1.7268,-1.7333,-1.7333,-1.7333,-1.7326,-1.7326,-1.7326,-1.7326,-1.7326,-1.7326,-1.7326,-1.7326,-1.7326,-1.7326,-1.7326,-1.7326,-1.7326,-1.7326,-1.7326,-1.7326,-1.7326,-1.7326,-1.7326,-1.7326,-1.7326,-1.7326,-1.2579,-1.2793,-1.3175,-1.4376,-1.4268,0.0,0.0,-1.5254,-1.5508,-1.6043,-1.6169,-1.6367,-1.6797,-1.75,-1.8291,-1.915,-1.9639,-2.0068,-2.0508,-2.0566,-2.0566,-2.0566,-2.0713,-2.082,-2.082,-2.1221,-2.1484,-2.1484,-2.2119,-2.251,-2.251,-2.291,-2.3135,-2.3135,-2.3135,-2.3135,-2.3135,-2.3135,-2.3135,-2.3135,-2.3135,-2.3135,-2.3135,-2.3135,-2.3135,-2.3135,-2.3135,-2.3135,-2.3135,-2.3135,-2.3135,-2.3135,-2.3135,-2.3135,-2.3135,-2.3135,-2.2969,-2.2803,-2.2706,-2.253,-2.2353,-2.2176,-2.2176,-2.2264,-2.2176,-2.2087,-2.1919,-2.1919,-2.183,-2.1642,-2.1275,-2.1401,-2.1084,-1.8792,-1.7602,-1.7016,-1.6763,-1.6204,-1.5825,-1.5812,-1.5812,-1.5798,-1.5758,-1.6358,-1.6878,-1.7203,-1.7268,-1.7326,-1.7326,-1.7326,-1.7326,-1.7326,-1.7326,-1.7326,-1.7326,-1.7326,-1.7326,-1.7326,-1.7326,-1.7326,-1.7326,-1.7326,-1.7326,-1.7326,-1.7326,-1.7326,-1.7326,-1.7326,-1.7326,-1.7326,-1.7326,-1.7326,-1.2411,-1.2535,-1.2968,-1.4226,0.0,0.0,-1.5391,-1.585,-1.6269,-1.6982,-1.7129,-1.7227,-1.7529,-1.793,-1.8437,-1.917,-1.9639,-2.0068,-2.0508,-2.0566,-2.0566,-2.0566,-2.0566,-2.0566,-2.0566,-2.084,-2.1025,-2.1025,-2.1699,-2.2109,-2.2109,-2.251,-2.2803,-2.2939,-2.2939,-2.2998,-2.3135,-2.3135,-2.3135,-2.3135,-2.3135,-2.3135,-2.3135,-2.3135,-2.3135,-2.3135,-2.3135,-2.3135,-2.3135,-2.3135,-2.3135,-2.3135,-2.3135,-2.3135,-2.3135,-2.3135,-2.2969,-2.2882,-2.2803,-2.2706,-2.2618,-2.2441,-2.2441,-2.253,-2.2441,-2.2264,-2.2185,-2.2185,-2.2087,-2.1909,-2.1909,-2.1823,-2.1401,-2.0314,-1.9155,-1.8102,-1.7606,-1.6763,-1.6008,-1.5988,-1.5994,-1.6183,-1.6257,-1.6878,-1.7297,-1.7283,-1.7254,-1.7326,-1.7326,-1.7326,-1.7326,-1.7326,-1.7326,-1.7326,-1.7326,-1.7326,-1.7326,-1.7326,-1.7326,-1.7326,-1.7326,-1.7326,-1.7326,-1.7326,-1.7326,-1.7326,-1.7326,-1.7326,-1.7326,-1.7326,-1.7326,-1.7326,-1.2857,-1.2503,-1.2385,-1.3301,0.0,0.0,-1.5831,-1.6135,-1.6445,-1.7744,-1.8008,-1.8008,-1.8008,-1.835,-1.8779,-1.9219,-1.9639,-2.0068,-2.0508,-2.0566,-2.0566,-2.0566,-2.0566,-2.0566,-2.0566,-2.0566,-2.0566,-2.0566,-2.0986,-2.123,-2.123,-2.165,-2.207,-2.249,-2.251,-2.2715,-2.3125,-2.3135,-2.3135,-2.3135,-2.3135,-2.3135,-2.3135,-2.3135,-2.3135,-2.3135,-2.3135,-2.3135,-2.3135,-2.3135,-2.3135,-2.3135,-2.3135,-2.3135,-2.3135,-2.3135,-2.3135,-2.3057,-2.2882,-2.2969,-2.3047,-2.253,-2.2618,-2.2706,-2.253,-2.2441,-2.2441,-2.2441,-2.2441,-2.2441,-2.2441,-2.2087,-2.1544,-2.0782,-1.9869,-1.8964,-1.8218,-1.7311,-1.6574,-1.6365,-1.6581,-1.6899,-1.7203,-1.7305,-1.7283,-1.7333,-1.7326,-1.7326,-1.7326,-1.7326,-1.7326,-1.7326,-1.7326,-1.7326,-1.7326,-1.7326,-1.7326,-1.7326,-1.7326,-1.7326,-1.7326,-1.7326,-1.7326,-1.7326,-1.7326,-1.7326,-1.7326,-1.7326,-1.7326,-1.7326,-1.7326,-1.7326,-1.2765,-1.2503,0.0,-1.4155,0.0,0.0,0.0,-1.6835,0.0,-1.7812,-1.8008,-1.8008,-1.8008,-1.835,-1.8779,-1.9219,-1.9639,-2.0068,-2.0508,-2.0566,-2.0566,-2.0566,-2.0566,-2.0566,-2.0566,-2.0566,-2.0566,-2.0566,-2.0986,-2.123,-2.123,-2.165,-2.1943,-2.207,-2.2353,-2.2578,-2.2695,-2.2988,-2.3135,-2.3135,-2.3135,-2.3135,-2.3135,-2.3135,-2.3135,-2.3135,-2.3135,-2.3135,-2.3135,-2.3135,-2.3135,-2.3135,-2.3135,-2.3135,-2.3135,-2.3135,-2.3135,-2.3057,-2.3057,-2.3047,-2.3047,-2.296,-2.2969,-2.2969,-2.2882,-2.2794,-2.2706,-2.2706,-2.253,-2.2441,-2.2441,-2.2264,-2.2176,-2.1891,-2.115,-2.0232,-1.9247,-1.8326,-1.7397,-1.6749,-1.677,-1.6871,-1.7254,-1.7254,-1.7347,-1.7333,-1.7326,-1.7326,-1.7326,-1.7326,-1.7326,-1.7326,-1.7326,-1.7326,-1.7326,-1.7326,-1.7326,-1.7326,-1.7326,-1.7326,-1.7326,-1.7326,-1.7326,-1.7326,-1.7326,-1.7326,-1.7326,-1.7326,-1.7326,-1.7326,-1.7326,-1.7326,-1.3345,-1.338,0.0,-1.5014,-1.5612,-1.6171,-1.7328,-1.743,-1.7393,-1.79,-1.8202,-1.8337,-1.8076,-1.8682,-1.9192,-1.9262,-1.9713,-2.0163,-2.0556,-2.0566,-2.0566,-2.0566,-2.0566,-2.0566,-2.0566,-2.0566,-2.0566,-2.0566,-2.081,-2.0967,-2.0967,-2.1221,-2.1445,-2.1621,-2.1875,-2.209,-2.2266,-2.251,-2.2646,-2.2646,-2.2812,-2.2891,-2.2891,-2.3066,-2.3135,-2.3135,-2.3135,-2.3135,-2.3135,-2.3135,-2.3135,-2.3135,-2.3135,-2.3135,-2.3135,-2.3135,-2.3135,-2.3135,-2.3135,-2.3135,-2.3135,-2.3135,-2.3135,-2.3135,-2.3135,-2.3057,-2.2882,-2.2882,-2.2794,-2.2696,-2.2696,-2.2696,-2.2696,-2.2618,-2.1793,-2.0872,-1.9968,-1.8964,-1.8048,-1.7138,-1.6951,-1.7044,-1.7232,-1.7326,-1.7326,-1.7326,-1.7326,-1.7326,-1.7326,-1.7326,-1.7326,-1.7326,-1.7326,-1.7326,-1.7326,-1.7326,-1.7326,-1.7326,-1.7326,-1.7326,-1.7326,-1.7326,-1.7326,-1.7326,-1.7326,-1.7326,-1.7326,-1.7326,-1.7326,-1.7326,-1.7326,-1.7326,-1.4296,-1.4675,-1.5175,-1.5651,-1.6304,-1.6949,-1.7593,-1.7991,-1.8144,-1.8008,-1.8596,-1.8911,-1.8202,-1.9218,-1.998,-1.9451,-1.9919,-2.0388,-2.0544,-2.0537,-2.0566,-2.0566,-2.0566,-2.0566,-2.0566,-2.0566,-2.0566,-2.0566,-2.0566,-2.0566,-2.0566,-2.0566,-2.0752,-2.1162,-2.1211,-2.1426,-2.1816,-2.1865,-2.1885,-2.1894,-2.2275,-2.2471,-2.2529,-2.2949,-2.3135,-2.3135,-2.3135,-2.3135,-2.3135,-2.3135,-2.3135,-2.3135,-2.3135,-2.3135,-2.3135,-2.3135,-2.3135,-2.3135,-2.3135,-2.3135,-2.3135,-2.3135,-2.3135,-2.3135,-2.3135,-2.3135,-2.3135,-2.3135,-2.3135,-2.3135,-2.3135,-2.3135,-2.3047,-2.2882,-2.2069,-2.115,-2.0322,-1.9422,-1.8519,-1.7512,-1.7326,-1.7326,-1.7326,-1.7326,-1.7326,-1.7326,-1.7326,-1.7326,-1.7326,-1.7326,-1.7326,-1.7326,-1.7326,-1.7326,-1.7326,-1.7326,-1.7326,-1.7326,-1.7326,-1.7326,-1.7326,-1.7326,-1.7326,-1.7326,-1.7326,-1.7326,-1.7326,-1.7326,-1.7326,-1.7326,-1.7326,-1.7326,-1.4204,-1.4485,0.0,-1.5625,-1.7016,-1.8392,-1.8833,-1.9297,-1.932,-1.8212,-1.8988,-1.9639,-1.8911,-1.9737,-2.0382,-1.9712,-2.0329,-2.0642,-2.0105,-2.0352,-2.0566,-2.0566,-2.0566,-2.0566,-2.0566,-2.0566,-2.0566,-2.0566,-2.0566,-2.0566,-2.0566,-2.0566,-2.0605,-2.0703,-2.1055,-2.1279,-2.1377,-2.1719,-2.1885,-2.1885,-2.1982,-2.2197,-2.2529,-2.2949,-2.3135,-2.3135,-2.3135,-2.3135,-2.3135,-2.3135,-2.3135,-2.3135,-2.3135,-2.3135,-2.3135,-2.3135,-2.3135,-2.3135,-2.3135,-2.3135,-2.3135,-2.3135,-2.3135,-2.3135,-2.3135,-2.3135,-2.3135,-2.3135,-2.3135,-2.3135,-2.3135,-2.3135,-2.3057,-2.3057,-2.2325,-2.1329,-2.0413,-1.9422,-1.8519,-1.7512,-1.7326,-1.7326,-1.7326,-1.7326,-1.7326,-1.7326,-1.7326,-1.7326,-1.7326,-1.7326,-1.7326,-1.7326,-1.7326,-1.7326,-1.7326,-1.7326,-1.7326,-1.7326,-1.7326,-1.7326,-1.7326,-1.7326,-1.7326,-1.7326,-1.7326,-1.7326,-1.7326,-1.7326,-1.7326,-1.7326,-1.7326,-1.7326,-1.4451,0.0,0.0,-1.7014,0.0,-1.9285,-1.9365,-2.0104,-2.0407,-1.9267,-1.9835,-2.0355,-1.9639,-2.0554,-2.1138,-2.029,-2.054,-2.0791,-2.0441,-2.0335,-2.0332,-2.0537,-2.0566,-2.0566,-2.0566,-2.0566,-2.0566,-2.0566,-2.0566,-2.0566,-2.0566,-2.0566,-2.0566,-2.0566,-2.0791,-2.0918,-2.0918,-2.1143,-2.125,-2.125,-2.1475,-2.1904,-2.2529,-2.2949,-2.3135,-2.3135,-2.3135,-2.3135,-2.3135,-2.3135,-2.3135,-2.3135,-2.3135,-2.3135,-2.3135,-2.3135,-2.3135,-2.3135,-2.3135,-2.3135,-2.3105,-2.291,-2.2832,-2.2803,-2.2598,-2.2539,-2.2539,-2.2539,-2.2685,-2.2832,-2.2832,-2.2988,-2.3135,-2.3135,-2.2687,-2.1961,-2.0503,-1.9778,-1.9055,-1.7606,-1.7326,-1.7326,-1.7326,-1.7326,-1.7326,-1.7326,-1.7326,-1.7326,-1.7326,-1.7326,-1.7326,-1.7326,-1.7326,-1.7326,-1.7326,-1.7326,-1.7326,-1.7326,-1.7326,-1.7326,-1.7326,-1.7326,-1.7326,-1.7326,-1.7326,-1.7326,-1.7326,-1.7326,-1.7326,-1.7326,-1.7326,-1.7326,-1.467,0.0,-1.6943,-1.8482,-1.9324,-1.9801,-1.9692,-2.0582,-2.1234,-2.0587,-2.088,-2.1071,-2.042,-2.1336,-2.1867,-2.0941,-2.074,-2.0737,-2.0741,-2.0192,-1.9941,-2.0303,-2.041,-2.0449,-2.0449,-2.0518,-2.0566,-2.0566,-2.0566,-2.0566,-2.0566,-2.0566,-2.0566,-2.0566,-2.0566,-2.0566,-2.0566,-2.0566,-2.0566,-2.0566,-2.1025,-2.1611,-2.2305,-2.2725,-2.2998,-2.3135,-2.3135,-2.3135,-2.3135,-2.3135,-2.3135,-2.3135,-2.3135,-2.3135,-2.3135,-2.3135,-2.3135,-2.3135,-2.3135,-2.3096,-2.2969,-2.2627,-2.2461,-2.2344,-2.1992,-2.1885,-2.1885,-2.1885,-2.2139,-2.2422,-2.249,-2.2773,-2.3047,-2.3125,-2.3135,-2.2589,-2.0764,-2.0206,-1.9472,-1.7654,-1.7311,-1.7326,-1.7326,-1.7326,-1.7326,-1.7326,-1.7326,-1.7326,-1.7326,-1.7326,-1.7326,-1.7326,-1.7326,-1.7326,-1.7326,-1.7326,-1.7326,-1.7326,-1.7326,-1.7326,-1.7326,-1.7326,-1.7326,-1.7326,-1.7326,-1.7326,-1.7326,-1.7326,-1.7326,-1.7326,-1.7326,-1.7326,-1.4361,0.0,-1.6895,0.0,-1.9047,-1.9925,-2.0363,-2.096,-2.1488,-2.1818,-2.1999,-2.1862,-2.1071,-2.1663,-2.1949,-2.1152,-2.0864,-2.0511,-1.9962,-1.9553,-1.9394,-1.9453,-1.9775,-2.0,-2.0,-2.0342,-2.0566,-2.0566,-2.0566,-2.0566,-2.0566,-2.0566,-2.0566,-2.0566,-2.0566,-2.0566,-2.0566,-2.0566,-2.0566,-2.0566,-2.1025,-2.1289,-2.1426,-2.1855,-2.2451,-2.3135,-2.3135,-2.3135,-2.3135,-2.3135,-2.3135,-2.3135,-2.3135,-2.3135,-2.3135,-2.3135,-2.3135,-2.3135,-2.3135,-2.29,-2.2588,-2.2529,-2.2266,-2.1963,-2.1904,-2.1885,-2.1885,-2.1885,-2.1924,-2.2051,-2.2412,-2.2549,-2.2685,-2.3057,-2.3135,-2.2765,-2.1346,-2.021,-1.8985,-1.7582,-1.7323,-1.7326,-1.7326,-1.7326,-1.7326,-1.7326,-1.7326,-1.7326,-1.7326,-1.7326,-1.7326,-1.7326,-1.7326,-1.7326,-1.7326,-1.7326,-1.7326,-1.7326,-1.7326,-1.7326,-1.7326,-1.7326,-1.7326,-1.7326,-1.7326,-1.7326,-1.7326,-1.7326,-1.7326,-1.7326,-1.7326,-1.7326,-1.4454,-1.5428,-1.6464,0.0,-1.8554,-1.9119,-1.9961,-2.0322,-2.073,-2.1584,-2.1753,-2.1715,-2.1741,-2.1987,-2.2061,-2.1788,-2.1255,-2.0764,-2.029,-1.9833,-1.9504,-1.933,-1.9453,-1.9658,-1.9893,-2.0088,-2.0303,-2.0547,-2.0566,-2.0566,-2.0566,-2.0566,-2.0566,-2.0566,-2.0566,-2.0566,-2.0566,-2.0566,-2.0566,-2.0566,-2.0762,-2.0986,-2.124,-2.1435,-2.1855,-2.2441,-2.2441,-2.2441,-2.2441,-2.2441,-2.2441,-2.2441,-2.2441,-2.2441,-2.2441,-2.2441,-2.2441,-2.2441,-2.2441,-2.2314,-2.2119,-2.1875,-2.167,-2.1475,-2.1221,-2.1143,-2.1143,-2.1143,-2.1328,-2.1621,-2.2051,-2.2334,-2.2617,-2.3037,-2.3135,-2.295,-2.2375,-2.1239,-1.9718,-1.7735,-1.7309,-1.7326,-1.7326,-1.7326,-1.7326,-1.7326,-1.7326,-1.7326,-1.7326,-1.7326,-1.7326,-1.7326,-1.7326,-1.7326,-1.7326,-1.7326,-1.7326,-1.7326,-1.7326,-1.7326,-1.7326,-1.7326,-1.7326,-1.7326,-1.7326,-1.7326,-1.7326,-1.7326,-1.7326,-1.7326,-1.7326,-1.7326,0.0,0.0,-1.5945,-1.7267,-1.7905,-1.8509,-1.9372,-1.9684,-2.0057,-2.1007,-2.1199,-2.132,-2.1716,-2.2017,-2.2197,-2.2197,-2.16,-2.1069,-2.0709,-2.0016,-1.9479,-1.9059,-1.9053,-1.9248,-1.9561,-1.9785,-2.0049,-2.0381,-2.0498,-2.0566,-2.0566,-2.0566,-2.0566,-2.0566,-2.0566,-2.0566,-2.0566,-2.0566,-2.0566,-2.0566,-2.0566,-2.0742,-2.1064,-2.1064,-2.124,-2.1562,-2.1787,-2.1885,-2.1885,-2.1885,-2.1885,-2.1885,-2.1885,-2.1885,-2.1885,-2.1885,-2.1885,-2.1885,-2.1885,-2.1816,-2.167,-2.1338,-2.1152,-2.0996,-2.0664,-2.0566,-2.0566,-2.0566,-2.081,-2.1172,-2.1611,-2.1963,-2.2334,-2.2977,-2.3104,-2.3124,-2.3125,-2.2325,-2.1123,-1.9125,-1.8364,-1.7863,-1.7368,-1.7267,-1.7282,-1.7318,-1.7326,-1.7326,-1.7326,-1.7326,-1.7326,-1.7326,-1.7326,-1.7326,-1.7326,-1.7326,-1.7326,-1.7326,-1.7326,-1.7326,-1.7326,-1.7326,-1.7326,-1.7326,-1.7326,-1.7326,-1.7326,-1.7326,-1.7326,-1.7326,-1.7326,-1.7326,-1.4036,-1.4752,0.0,-1.5812,-1.7147,-1.8527,-1.8967,-1.942,-1.9949,-2.0538,-2.0634,-2.0634,-2.0694,-2.1512,-2.2197,-2.2197,-2.1726,-2.1146,-2.0529,-1.9802,-1.9096,-1.8397,-1.8487,-1.8601,-1.8701,-1.9443,-1.9922,-1.9941,-2.0332,-2.0566,-2.0566,-2.0566,-2.0566,-2.0566,-2.0566,-2.0566,-2.0566,-2.0566,-2.0566,-2.0566,-2.0566,-2.0576,-2.0596,-2.0596,-2.0605,-2.0684,-2.1523,-2.1885,-2.1885,-2.1885,-2.1885,-2.1885,-2.1885,-2.1885,-2.1885,-2.1885,-2.1885,-2.1885,-2.1885,-2.1611,-2.126,-2.124,-2.0947,-2.0596,-2.0576,-2.0566,-2.0566,-2.0566,-2.0586,-2.0713,-2.1271,-2.1418,-2.1735,-2.2819,-2.3113,-2.3117,-2.3076,-2.3026,-2.2964,-2.2777,-2.1347,-1.9455,-1.7582,-1.7283,-1.7335,-1.7304,-1.7326,-1.7326,-1.7326,-1.7326,-1.7326,-1.7326,-1.7326,-1.7326,-1.7326,-1.7326,-1.7326,-1.7326,-1.7326,-1.7326,-1.7326,-1.7326,-1.7326,-1.7326,-1.7326,-1.7326,-1.7326,-1.7326,-1.7326,-1.7326,-1.7326,-1.7326,-1.3568,0.0,0.0,-1.5837,-1.6973,-1.8006,-1.8488,-1.8955,-1.9486,-2.0096,-2.0137,-2.0222,-2.0653,-2.1259,-2.168,-2.1789,-2.1945,-2.1839,-2.125,-2.059,-1.9824,-1.9044,-1.8987,-1.9134,-1.9292,-1.9947,-2.0317,-2.0194,-2.0293,-2.0246,-1.9821,-1.9746,-1.9746,-1.9746,-2.001,-2.0283,-2.0566,-2.0566,-2.0566,-2.0566,-2.0566,-2.0566,-2.0566,-2.0566,-2.0566,-2.0586,-2.0898,-2.1035,-2.1035,-2.1035,-2.1035,-2.1035,-2.1035,-2.1035,-2.1035,-2.1035,-2.1035,-2.1035,-2.1035,-2.0937,-2.0801,-2.0801,-2.0693,-2.0566,-2.0566,-2.0566,-2.0566,-2.0566,-2.0566,-2.0654,-2.0816,-2.0922,-2.1244,-2.276,-2.308,-2.3085,-2.3115,-2.3124,-2.2659,-2.0988,-2.0753,-2.0468,-1.9374,-1.811,-1.7328,-1.7304,-1.7326,-1.7326,-1.7326,-1.7326,-1.7326,-1.7326,-1.7326,-1.7326,-1.7326,-1.7326,-1.7326,-1.7326,-1.7326,-1.7326,-1.7326,-1.7326,-1.7326,-1.7326,-1.7326,-1.7326,-1.7326,-1.7326,-1.7326,-1.7326,-1.7326,-1.7326,-1.335,-1.416,-1.4826,-1.5696,-1.6708,-1.7555,-1.78,-1.837,-1.8988,-1.9405,-1.9558,-1.98,-2.0164,-2.0673,-2.1158,-2.1498,-2.1982,-2.214,-2.1791,-2.1101,-2.0398,-1.9562,-1.9177,-1.9101,-1.9536,-2.0043,-2.0255,-2.0081,-2.0448,-2.04,-1.9703,-1.9847,-1.9919,-1.963,-1.9836,-2.0059,-2.0342,-2.0498,-2.0566,-2.0566,-2.0566,-2.0566,-2.0566,-2.0566,-2.0566,-2.0566,-2.0566,-2.0566,-2.0566,-2.0566,-2.0566,-2.0566,-2.0566,-2.0566,-2.0566,-2.0566,-2.0566,-2.0566,-2.0566,-2.0566,-2.0566,-2.0566,-2.0566,-2.0566,-2.0566,-2.0566,-2.0566,-2.0566,-2.0566,-2.0615,-2.0613,-2.1021,-2.1712,-2.2848,-2.309,-2.3135,-2.3135,-2.3066,-2.2644,-2.0882,-2.1302,-2.1599,-2.0735,-1.9277,-1.8087,-1.7412,-1.7326,-1.7326,-1.7326,-1.7326,-1.7326,-1.7326,-1.7326,-1.7326,-1.7326,-1.7326,-1.7326,-1.7326,-1.7326,-1.7326,-1.7326,-1.7326,-1.7326,-1.7326,-1.7326,-1.7326,-1.7326,-1.7326,-1.7326,-1.7326,-1.7326,-1.7326,0.0,0.0,0.0,-1.527,-1.6287,-1.709,-1.6895,-1.7714,-1.8534,-1.8434,-1.8912,-1.9356,-1.9223,-1.9756,-2.0496,-2.1399,-2.1842,-2.2085,-2.1918,-2.1279,-2.0579,-1.9966,-1.8988,-1.8664,-1.9299,-1.9651,-1.9775,-1.9717,-2.0738,-2.1064,-2.0287,-2.0994,-2.1064,-2.0298,-2.0092,-1.9958,-1.9912,-2.0409,-2.0624,-2.0566,-2.0566,-2.0566,-2.0566,-2.0566,-2.0566,-2.0566,-2.0566,-2.0566,-2.0566,-2.0566,-2.0566,-2.0566,-2.0566,-2.0566,-2.0566,-2.0566,-2.0566,-2.0566,-2.0566,-2.0566,-2.0566,-2.0566,-2.0566,-2.0566,-2.0566,-2.0566,-2.0566,-2.0566,-2.0566,-2.0566,-2.0566,-2.184,-2.299,-2.3083,-2.3073,-2.3125,-2.3125,-2.3125,-2.3047,-2.3047,-2.3036,-2.2598,-2.1347,-2.0554,-1.9527,-1.7628,-1.7326,-1.7326,-1.7326,-1.7326,-1.7326,-1.7326,-1.7326,-1.7326,-1.7326,-1.7326,-1.7326,-1.7326,-1.7326,-1.7326,-1.7326,-1.7326,-1.7326,-1.7326,-1.7326,-1.7326,-1.7326,-1.7326,-1.7326,-1.7326,-1.7326,-1.7326,-1.3791,0.0,0.0,0.0,0.0,0.0,-1.7016,-1.7587,-1.8142,-1.8623,-1.877,-1.8914,-1.9307,-1.9596,-1.997,-2.0508,-2.1465,-2.2138,-2.2157,-2.1934,-2.1667,-2.1365,-2.1049,-2.0858,-2.0794,-2.1314,-2.1202,-2.0095,-2.0291,-2.0157,-1.9417,-2.009,-2.0508,-2.0582,-2.0504,-2.0552,-2.0714,-2.0846,-2.0777,-2.0566,-2.0566,-2.0566,-2.0566,-2.0566,-2.0566,-2.0566,-2.0566,-2.0566,-2.0566,-2.0566,-2.0566,-2.0566,-2.0566,-2.0566,-2.0566,-2.0566,-2.0566,-2.0566,-2.0566,-2.0566,-2.0566,-2.0566,-2.0566,-2.0566,-2.0566,-2.0566,-2.0566,-2.0566,-2.0566,-2.0566,-2.0566,-2.0977,-2.1416,-2.1757,-2.2183,-2.2571,-2.2676,-2.292,-2.2687,-2.132,-2.1553,-2.1311,-1.8835,-1.8851,-1.8751,-1.752,-1.7326,-1.7326,-1.7326,-1.7326,-1.7326,-1.7326,-1.7326,-1.7326,-1.7326,-1.7326,-1.7326,-1.7326,-1.7326,-1.7326,-1.7326,-1.7326,-1.7326,-1.7326,-1.7326,-1.7326,-1.7326,-1.7326,-1.7326,-1.7326,-1.7326,-1.7326,-1.4537,-1.4938,-1.5306,-1.5492,0.0,0.0,-1.6722,-1.7095,-1.7483,-1.83,-1.8474,-1.8672,-1.9325,-1.9379,-1.9467,-1.9801,-2.0779,-2.1681,-2.2246,-2.2152,-2.2051,-2.199,-2.1678,-2.1491,-2.1577,-2.1839,-2.1577,-2.0677,-2.088,-2.0816,-2.0355,-2.042,-2.0607,-2.083,-2.0764,-2.0589,-2.0442,-2.0638,-2.0589,-2.0293,-2.0293,-2.0391,-2.0566,-2.0566,-2.0566,-2.0566,-2.0566,-2.0566,-2.0566,-2.0566,-2.0566,-2.0566,-2.0566,-2.0566,-2.0566,-2.0566,-2.0566,-2.0566,-2.0566,-2.0566,-2.0566,-2.0566,-2.0566,-2.0566,-2.0566,-2.0566,-2.0566,-2.0566,-2.0566,-2.0566,-2.0566,-2.079,-2.1021,-2.125,-2.1885,-2.2405,-2.251,-2.2842,-2.2775,-2.1596,-2.1007,-2.0271,-1.8772,-1.8326,-1.7963,-1.7419,-1.7326,-1.7326,-1.7326,-1.7326,-1.7326,-1.7326,-1.7326,-1.7326,-1.7326,-1.7326,-1.7326,-1.7326,-1.7326,-1.7326,-1.7326,-1.7326,-1.7326,-1.7326,-1.7326,-1.7326,-1.7326,-1.7326,-1.7326,-1.7326,-1.7326,-1.7326,-1.5442,-1.5693,-1.5806,-1.6308,-1.6107,0.0,-1.6248,-1.6491,-1.6829,-1.765,-1.7959,-1.8382,-1.9244,-1.9208,-1.9058,-1.9226,-2.0067,-2.1029,-2.2071,-2.2126,-2.2164,-2.2224,-2.153,-2.1342,-2.1939,-2.1765,-2.1514,-2.1451,-2.1862,-2.2123,-2.2061,-2.1526,-2.1198,-2.1198,-2.0962,-2.0549,-1.9933,-2.0261,-2.0267,-1.9909,-1.9909,-2.0115,-2.043,-2.0469,-2.0498,-2.0498,-2.0547,-2.0566,-2.0566,-2.0566,-2.0566,-2.0566,-2.0566,-2.0566,-2.0566,-2.0566,-2.0566,-2.0566,-2.0566,-2.0566,-2.0566,-2.0566,-2.0566,-2.0566,-2.0566,-2.0566,-2.0566,-2.0566,-2.0566,-2.0566,-2.0566,-2.0958,-2.1281,-2.1172,-2.1777,-2.2373,-2.2373,-2.2734,-2.3066,-2.3066,-2.1114,-1.9661,-2.0124,-1.8696,-1.7512,-1.7512,-1.7326,-1.7326,-1.7326,-1.7326,-1.7326,-1.7326,-1.7326,-1.7326,-1.7326,-1.7326,-1.7326,-1.7326,-1.7326,-1.7326,-1.7326,-1.7326,-1.7326,-1.7326,-1.7326,-1.7326,-1.7326,-1.7326,-1.7326,-1.7326,-1.7326,-1.7326,-1.5756,-1.5693,-1.5718,-1.5831,-1.6107,0.0,-1.5932,-1.6559,-1.7137,-1.6842,-1.7212,-1.7693,-1.8236,-1.8684,-1.8858,-1.8362,-1.9569,-2.074,-2.14,-2.1948,-2.2446,-2.2822,-2.275,-2.2689,-2.2714,-2.2653,-2.2334,-2.1616,-2.1577,-2.1463,-2.1325,-2.1726,-2.1999,-2.1999,-2.1957,-2.1748,-2.1419,-2.1453,-2.104,-2.0247,-2.0247,-2.0008,-1.9551,-1.9883,-2.0039,-2.0059,-2.041,-2.0566,-2.0566,-2.0566,-2.0566,-2.0566,-2.0566,-2.0566,-2.0566,-2.0566,-2.0566,-2.0566,-2.0566,-2.0566,-2.0566,-2.0566,-2.0566,-2.0566,-2.0566,-2.0566,-2.0566,-2.0566,-2.0566,-2.0566,-2.0566,-2.0713,-2.0781,-2.0693,-2.1103,-2.1484,-2.1484,-2.209,-2.2637,-2.2637,-2.1905,-2.1033,-2.0322,-1.9239,-1.8519,-1.8519,-1.7785,-1.7326,-1.7326,-1.7326,-1.7326,-1.7326,-1.7326,-1.7326,-1.7326,-1.7326,-1.7326,-1.7326,-1.7326,-1.7326,-1.7326,-1.7326,-1.7326,-1.7326,-1.7326,-1.7326,-1.7326,-1.7326,-1.7326,-1.7326,-1.7326,-1.7326,-1.633,-1.6107,-1.617,-1.6459,-1.6321,0.0,0.0,-1.6534,-1.6697,-1.725,-1.7137,-1.7287,-1.8296,-1.8332,-1.8157,-1.8037,-1.8971,-1.9945,-2.0374,-2.1169,-2.1848,-2.2168,-2.2396,-2.2499,-2.2499,-2.2566,-2.2334,-2.1565,-2.1451,-2.1198,-2.0741,-2.1663,-2.1862,-2.1146,-2.1463,-2.1452,-2.0983,-2.0917,-2.083,-2.0477,-2.0128,-1.991,-1.9775,-1.9649,-1.9717,-1.9922,-2.0146,-2.0361,-2.0566,-2.0566,-2.0566,-2.0566,-2.0566,-2.0566,-2.0566,-2.0566,-2.0566,-2.0566,-2.0566,-2.0566,-2.0566,-2.0566,-2.0566,-2.0566,-2.0566,-2.0566,-2.0566,-2.0566,-2.0566,-2.0566,-2.0566,-2.0566,-2.0566,-2.0566,-2.079,-2.0922,-2.0922,-2.1709,-2.251,-2.251,-2.2409,-2.205,-2.115,-2.015,-1.9513,-1.9513,-1.9055,-1.878,-1.878,-1.8334,-1.8241,-1.8696,-1.787,-1.7512,-1.7971,-1.8056,-1.7878,-1.7326,-1.8234,-1.8326,-1.7326,-1.7785,-1.7785,-1.7333,-1.7326,-1.7326,-1.7326,-1.7326,-1.7326,-1.7326,-1.7326,-1.7326,-1.708,-1.6848,-1.6923,-1.7287,-1.6773,-1.6333,0.0,0.0,0.0,-1.7488,-1.7074,-1.6892,-1.8292,-1.7903,-1.7488,-1.7663,-1.8409,-1.9033,-1.9256,-2.0155,-2.0897,-2.1163,-2.1601,-2.1851,-2.1803,-2.2038,-2.2067,-2.1702,-2.1557,-2.1346,-2.0805,-2.1726,-2.1726,-2.056,-2.1008,-2.1071,-2.0495,-2.0495,-2.062,-2.0797,-2.0069,-1.9858,-2.0,-1.9471,-1.9346,-1.9678,-1.9844,-2.0117,-2.0449,-2.0527,-2.0566,-2.0566,-2.0566,-2.0566,-2.0566,-2.0566,-2.0566,-2.0566,-2.0566,-2.0566,-2.0566,-2.0566,-2.0566,-2.0566,-2.0566,-2.0566,-2.0566,-2.0566,-2.0566,-2.0566,-2.0566,-2.0566,-2.0566,-2.0566,-2.0624,-2.0589,-2.0589,-2.1496,-2.2266,-2.2266,-2.2494,-2.2591,-2.2041,-2.1141,-2.0413,-2.0232,-2.0051,-1.996,-1.996,-1.9055,-1.8972,-2.0051,-1.8419,-1.7692,-1.8696,-1.8603,-1.8149,-1.7326,-1.878,-1.8964,-1.7326,-1.8064,-1.8149,-1.7326,-1.7326,-1.7326,-1.7326,-1.7326,-1.7326,-1.7326,-1.7326,-1.7326,-1.8156,-1.8016,-1.7915,-1.7488,-1.7652,-1.7564,-1.6195,0.0,-1.6961,-1.6145,0.0,-1.6572,-1.6773,0.0,0.0,-1.6729,-1.7897,-1.8647,-1.8225,-1.9018,-1.9896,-2.0648,-2.1423,-2.1555,-2.0747,-2.1145,-2.1762,-2.2482,-2.2223,-2.2089,-2.2199,-2.2297,-2.2235,-2.1987,-2.2061,-2.2061,-2.1937,-2.1937,-2.1624,-2.1024,-2.0368,-1.9745,-1.9142,-1.8805,-1.873,-1.8818,-1.958,-1.9941,-2.0019,-2.041,-2.0566,-2.0566,-2.0566,-2.0566,-2.0566,-2.0566,-2.0566,-2.0566,-2.0566,-2.0566,-2.0566,-2.0566,-2.0566,-2.0566,-2.0566,-2.0566,-2.0566,-2.0566,-2.0566,-2.0566,-2.0566,-2.0566,-2.0566,-2.0566,-2.0596,-2.0625,-2.0625,-2.1025,-2.1377,-2.1377,-2.1343,-2.164,-2.2717,-2.2148,-2.1239,-2.0322,-1.9513,-1.8972,-1.8972,-1.8056,-1.8149,-1.996,-1.8419,-1.7692,-1.8696,-1.7963,-1.7419,-1.7333,-1.7512,-1.7512,-1.7333,-1.7419,-1.7419,-1.7326,-1.7326,-1.7326,-1.7326,-1.7326,-1.7326,-1.7326,-1.7326,-1.7326,-1.8421,-1.8204,-1.8154,-1.7915,-1.779,-1.7539,-1.6835,-1.6785,-1.6835,-1.6697,0.0,0.0,0.0,0.0,0.0,0.0,-1.7343,-1.7931,-1.7693,-1.8188,-1.8945,-1.9957,-2.0551,-2.0871,-2.0667,-2.0613,-2.0684,-2.1081,-2.1367,-2.138,-2.1023,-2.1981,-2.2099,-2.1123,-2.1526,-2.1663,-2.1526,-2.1526,-2.16,-2.1726,-2.1008,-2.0291,-1.9639,-1.9106,-1.8735,-1.8652,-1.9014,-1.9316,-1.959,-2.001,-2.0185,-2.0215,-2.0469,-2.0566,-2.0566,-2.0566,-2.0566,-2.0566,-2.0566,-2.0566,-2.0566,-2.0566,-2.0566,-2.0566,-2.0566,-2.0566,-2.0566,-2.0566,-2.0566,-2.0566,-2.0566,-2.0566,-2.0566,-2.0566,-2.0566,-2.0566,-2.0566,-2.0918,-2.123,-2.123,-2.1582,-2.2131,-2.2658,-2.1715,-2.0872,-2.106,-2.024,-1.9604,-1.9604,-1.8788,-1.8696,-2.0051,-1.8419,-1.7692,-1.8696,-1.8427,-1.7878,-1.7326,-1.7326,-1.7606,-1.8156,-1.7606,-1.7326,-1.7326,-1.7326,-1.7326,-1.7326,-1.7326,-1.7326,-1.7326,-1.7326,-1.7326,-1.9179,-1.8885,-1.876,-1.8327,-1.7903,-1.7526,-1.7212,-1.6936,-1.6823,-1.7087,-1.6936,0.0,0.0,0.0,-1.6697,-1.6547,0.0,-1.7551,-1.74,-1.7793,-1.8286,-1.8921,-1.9204,-1.9687,-2.0555,-2.0025,-1.9797,-2.0025,-2.0493,-2.0628,-2.0306,-2.1572,-2.1922,-2.0974,-2.1451,-2.1577,-2.1451,-2.1451,-2.1714,-2.2247,-2.1526,-2.0805,-2.0161,-1.9365,-1.8758,-1.8467,-1.8584,-1.8818,-1.915,-1.9687,-1.9912,-1.9961,-2.0391,-2.0566,-2.0566,-2.0566,-2.0566,-2.0566,-2.0566,-2.0566,-2.0566,-2.0566,-2.0566,-2.0566,-2.0566,-2.0566,-2.0566,-2.0566,-2.0566,-2.0566,-2.0566,-2.0566,-2.0566,-2.0566,-2.0566,-2.0566,-2.0566,-2.082,-2.1055,-2.1055,-2.1404,-2.1851,-2.224,-2.1618,-2.1141,-2.1606,-2.106,-2.0567,-2.0454,-1.9455,-1.9298,-2.0722,-1.8827,-1.7926,-1.9009,-1.8739,-1.8055,-1.7154,-1.715,-1.752,-1.8154,-1.7512,-1.7201,-1.7201,-1.7201,-1.7245,-1.7326,-1.7326,-1.7326,-1.7326,-1.7326,-1.7326,-2.0805,-2.0508,-2.0148,-1.8599,-1.8191,-1.789,-1.6798,-1.6974,-1.72,-1.666,-1.6974,-1.7187,-1.6647,-1.6986,-1.7174,-1.6609,-1.7451,0.0,0.0,-1.7852,-1.8016,-1.7513,-1.7352,-1.8054,-2.0047,-1.9401,-1.9216,-2.0116,-1.9977,-2.0204,-2.1031,-2.1218,-2.177,-2.2592,-2.2482,-2.2347,-2.2359,-2.2359,-2.2359,-2.242,-2.1714,-2.0996,-2.0268,-1.9431,-1.8664,-1.8057,-1.8457,-1.8643,-1.8721,-1.957,-1.9912,-1.9961,-2.0391,-2.0566,-2.0566,-2.0566,-2.0566,-2.0566,-2.0566,-2.0566,-2.0566,-2.0566,-2.0566,-2.0566,-2.0566,-2.0566,-2.0566,-2.0566,-2.0566,-2.0566,-2.0566,-2.0566,-2.0566,-2.0566,-2.0566,-2.0566,-2.0566,-2.0576,-2.0586,-2.0586,-2.0221,-2.0328,-2.1661,-2.2502,-2.2687,-2.1872,-2.1695,-2.1557,-2.1085,-1.9757,-1.9743,-2.2131,-1.9886,-1.8556,-1.9701,-1.8496,-1.7358,-1.6485,-1.6696,-1.6816,-1.65,-1.6794,-1.6872,-1.6872,-1.6872,-1.7018,-1.7326,-1.7326,-1.7326,-1.7326,-1.7326,-1.7326,-2.1334,-2.1175,-2.0855,-1.9573,-1.9011,-1.8441,-1.7352,-1.7237,-1.7212,-1.6635,-1.6974,-1.7212,-1.6622,-1.6685,-1.6873,-1.7061,-1.7413,-1.7463,0.0,-1.666,-1.6609,-1.6785,-1.7372,-1.8014,-1.8697,-1.8709,-1.8672,-1.8621,-1.9497,-2.0122,-2.0147,-2.1232,-2.1989,-2.2303,-2.2602,-2.2665,-2.2616,-2.2616,-2.2616,-2.2616,-2.2359,-2.1639,-2.0462,-2.0204,-1.9431,-1.8357,-1.8496,-1.8556,-1.8606,-1.9203,-1.9611,-1.9929,-2.0357,-2.0705,-2.0964,-2.0722,-2.0566,-2.0566,-2.0566,-2.0566,-2.0566,-2.0566,-2.0566,-2.0566,-2.0566,-2.0566,-2.0566,-2.0566,-2.0566,-2.0566,-2.0566,-2.0566,-2.0566,-2.0566,-2.0566,-2.0566,-2.0566,-2.0566,-2.0566,-2.0566,-2.068,-2.0866,-2.1345,-2.1934,-2.2149,-2.1799,-2.1141,-2.0639,-2.0517,-1.986,-1.9643,-2.049,-1.947,-1.8891,-1.9229,-1.886,-1.844,-1.8102,-1.8216,-1.797,-1.7327,-1.7347,-1.7249,-1.6941,-1.6857,-1.7011,-1.7326,-1.7326,-1.7326,-1.7326,-1.7326,-1.7326,-2.2172,-2.2083,-2.1753,-2.0676,-2.014,-1.9529,-1.8003,-1.7817,-1.7772,-1.698,-1.7124,-1.7388,-1.7413,-1.725,-1.73,-1.7877,-1.7802,-1.74,0.0,-1.6208,-1.612,-1.6471,-1.706,-1.7526,-1.7784,-1.784,-1.7857,-1.7894,-1.8462,-1.908,-1.9589,-2.0648,-2.1492,-2.2076,-2.2623,-2.2848,-2.28,-2.28,-2.28,-2.28,-2.28,-2.2149,-2.1037,-2.0719,-1.9944,-1.8865,-1.8607,-1.8482,-1.8522,-1.9042,-1.9394,-1.9716,-2.031,-2.0712,-2.0907,-2.071,-2.0595,-2.0595,-2.0595,-2.0595,-2.0595,-2.0624,-2.0624,-2.0634,-2.0634,-2.0566,-2.0566,-2.0566,-2.0566,-2.0566,-2.0566,-2.0566,-2.0566,-2.0566,-2.0566,-2.0566,-2.0566,-2.0566,-2.0566,-2.0566,-2.0801,-2.1045,-2.1211,-2.1465,-2.1768,-2.1985,-2.1386,-2.1024,-2.1024,-2.0545,-2.0166,-2.0381,-1.9759,-1.9216,-1.9085,-1.8566,-1.8305,-1.865,-1.8431,-1.8022,-1.7382,-1.7165,-1.6961,-1.6764,-1.6682,-1.6894,-1.7326,-1.7326,-1.7326,-1.7326,-1.7326,-1.7326]},{"header":{"parameterUnit":"m.s-1","parameterCategory":1,"la1":30.6,"la2":29.2853,"lo1":-89.7004,"lo2":-87.6739,"dy":0.0162,"dx":0.0183,"nx":112,"ny":82,"refTime":"2024-06-04T06:00:00:Z","depth":0,"parameterNumber":3,"parameterNumberName":"V-component_of_WINDS"},"data":[0.0,0.0,0.0,0.0,0.0,0.0,0.0,0.0,0.0,0.0,0.0,0.0,0.0,0.0,0.0,0.0,0.0,0.0,0.0,0.0,0.0,0.0,0.0,0.0,0.0,0.0,0.0,0.0,0.0,0.0,0.0,0.0,0.0,0.0,0.0,0.0,0.0,0.0,0.0,0.0,0.0,0.0,0.0,0.0,0.0,0.0,0.0,0.0,0.0,0.0,0.0,0.0,0.0,0.0,0.0,0.0,0.0,0.0,0.0,0.0,0.0,0.0,0.0,0.0,0.0,0.0,0.0,0.0,0.0,0.0,0.0,0.0,0.0,0.0,0.0,0.0,0.0,0.0,0.0,0.0,0.0,0.0,0.0,0.0,0.0,0.0,0.0,0.0,0.0,0.0,-2.8925,-2.9677,-3.2199,-3.3815,-3.3815,-3.3758,-3.3167,-3.1861,0.0,0.0,0.0,0.0,0.0,0.0,0.0,0.0,0.0,0.0,0.0,0.0,0.0,0.0,0.0,0.0,0.0,0.0,0.0,0.0,0.0,0.0,0.0,0.0,0.0,0.0,0.0,0.0,0.0,0.0,0.0,0.0,0.0,0.0,0.0,0.0,0.0,0.0,0.0,0.0,0.0,0.0,0.0,0.0,0.0,0.0,0.0,0.0,0.0,0.0,0.0,0.0,0.0,0.0,0.0,0.0,0.0,0.0,0.0,0.0,0.0,0.0,0.0,0.0,0.0,0.0,0.0,0.0,0.0,0.0,0.0,0.0,0.0,0.0,0.0,0.0,0.0,0.0,0.0,0.0,0.0,0.0,0.0,0.0,0.0,0.0,0.0,0.0,0.0,0.0,0.0,0.0,0.0,0.0,0.0,0.0,0.0,0.0,0.0,0.0,0.0,0.0,0.0,0.0,-2.8562,-3.2709,-3.3626,-3.3972,-3.3972,-3.3345,-3.2619,-3.177,0.0,0.0,0.0,0.0,0.0,0.0,0.0,0.0,0.0,0.0,0.0,0.0,0.0,0.0,0.0,0.0,0.0,0.0,0.0,0.0,0.0,0.0,0.0,0.0,0.0,0.0,0.0,0.0,0.0,0.0,0.0,0.0,0.0,0.0,0.0,0.0,0.0,0.0,0.0,0.0,0.0,0.0,0.0,0.0,0.0,0.0,0.0,0.0,0.0,0.0,0.0,0.0,0.0,0.0,0.0,0.0,0.0,0.0,0.0,0.0,0.0,0.0,0.0,0.0,0.0,0.0,0.0,0.0,0.0,0.0,0.0,0.0,0.0,0.0,0.0,0.0,0.0,0.0,0.0,0.0,0.0,0.0,0.0,0.0,0.0,0.0,0.0,0.0,0.0,0.0,0.0,0.0,0.0,0.0,0.0,0.0,0.0,0.0,0.0,0.0,0.0,0.0,0.0,-2.7996,-2.949,-3.3522,-3.3972,-3.3998,-3.3998,-3.3691,-3.3,-3.1784,-2.9919,0.0,0.0,0.0,0.0,0.0,0.0,0.0,0.0,0.0,0.0,0.0,0.0,0.0,0.0,0.0,0.0,0.0,0.0,0.0,0.0,0.0,0.0,0.0,0.0,0.0,0.0,0.0,0.0,0.0,0.0,0.0,0.0,0.0,0.0,0.0,0.0,0.0,0.0,0.0,0.0,0.0,0.0,0.0,0.0,0.0,0.0,0.0,0.0,0.0,0.0,0.0,0.0,0.0,0.0,0.0,0.0,0.0,0.0,0.0,0.0,0.0,0.0,0.0,0.0,0.0,0.0,0.0,0.0,0.0,0.0,0.0,0.0,0.0,0.0,0.0,0.0,0.0,0.0,0.0,0.0,0.0,0.0,0.0,0.0,0.0,0.0,0.0,0.0,0.0,0.0,0.0,0.0,0.0,0.0,0.0,0.0,0.0,0.0,0.0,0.0,0.0,0.0,-2.9908,-3.1038,-3.3746,-3.4049,-3.4049,-3.4049,-3.3747,-3.303,-3.1807,-2.9898,0.0,0.0,0.0,0.0,0.0,0.0,0.0,0.0,0.0,0.0,0.0,0.0,0.0,0.0,0.0,0.0,0.0,0.0,0.0,0.0,0.0,0.0,0.0,0.0,0.0,0.0,0.0,0.0,0.0,0.0,0.0,0.0,0.0,0.0,0.0,0.0,0.0,0.0,0.0,0.0,0.0,0.0,0.0,0.0,0.0,0.0,0.0,0.0,0.0,0.0,0.0,0.0,0.0,0.0,0.0,0.0,0.0,0.0,0.0,0.0,0.0,0.0,0.0,0.0,0.0,0.0,0.0,0.0,0.0,0.0,0.0,0.0,0.0,0.0,0.0,0.0,0.0,0.0,0.0,0.0,0.0,0.0,0.0,0.0,0.0,0.0,0.0,0.0,0.0,0.0,0.0,0.0,0.0,0.0,0.0,0.0,0.0,0.0,0.0,0.0,0.0,0.0,-3.0734,-3.3025,-3.3988,-3.4148,-3.4197,-3.4197,-3.2823,-3.1912,-3.1801,-2.8828,0.0,0.0,0.0,0.0,0.0,0.0,0.0,0.0,0.0,0.0,0.0,0.0,0.0,0.0,0.0,0.0,0.0,0.0,0.0,0.0,0.0,0.0,0.0,0.0,0.0,0.0,0.0,0.0,0.0,0.0,0.0,0.0,0.0,0.0,0.0,0.0,0.0,0.0,0.0,0.0,0.0,0.0,0.0,0.0,0.0,0.0,0.0,0.0,0.0,0.0,0.0,0.0,0.0,0.0,0.0,0.0,0.0,0.0,0.0,0.0,0.0,0.0,0.0,0.0,0.0,0.0,0.0,0.0,0.0,0.0,0.0,0.0,0.0,0.0,0.0,0.0,0.0,0.0,0.0,0.0,0.0,0.0,0.0,0.0,0.0,0.0,0.0,0.0,0.0,0.0,0.0,0.0,0.0,0.0,0.0,0.0,0.0,0.0,0.0,0.0,0.0,0.0,-2.9961,-3.2056,-3.3944,-3.4173,-3.4197,-3.4197,-3.364,-3.2651,-3.115,0.0,0.0,0.0,0.0,0.0,0.0,0.0,0.0,0.0,0.0,0.0,0.0,0.0,0.0,0.0,0.0,0.0,0.0,0.0,0.0,0.0,0.0,0.0,0.0,0.0,0.0,0.0,0.0,0.0,0.0,0.0,0.0,0.0,0.0,0.0,0.0,0.0,0.0,0.0,0.0,0.0,0.0,0.0,0.0,0.0,0.0,0.0,0.0,0.0,0.0,0.0,0.0,0.0,0.0,0.0,0.0,0.0,0.0,0.0,0.0,0.0,0.0,0.0,0.0,0.0,0.0,0.0,0.0,0.0,0.0,0.0,0.0,0.0,0.0,0.0,0.0,0.0,0.0,0.0,0.0,0.0,0.0,0.0,0.0,0.0,0.0,0.0,0.0,0.0,0.0,0.0,0.0,0.0,0.0,0.0,0.0,0.0,0.0,0.0,0.0,0.0,0.0,-2.8283,-3.0098,-3.1992,-3.3993,-3.4197,-3.4197,-3.4197,-3.351,-3.2247,-3.0341,0.0,0.0,0.0,0.0,0.0,0.0,0.0,0.0,0.0,0.0,0.0,0.0,0.0,0.0,0.0,0.0,0.0,0.0,0.0,0.0,0.0,0.0,0.0,0.0,0.0,0.0,0.0,0.0,0.0,0.0,0.0,0.0,0.0,0.0,0.0,0.0,0.0,0.0,0.0,0.0,0.0,0.0,0.0,0.0,0.0,0.0,0.0,0.0,0.0,0.0,0.0,0.0,0.0,0.0,0.0,0.0,0.0,0.0,0.0,0.0,0.0,0.0,0.0,0.0,0.0,0.0,0.0,0.0,0.0,0.0,0.0,0.0,0.0,0.0,0.0,0.0,0.0,0.0,0.0,0.0,0.0,0.0,0.0,0.0,0.0,0.0,0.0,0.0,0.0,0.0,0.0,0.0,0.0,0.0,0.0,0.0,0.0,0.0,0.0,0.0,0.0,0.0,-2.9191,-3.1481,-3.3305,-3.4104,-3.4197,-3.4197,-3.4197,-3.2001,-3.0268,0.0,0.0,0.0,0.0,0.0,0.0,0.0,0.0,0.0,0.0,0.0,0.0,0.0,0.0,0.0,0.0,0.0,0.0,0.0,0.0,0.0,0.0,0.0,0.0,0.0,0.0,0.0,0.0,0.0,0.0,0.0,0.0,0.0,0.0,0.0,0.0,0.0,0.0,0.0,0.0,0.0,0.0,0.0,0.0,0.0,0.0,0.0,0.0,0.0,0.0,0.0,0.0,0.0,0.0,0.0,0.0,0.0,0.0,0.0,0.0,0.0,0.0,0.0,0.0,0.0,0.0,0.0,0.0,0.0,0.0,0.0,0.0,0.0,0.0,0.0,0.0,0.0,0.0,0.0,0.0,0.0,0.0,0.0,0.0,0.0,0.0,0.0,0.0,0.0,0.0,0.0,0.0,0.0,0.0,0.0,0.0,0.0,0.0,0.0,0.0,0.0,0.0,0.0,-2.918,-3.144,-3.3258,-3.4104,-3.4197,-3.4197,-3.4197,-3.3035,-3.1463,-2.9521,0.0,0.0,0.0,0.0,0.0,0.0,0.0,0.0,0.0,0.0,0.0,0.0,0.0,0.0,0.0,0.0,0.0,0.0,0.0,0.0,0.0,0.0,0.0,0.0,0.0,0.0,0.0,0.0,0.0,0.0,0.0,0.0,0.0,0.0,0.0,0.0,0.0,0.0,0.0,0.0,0.0,0.0,0.0,0.0,0.0,0.0,0.0,0.0,0.0,0.0,0.0,0.0,0.0,0.0,0.0,0.0,0.0,0.0,0.0,0.0,0.0,0.0,0.0,0.0,0.0,0.0,0.0,0.0,0.0,0.0,0.0,0.0,0.0,0.0,0.0,0.0,0.0,0.0,0.0,0.0,0.0,0.0,0.0,0.0,0.0,0.0,0.0,0.0,0.0,0.0,0.0,0.0,0.0,0.0,0.0,0.0,0.0,0.0,0.0,0.0,0.0,0.0,-2.9256,-3.2057,-3.4154,-3.4661,-3.4736,-3.4717,-3.471,-3.3666,-3.18,-2.9058,0.0,0.0,0.0,0.0,0.0,0.0,0.0,0.0,0.0,0.0,0.0,0.0,0.0,0.0,0.0,0.0,0.0,0.0,0.0,0.0,0.0,0.0,0.0,0.0,0.0,0.0,0.0,0.0,0.0,0.0,0.0,0.0,0.0,0.0,0.0,0.0,0.0,0.0,0.0,0.0,0.0,0.0,0.0,0.0,0.0,0.0,0.0,0.0,0.0,0.0,0.0,0.0,0.0,0.0,0.0,0.0,0.0,0.0,0.0,0.0,0.0,0.0,0.0,0.0,0.0,0.0,0.0,0.0,0.0,0.0,0.0,0.0,0.0,0.0,0.0,0.0,0.0,0.0,0.0,0.0,0.0,0.0,0.0,0.0,0.0,0.0,0.0,0.0,0.0,0.0,0.0,0.0,0.0,0.0,0.0,0.0,0.0,0.0,0.0,0.0,0.0,0.0,-2.9593,-3.3069,-3.5541,-3.5615,-3.5546,-3.5497,-3.5509,-3.395,-3.1668,-2.8537,0.0,0.0,0.0,0.0,0.0,0.0,0.0,0.0,0.0,0.0,0.0,0.0,0.0,0.0,0.0,0.0,0.0,0.0,0.0,0.0,0.0,0.0,0.0,0.0,0.0,0.0,0.0,0.0,0.0,0.0,0.0,0.0,0.0,0.0,0.0,0.0,0.0,0.0,0.0,0.0,0.0,0.0,0.0,0.0,0.0,0.0,0.0,0.0,0.0,0.0,0.0,0.0,0.0,0.0,0.0,0.0,0.0,0.0,0.0,0.0,-2.4968,-2.3909,0.0,0.0,0.0,0.0,0.0,0.0,0.0,0.0,0.0,0.0,0.0,0.0,0.0,0.0,0.0,0.0,0.0,0.0,0.0,0.0,0.0,0.0,0.0,0.0,0.0,0.0,0.0,0.0,0.0,0.0,0.0,0.0,0.0,0.0,0.0,0.0,0.0,0.0,0.0,0.0,-3.1039,-3.3766,-3.5746,-3.6366,-3.5899,-3.5509,-3.5509,-3.395,-3.2157,-3.0189,-2.807,0.0,0.0,0.0,0.0,0.0,0.0,0.0,0.0,0.0,0.0,0.0,0.0,0.0,0.0,0.0,0.0,0.0,0.0,0.0,0.0,0.0,0.0,0.0,0.0,0.0,0.0,0.0,0.0,0.0,0.0,0.0,0.0,0.0,0.0,0.0,0.0,0.0,0.0,0.0,0.0,0.0,0.0,0.0,0.0,0.0,0.0,0.0,0.0,0.0,0.0,0.0,0.0,0.0,0.0,0.0,0.0,0.0,0.0,0.0,-2.7021,-2.6172,0.0,0.0,0.0,0.0,0.0,0.0,0.0,0.0,0.0,0.0,0.0,0.0,0.0,0.0,0.0,0.0,0.0,0.0,0.0,0.0,0.0,0.0,0.0,0.0,0.0,0.0,0.0,0.0,0.0,0.0,0.0,0.0,0.0,0.0,0.0,0.0,0.0,0.0,0.0,0.0,-3.1002,-3.4059,-3.6391,-3.7184,-3.6893,-3.6488,-3.6096,-3.4915,-3.3345,-3.1299,-2.9611,0.0,0.0,0.0,0.0,0.0,0.0,0.0,0.0,0.0,0.0,0.0,0.0,0.0,0.0,0.0,0.0,0.0,0.0,0.0,0.0,0.0,0.0,0.0,0.0,0.0,0.0,0.0,0.0,0.0,0.0,0.0,0.0,0.0,0.0,0.0,0.0,0.0,0.0,0.0,0.0,0.0,0.0,0.0,0.0,0.0,0.0,0.0,0.0,0.0,0.0,0.0,0.0,0.0,-2.9622,-2.9845,-3.0401,-3.0335,-3.0409,-3.0502,-2.965,-2.8892,-2.8244,-2.765,0.0,0.0,0.0,0.0,0.0,0.0,0.0,0.0,0.0,0.0,0.0,0.0,0.0,0.0,0.0,0.0,0.0,0.0,0.0,0.0,0.0,0.0,-3.0204,-3.0889,-3.2173,-3.2302,-2.8815,0.0,0.0,0.0,0.0,0.0,0.0,0.0,0.0,0.0,0.0,0.0,-3.1284,-3.4649,-3.7214,-3.8013,-3.7988,-3.759,-3.6786,-3.5962,-3.45,-3.217,-3.1236,-2.9844,0.0,0.0,0.0,0.0,0.0,0.0,0.0,0.0,0.0,0.0,0.0,0.0,0.0,0.0,0.0,0.0,0.0,0.0,0.0,0.0,0.0,0.0,0.0,0.0,0.0,0.0,0.0,0.0,0.0,0.0,0.0,0.0,-2.0877,-2.2654,0.0,0.0,0.0,0.0,0.0,0.0,0.0,0.0,0.0,0.0,0.0,0.0,0.0,-2.8214,-2.92,-3.1251,-3.1964,-3.1427,-3.4097,-3.5024,-3.4363,-3.4336,-3.4795,-3.5512,-3.4707,0.0,-2.9104,-2.9609,0.0,0.0,0.0,0.0,0.0,0.0,0.0,0.0,0.0,0.0,0.0,0.0,0.0,0.0,0.0,0.0,0.0,0.0,0.0,0.0,0.0,0.0,-3.4238,-3.433,-3.511,-3.5459,-3.4165,-3.1838,-2.9471,-2.7809,-2.7601,-2.711,0.0,0.0,0.0,0.0,0.0,0.0,-3.446,-3.6528,-3.8048,-3.8841,-3.8322,-3.759,-3.6786,-3.5962,-3.4729,-3.2945,-3.2083,-3.1172,-3.0143,-2.7185,0.0,0.0,0.0,0.0,0.0,0.0,0.0,0.0,0.0,0.0,0.0,0.0,0.0,0.0,0.0,0.0,0.0,0.0,0.0,0.0,0.0,0.0,0.0,0.0,0.0,0.0,0.0,0.0,0.0,-2.0837,-2.2574,-2.3797,-2.3628,-2.3405,0.0,0.0,0.0,0.0,0.0,0.0,0.0,0.0,0.0,-3.0021,-3.0479,-3.1307,-3.26,-3.4153,-3.4718,-3.436,-3.5853,-3.6306,-3.5901,-3.5846,-3.6049,-3.6408,-3.6012,-3.487,-3.3151,-3.2631,-3.1513,-3.0079,0.0,0.0,0.0,0.0,-2.9237,-2.9067,-3.0778,-3.1066,-3.0754,-3.0987,0.0,0.0,0.0,0.0,0.0,0.0,0.0,-3.1659,-3.2118,-3.3972,-3.5844,-3.6303,-3.7066,-3.7492,-3.6636,-3.5431,-3.3714,-3.1072,-3.1009,-3.0286,-2.6816,-2.7409,0.0,0.0,0.0,-3.2813,-3.5192,-3.6919,-3.8207,-3.9008,-3.8776,-3.8257,-3.7433,-3.6645,-3.5683,-3.4481,-3.3191,-3.2316,-3.1968,-2.9779,-2.8197,0.0,0.0,0.0,0.0,0.0,0.0,0.0,0.0,0.0,0.0,0.0,0.0,0.0,0.0,0.0,0.0,0.0,0.0,0.0,0.0,0.0,0.0,0.0,0.0,0.0,0.0,0.0,0.0,-2.2761,-2.4039,-2.4688,-2.5151,-2.5262,0.0,0.0,0.0,0.0,0.0,0.0,-2.8992,-3.0154,-3.139,-3.2569,-3.3308,-3.4252,-3.5468,-3.6344,-3.6768,-3.6711,-3.6999,-3.7109,-3.7053,-3.7024,-3.6996,-3.7006,-3.6948,-3.6938,-3.6838,-3.5302,-3.4123,-3.3243,-3.2585,-3.2217,-3.2144,-3.2978,-3.2904,-3.2665,-3.4706,-3.5018,-3.4448,-3.4062,-3.3235,-3.2015,-3.0018,0.0,0.0,0.0,0.0,-3.3733,-3.4541,-3.5661,-3.6798,-3.7606,-3.8309,-3.8596,-3.8007,-3.7966,-3.7147,-3.3976,-3.3891,-3.3081,-2.9037,-2.9891,0.0,-2.8996,-3.1541,-3.4245,-3.5919,-3.7359,-3.8441,-3.9027,-3.9101,-3.8776,-3.797,-3.7352,-3.6597,-3.5565,-3.4333,-3.3555,-3.3327,-3.1844,-3.0424,-2.9045,0.0,0.0,0.0,0.0,0.0,0.0,0.0,0.0,0.0,0.0,0.0,0.0,0.0,0.0,0.0,0.0,0.0,0.0,0.0,0.0,0.0,0.0,0.0,0.0,0.0,0.0,0.0,0.0,0.0,-2.5542,-2.6952,0.0,0.0,0.0,0.0,-2.803,-3.0176,-3.1478,-3.1431,-3.3647,-3.4977,-3.5114,-3.59,-3.6389,-3.6517,-3.722,-3.754,-3.754,-3.8272,-3.8579,-3.8579,-3.8597,-3.864,-3.8663,-3.8663,-3.8663,-3.8552,-3.6893,-3.5717,-3.4972,-3.4853,-3.4403,-3.3842,-3.4596,-3.4871,-3.4963,-3.5899,-3.6211,-3.6285,-3.7,-3.6156,-3.4642,-3.377,-3.3532,0.0,0.0,-3.4816,-3.6303,-3.7121,-3.7367,-3.7624,-3.845,-3.867,-3.8689,-3.8652,-3.8707,-3.8029,-3.5642,-3.5251,-3.4747,-3.2913,0.0,-3.3012,-3.3733,-3.4699,-3.595,-3.7571,-3.8524,-3.9064,-3.9101,-3.9101,-3.8776,-3.797,-3.7859,-3.718,-3.5602,-3.5416,-3.4995,-3.416,-3.2606,-3.1415,-3.0686,-2.8296,0.0,0.0,0.0,0.0,0.0,0.0,0.0,0.0,0.0,0.0,0.0,0.0,0.0,0.0,0.0,0.0,0.0,0.0,0.0,0.0,0.0,0.0,0.0,0.0,0.0,0.0,0.0,0.0,-2.7227,-2.866,0.0,-2.8862,-3.0064,-3.1199,-3.1968,-3.3308,-3.4296,-3.4789,-3.5639,-3.6546,-3.7514,-3.7827,-3.846,-3.951,-3.9786,-3.9902,-3.9858,-4.0165,-4.0312,-4.0249,-4.0249,-4.0249,-4.0281,-4.0281,-4.0281,-4.0226,-3.9643,-3.8597,-3.747,-3.7955,-3.7973,-3.7856,-3.8634,-3.8915,-3.8982,-3.9294,-3.9405,-3.935,-3.9111,-3.8285,-3.7331,-3.7037,-3.7312,-3.7734,-3.7734,-3.8524,-3.946,-3.9753,-3.9827,-3.99,-4.0194,-4.0325,-4.0351,-4.0351,-4.0492,-4.0341,-3.9499,-3.8395,-3.7072,-3.5385,-3.5605,-3.5777,-3.5082,-3.6147,-3.7437,-3.8542,-3.8924,-3.9101,-3.9101,-3.9101,-3.899,-3.8702,-3.772,-3.6878,-3.6303,-3.5404,-3.4766,-3.4463,-3.4024,-3.2908,-3.1035,-3.0209,-2.8257,0.0,0.0,0.0,0.0,0.0,0.0,0.0,0.0,0.0,0.0,0.0,0.0,0.0,0.0,0.0,0.0,0.0,0.0,0.0,0.0,0.0,0.0,0.0,0.0,0.0,-2.7705,-2.9262,-2.9265,-3.0732,-3.1751,-3.1728,-3.268,-3.3796,-3.4884,-3.5695,-3.65,-3.7313,-3.7581,-3.8298,-3.9583,-3.9608,-4.0092,-4.1126,-4.1158,-4.1158,-4.1111,-4.1158,-4.1126,-4.1111,-4.1111,-4.1111,-4.1111,-4.1111,-4.1111,-4.1111,-4.1111,-4.0487,-3.957,-4.0102,-4.0304,-4.0377,-4.091,-4.1111,-4.1111,-4.1111,-4.1111,-4.102,-4.0487,-3.9937,-3.9515,-3.9515,-3.9882,-4.0304,-4.0304,-4.0689,-4.1111,-4.1111,-4.1111,-4.1111,-4.1111,-4.119,-4.1217,-4.1217,-4.1329,-4.1514,-4.1792,-4.0695,-3.9361,-3.8272,-3.8607,-3.8645,-3.7652,-3.8441,-3.9249,-3.9509,-3.9547,-3.9426,-3.912,-3.9101,-3.9101,-3.9101,-3.7877,-3.6971,-3.6682,-3.5293,-3.4363,-3.4101,-3.397,-3.3025,-3.1099,-3.0659,-2.8965,-2.5919,0.0,0.0,0.0,0.0,0.0,0.0,0.0,0.0,0.0,0.0,0.0,0.0,0.0,0.0,0.0,0.0,0.0,0.0,0.0,0.0,0.0,0.0,0.0,-2.8033,-2.879,-2.9935,-3.1575,-3.3136,-3.4109,-3.4197,-3.5631,-3.6565,-3.662,-3.7256,-3.8037,-3.8817,-3.9546,-4.0317,-4.1222,-4.1162,-4.1181,-4.1277,-4.1217,-4.1185,-4.1185,-4.1185,-4.1185,-4.1185,-4.1185,-4.1185,-4.1185,-4.1185,-4.1185,-4.1185,-4.1185,-4.1185,-4.1185,-4.1167,-4.1148,-4.1148,-4.1185,-4.1185,-4.1185,-4.1185,-4.1185,-4.1185,-4.1185,-4.1185,-4.1185,-4.1185,-4.1185,-4.1185,-4.1185,-4.1185,-4.1185,-4.1185,-4.1185,-4.1185,-4.1185,-4.1185,-4.1185,-4.1185,-4.1185,-4.1405,-4.2194,-4.1912,-4.1563,-4.1616,-4.1568,-4.1501,-4.1574,-4.1585,0.0,-4.0533,-4.0421,-4.0095,-3.9277,-3.9138,-3.912,-3.912,-3.835,-3.7514,-3.6646,-3.5088,-3.3907,-3.3231,-3.2497,-3.178,-3.1101,-2.9674,-2.8469,-2.758,0.0,0.0,0.0,0.0,0.0,0.0,0.0,0.0,0.0,0.0,0.0,0.0,0.0,0.0,0.0,0.0,0.0,0.0,0.0,0.0,0.0,-2.7497,-2.8709,-2.8798,-3.0991,-3.2778,-3.3239,-3.4803,-3.6021,-3.6583,-3.7034,-3.78,-3.9021,-3.9245,-3.9694,-4.0504,-4.073,-4.1195,-4.1971,-4.1974,-4.2249,-4.2852,-4.2871,-4.2837,-4.2837,-4.2837,-4.2837,-4.2837,-4.2837,-4.2837,-4.2837,-4.2837,-4.2837,-4.2837,-4.2837,-4.2837,-4.2782,-4.2194,-4.1974,-4.2047,-4.2635,-4.2837,-4.2837,-4.2837,-4.2837,-4.2837,-4.2837,-4.2837,-4.2837,-4.2837,-4.2837,-4.2837,-4.2837,-4.2837,-4.2837,-4.2837,-4.2837,-4.2837,-4.2837,-4.2871,-4.2904,-4.2904,-4.299,-4.3129,-4.3351,-4.3203,-4.282,-4.2198,-4.1649,-4.1268,-4.1311,-4.1341,-4.1287,-4.1082,-4.1053,-4.0999,-4.0868,-4.0272,-3.9909,-3.9909,-3.8619,-3.7458,-3.6571,-3.5261,-3.4705,-3.5183,-3.4677,-3.4016,-3.3182,-3.2201,-3.0968,0.0,0.0,0.0,0.0,0.0,0.0,0.0,0.0,0.0,0.0,0.0,0.0,0.0,0.0,0.0,0.0,0.0,0.0,0.0,0.0,0.0,0.0,-2.9774,-3.1017,-3.1066,-3.2665,-3.4255,-3.5303,-3.6325,-3.7356,-3.8497,-3.8578,-3.9111,-4.0412,-4.0491,-4.0809,-4.1618,-4.1654,-4.2022,-4.2782,-4.28,-4.302,-4.3497,-4.3497,-4.3497,-4.3497,-4.3497,-4.3497,-4.3497,-4.3497,-4.3497,-4.3497,-4.3497,-4.3497,-4.3497,-4.3497,-4.3497,-4.3442,0.0,0.0,0.0,0.0,-4.3497,-4.3497,-4.3497,-4.3497,-4.3497,-4.3497,-4.3497,-4.3497,-4.3497,-4.3497,-4.3497,-4.3497,-4.3497,-4.3497,-4.3497,-4.3497,-4.3497,-4.3497,-4.3513,-4.3548,-4.3548,-4.3634,-4.3686,-4.3686,-4.36,0.0,-4.2873,-4.2474,-4.2234,-4.2292,-4.2314,-4.2222,-4.1848,-4.1791,-4.1711,-4.1459,-4.0963,-4.0531,-4.0188,-3.8989,0.0,0.0,0.0,-3.5175,-3.5553,-3.5397,0.0,0.0,0.0,0.0,0.0,-3.2879,0.0,0.0,-3.1537,-3.1996,0.0,0.0,0.0,0.0,0.0,0.0,0.0,0.0,0.0,0.0,0.0,0.0,0.0,0.0,0.0,0.0,-3.2339,-3.3899,-3.4174,-3.4211,-3.5064,-3.7337,-3.7702,-3.8334,-3.9847,-4.0005,-4.0377,-4.1185,-4.1258,-4.1589,-4.2396,-4.2433,0.0,0.0,0.0,-4.3497,-4.3497,-4.3497,-4.3497,-4.3497,-4.3497,-4.3497,-4.3497,-4.3497,-4.3497,-4.3497,-4.3497,-4.3497,-4.3497,-4.3497,-4.3497,-4.3497,-4.3497,-4.3497,-4.3497,-4.3497,-4.3497,-4.3497,-4.3497,0.0,0.0,-4.3497,-4.3497,-4.3497,-4.3497,-4.3497,-4.3497,-4.3497,-4.3497,-4.3497,-4.3497,-4.3497,-4.3497,-4.3497,-4.3497,-4.3497,-4.3497,-4.3497,-4.3497,-4.3497,-4.3497,-4.3497,-4.3497,-4.3563,-4.3642,-4.3762,-4.3775,-4.35,-4.2729,-4.2606,-4.2333,-4.1643,-4.1475,0.0,-4.042,-3.9601,-3.8744,-3.7778,-3.6473,-3.5619,-3.5268,-3.5609,-3.5742,-3.5571,-3.5757,-3.6115,-3.6631,-3.6913,-3.7063,-3.7005,-3.4557,-3.4996,0.0,0.0,0.0,0.0,0.0,0.0,0.0,0.0,0.0,0.0,0.0,0.0,0.0,0.0,0.0,-3.1751,-3.3073,-3.4504,-3.6486,-3.6762,-3.6974,-3.7452,-3.8664,-3.9551,-3.9895,-4.0487,-4.1203,-4.2011,-4.2066,-4.2415,-4.3222,-4.3259,-4.3332,-4.3497,-4.3497,-4.3497,-4.3497,-4.3497,-4.3497,-4.3497,-4.3497,0.0,-4.3497,-4.3497,-4.3497,-4.3497,-4.3497,-4.3497,-4.3497,-4.3497,-4.3497,-4.3497,-4.3497,-4.3497,-4.3497,-4.3497,-4.3497,-4.3497,-4.3497,-4.3497,-4.3497,-4.3497,-4.3497,-4.3497,-4.3497,-4.3497,0.0,-4.3497,-4.3497,-4.3497,-4.3497,-4.3497,-4.3497,-4.3497,-4.3497,-4.3497,-4.3497,-4.3497,-4.3497,-4.3497,-4.3497,-4.3497,-4.3497,-4.3513,-4.3548,-4.3545,-4.3545,-4.3493,-4.3332,-4.3314,-4.3277,-4.3169,-4.2582,-4.2124,-4.1989,-4.1235,-4.0111,-3.8566,-3.7815,-3.726,-3.6882,-3.8251,-3.8442,-3.7262,-3.8613,-3.8708,-3.7465,-3.9527,-4.052,-4.0482,-3.8629,-3.8132,0.0,0.0,0.0,0.0,0.0,0.0,0.0,0.0,0.0,0.0,0.0,-2.7695,-2.9292,0.0,-3.0999,-3.3421,-3.4504,-3.5624,-3.7257,-3.7845,-3.8102,-3.8102,-3.9166,-4.0065,-4.0469,-4.124,-4.2029,-4.2837,-4.2892,-4.3075,-4.3461,-4.3497,-4.3497,-4.3497,-4.3497,-4.3497,-4.3497,-4.3497,-4.3497,-4.3497,-4.3497,-4.3497,-4.3497,-4.3497,-4.3497,-4.3497,-4.3497,-4.3497,-4.3497,-4.3497,-4.3497,-4.3497,-4.3497,-4.3497,-4.3497,-4.3497,-4.3497,-4.3497,-4.3497,-4.3497,-4.3497,-4.3497,-4.3497,-4.3497,-4.3497,-4.3497,-4.3497,-4.3497,-4.3497,-4.3497,-4.3497,-4.3497,-4.3497,-4.3497,-4.3497,-4.3497,-4.3497,-4.3497,-4.3497,-4.3497,-4.3497,-4.3497,-4.3497,-4.3497,-4.3497,-4.3497,-4.3497,-4.3497,-4.3497,-4.3497,-4.3497,-4.3534,-4.3188,-4.2787,-4.237,-4.1629,-4.0919,-4.0333,-3.9917,-3.9727,-3.9808,-4.0646,-4.0826,-4.0253,-4.1093,-4.1132,-4.0253,-4.1533,-4.2144,-4.2144,-4.1705,-4.1285,0.0,0.0,0.0,0.0,0.0,0.0,0.0,-2.6741,-2.8117,-2.8429,-2.9017,-2.9916,-3.1366,-3.1751,-3.2614,-3.4862,-3.5973,-3.6798,-3.7606,-3.8285,-3.8762,-3.8909,-3.9643,-4.0451,-4.1277,-4.2066,-4.28,-4.3442,-4.3497,-4.3497,-4.3497,-4.3497,-4.3497,-4.3497,-4.3497,-4.3497,-4.3497,-4.3497,-4.3497,-4.3497,-4.3497,-4.3497,-4.3497,-4.3497,-4.3497,-4.3497,-4.3497,-4.3497,-4.3497,-4.3497,-4.3497,-4.3497,-4.3497,-4.3497,-4.3497,-4.3497,-4.3497,-4.3497,-4.3497,-4.3497,-4.3497,-4.3497,-4.3497,-4.3497,-4.3497,-4.3497,-4.3497,-4.3497,-4.3497,-4.3497,-4.3497,-4.3497,-4.3497,-4.3497,-4.3497,-4.3497,-4.3497,-4.3497,-4.3497,-4.3497,-4.3497,-4.3497,-4.3497,-4.3497,-4.3497,-4.3497,-4.3497,-4.3497,-4.3497,-4.3497,-4.3497,-4.3497,-4.3497,-4.3224,-4.2587,-4.1912,-4.1654,-4.2013,-4.1791,-4.1828,-4.2284,-4.2304,-4.247,-4.2793,-4.2947,-4.3043,-4.3023,-4.3195,-4.3291,-4.3291,-4.3959,-4.3806,-2.4833,-2.5511,-2.6062,-2.6062,-2.6282,-2.6998,0.0,-2.9182,-2.9274,-3.0687,-3.1054,-3.1403,-3.2302,-3.3054,-3.41,-3.5862,-3.6835,-3.7643,-3.845,-3.8652,-3.8964,-3.968,-4.0487,-4.1295,-4.2084,-4.2892,-4.3387,-4.3479,-4.3497,-4.3497,-4.3497,-4.3497,-4.3497,-4.3497,-4.3497,-4.3497,-4.3497,-4.3497,-4.3497,-4.3497,-4.3497,-4.3497,-4.3497,-4.3497,-4.3497,-4.3497,-4.3497,-4.3497,-4.3497,-4.3497,-4.3497,-4.3497,-4.3497,-4.3497,-4.3497,-4.3497,-4.3497,-4.3497,-4.3497,-4.3497,-4.3497,-4.3497,-4.3497,-4.3497,-4.3497,-4.3497,-4.3497,-4.3497,-4.3497,-4.3497,-4.3497,-4.3497,-4.3497,-4.3497,-4.3497,-4.3497,-4.3497,-4.3497,-4.3497,-4.3497,-4.3497,-4.3497,-4.3497,-4.3497,-4.3497,-4.3497,-4.3497,-4.3497,-4.3497,-4.3497,-4.3497,-4.3497,-4.3497,-4.3461,-4.3369,-4.3117,-4.2862,-4.2613,-4.22,-4.2075,-4.2365,-4.2391,-4.2521,-4.2787,-4.3497,-4.3881,-4.3883,-4.4647,-4.501,-4.501,-4.5105,-4.4685,-2.5878,-2.6337,-2.6612,-2.6612,-2.7658,-2.8851,-2.9384,-3.0338,-3.1292,-3.1971,-3.2467,-3.3036,-3.3862,-3.4257,-3.5055,-3.6725,-3.7276,-3.7771,-3.8597,-3.8707,-3.9001,-3.979,-4.0616,-4.1423,-4.2213,-4.302,-4.3497,-4.3497,-4.3497,-4.3497,-4.3497,-4.3497,-4.3497,-4.3497,-4.3497,-4.3497,-4.3497,-4.3497,-4.3497,-4.3497,-4.3497,-4.3497,-4.3497,-4.3497,-4.3497,-4.3497,-4.3497,-4.3497,-4.3497,-4.3497,-4.3497,-4.3497,-4.3497,-4.3497,-4.3497,-4.3497,-4.3497,-4.3497,-4.3497,-4.3497,-4.3497,-4.3497,-4.3497,-4.3497,-4.3497,-4.3497,-4.3497,-4.3497,-4.3497,-4.3497,-4.3497,-4.3497,-4.3497,-4.3497,-4.3497,-4.3497,-4.3497,-4.3497,-4.3497,-4.3497,-4.3497,-4.3497,-4.3497,-4.3497,-4.3497,-4.3497,-4.3497,-4.3497,-4.3497,-4.3497,-4.3497,-4.3497,-4.3497,-4.3592,-4.3753,-4.3699,-4.3671,-4.3694,-4.3506,-4.3525,-4.3796,-4.3795,-4.3935,-4.4243,-4.4588,-4.476,-4.4762,-4.5125,-4.5297,-4.5297,-4.5297,-4.5105,-2.6133,-2.6573,-2.6979,-2.7218,-2.8741,-3.0173,-3.0026,-3.1341,-3.2669,-3.2908,-3.3385,-3.4045,-3.4844,-3.5192,-3.5844,-3.7257,-3.7679,-3.8028,-3.8615,-3.8707,-3.9074,-4.0102,-4.0763,-4.1515,-4.2525,-4.3149,-4.3497,-4.3497,-4.3497,-4.3497,-4.3497,-4.3497,-4.3497,-4.3497,-4.3497,-4.3497,-4.3497,-4.3497,-4.3497,-4.3497,-4.3497,-4.3497,-4.3497,-4.3497,-4.3497,-4.3497,-4.3497,-4.3497,-4.3497,-4.3497,-4.3497,-4.3497,-4.3497,-4.3497,-4.3497,-4.3497,-4.3497,-4.3497,-4.3497,-4.3497,-4.3497,-4.3497,-4.3497,-4.3497,-4.3497,-4.3497,-4.3497,-4.3497,-4.3497,-4.3497,-4.3497,-4.3497,-4.3497,-4.3497,-4.3497,-4.3497,-4.3497,-4.3497,-4.3497,-4.3497,-4.3497,-4.3497,-4.3497,-4.3497,-4.3497,-4.3497,-4.3497,-4.3497,-4.3497,-4.3497,-4.3497,-4.3497,-4.3587,-4.3693,-4.3857,-4.4064,-4.428,-4.4393,-4.4569,-4.4741,-4.4934,-4.4953,-4.5048,-4.5297,-4.5297,-4.5297,-4.5297,-4.5297,-4.5297,-4.5297,-4.5297,-4.5256,-2.5541,-2.6536,-2.7952,-2.8741,-2.9586,-3.0595,-3.2155,-3.2559,-3.2834,-3.3605,-3.377,-3.4045,-3.4844,-3.5697,-3.6523,-3.7349,-3.8138,-3.867,-3.8707,-3.8707,-3.9294,-4.0891,-4.1093,-4.1735,-4.3296,-4.3479,-4.3497,-4.3497,-4.3497,-4.3497,-4.3497,-4.3497,-4.3497,-4.3497,-4.3497,-4.3497,-4.3497,-4.3497,-4.3497,-4.3497,-4.3497,-4.3497,-4.3497,-4.3497,-4.3497,-4.3497,-4.3497,-4.3497,-4.3497,-4.3497,-4.3497,-4.3497,-4.3497,-4.3497,-4.3497,-4.3497,-4.3497,-4.3497,-4.3497,-4.3497,-4.3497,-4.3497,-4.3497,-4.3497,-4.3497,-4.3497,-4.3497,-4.3497,-4.3497,-4.3497,-4.3497,-4.3497,-4.3497,-4.3497,-4.3497,-4.3497,-4.3497,-4.3497,-4.3497,-4.3497,-4.3497,-4.3497,-4.3497,-4.3497,-4.3497,-4.3497,-4.3497,-4.3497,-4.3497,-4.3497,-4.3497,-4.3497,-4.3789,-4.386,-4.3529,-4.4282,-4.4681,-4.4414,-4.4953,-4.5277,-4.5277,-4.5277,-4.5277,-4.5297,-4.5297,-4.5297,-4.5297,-4.5297,-4.5297,-4.5297,-4.5297,-4.5132,-2.7376,-2.8168,-2.8796,-2.9604,-3.0815,-3.1935,-3.2485,-3.3018,-3.3476,-3.3733,-3.3807,-3.4045,-3.4844,-3.5716,-3.656,-3.7349,-3.8615,-3.9496,-3.9496,-3.9974,-4.0506,-4.1056,-4.1589,-4.2121,-4.2653,-4.3185,-4.3497,-4.3497,-4.3497,-4.3497,-4.3497,-4.3497,-4.3497,-4.3497,-4.3497,-4.3497,-4.3497,-4.3497,-4.3497,-4.3497,-4.3497,-4.3497,-4.3497,-4.3497,-4.3497,-4.3497,-4.3497,-4.3497,-4.3497,-4.3497,-4.3497,-4.3497,-4.3497,-4.3497,-4.3497,-4.3497,-4.3497,-4.3497,-4.3497,-4.3497,-4.3497,-4.3497,-4.3497,-4.3497,-4.3497,-4.3497,-4.3497,-4.3497,-4.3497,-4.3497,-4.3497,-4.3497,-4.3497,-4.3497,-4.3497,-4.3497,-4.3497,-4.3497,-4.3497,-4.3497,-4.3497,-4.3497,-4.3497,-4.3497,-4.3497,-4.3497,-4.3497,-4.3497,-4.3497,-4.3497,-4.3497,-4.3497,-4.3605,-4.3624,-4.3497,-4.3979,-4.4325,-4.4393,-4.476,-4.5067,-4.5277,-4.5297,-4.5297,-4.5297,-4.5297,-4.5297,-4.5297,-4.5297,-4.5194,-4.4957,-4.4957,-4.4819,-2.8457,-2.8994,-2.9324,-3.0723,-3.1843,-3.2687,-3.2963,-3.344,-3.3715,-3.344,-3.3366,-3.3623,-3.4431,-3.5037,-3.5862,-3.7257,-3.8597,-3.957,-3.9845,-4.0598,-4.1222,-4.1497,-4.1992,-4.2415,-4.269,-4.3185,-4.3497,-4.3497,-4.3497,-4.3497,-4.3497,-4.3497,-4.3497,-4.3497,-4.3497,-4.3497,-4.3497,-4.3497,-4.3497,-4.3497,-4.3497,-4.3497,-4.3497,-4.3497,-4.3497,-4.3497,-4.3497,-4.3497,-4.3497,-4.3497,-4.3497,-4.3497,-4.3497,-4.3497,-4.3497,-4.3497,-4.3497,-4.3497,-4.3497,-4.3497,-4.3497,-4.3497,-4.3497,-4.3497,-4.3497,-4.3497,-4.3497,-4.3497,-4.3497,-4.3497,-4.3497,-4.3497,-4.3497,-4.3497,-4.3497,-4.3497,-4.3497,-4.3497,-4.3497,-4.3497,-4.3497,-4.3497,-4.3497,-4.3497,-4.3497,-4.3497,-4.3497,-4.3497,-4.3497,-4.3497,-4.3497,-4.3497,-4.3497,-4.3497,-4.3497,-4.3789,-4.4077,-4.4252,-4.4528,-4.4798,-4.5105,-4.5029,-4.5086,-4.5297,-4.5087,-4.5042,-4.5109,-4.5042,-4.4862,-4.465,-4.465,-4.4519,-2.874,-2.908,-2.9727,-3.2045,-3.2632,-3.2852,-3.3568,-3.3733,-3.3513,-3.2706,-3.254,-3.2779,-3.3532,-3.3733,-3.4578,-3.6964,-3.8138,-3.9038,-3.9845,-4.0689,-4.1515,-4.2268,-4.2359,-4.2653,-4.3424,-4.3497,-4.3497,-4.3497,-4.3497,-4.3497,-4.3497,-4.3497,-4.3497,-4.3497,-4.3497,-4.3497,-4.3497,-4.3497,-4.3497,-4.3497,-4.3497,-4.3497,-4.3497,-4.3497,-4.3497,-4.3497,-4.3497,-4.3497,-4.3497,-4.3534,-4.3534,-4.3497,-4.3534,-4.3534,-4.3497,-4.3497,-4.3497,-4.3497,-4.3497,-4.3497,-4.3497,-4.3497,-4.3497,-4.3497,-4.3497,-4.3497,-4.3497,-4.3497,-4.3497,-4.3497,-4.3497,-4.3497,-4.3497,-4.3497,-4.3497,-4.3497,-4.3497,-4.3497,-4.3497,-4.3497,-4.3497,-4.3497,-4.3497,-4.3497,-4.3497,-4.3497,-4.3497,-4.3497,-4.3497,-4.3497,-4.3497,-4.3497,-4.3497,-4.3497,-4.3497,-4.3789,-4.3989,-4.4007,-4.4244,-4.4484,-4.4772,-4.4548,-4.4662,-4.5233,-4.4688,-4.4519,-4.4776,-4.4519,-4.4383,-4.4374,-4.4374,-4.4231,-2.963,-3.0754,-3.1843,-3.2467,-3.3054,-3.3385,-3.2999,-3.2926,-3.2687,-3.1861,-3.1715,-3.177,-3.1971,-3.2981,-3.4192,-3.5459,-3.7863,-3.9863,-4.0689,-4.1992,-4.2947,-4.3167,-4.3185,-4.3259,-4.3461,-4.3497,-4.3497,-4.3497,-4.3497,-4.3497,-4.3497,-4.3497,-4.3497,-4.3497,-4.3497,-4.3497,-4.3497,-4.3497,-4.3497,-4.3497,-4.3497,-4.3497,-4.3497,-4.3497,-4.3497,-4.3497,-4.3497,-4.3497,-4.3534,-4.4158,-4.4048,-4.3552,-4.4158,-4.403,-4.3497,-4.3497,-4.3497,-4.3497,-4.3497,-4.3497,-4.3497,-4.3497,-4.3497,-4.3497,-4.3497,-4.3497,-4.3497,-4.3497,-4.3497,-4.3497,-4.3497,-4.3497,-4.3497,-4.3497,-4.3497,-4.3497,-4.3497,-4.3497,-4.3497,-4.3497,-4.3497,-4.3497,-4.3497,-4.3497,-4.3497,-4.3497,-4.3497,-4.3497,-4.3497,-4.3497,-4.3497,-4.3497,-4.3497,-4.3497,-4.3497,-4.3587,-4.3734,-4.3989,-4.405,-4.4203,-4.4476,-4.4429,-4.4459,-4.4619,-4.4495,-4.4438,-4.4493,-4.4438,-4.4289,-4.4091,-4.4091,-4.3923,-3.1011,-3.1916,-3.2687,-3.3054,-3.3201,-3.3073,-3.2265,-3.2063,-3.1751,-3.0595,-3.0632,-3.087,-3.087,-3.1898,-3.3238,-3.4734,-3.7165,-3.9368,-4.091,-4.2176,-4.3094,-4.3442,-4.3497,-4.3497,-4.3497,-4.3497,-4.3497,-4.3497,-4.3497,-4.3497,-4.3497,-4.3497,-4.3497,-4.3497,-4.3497,-4.3497,-4.3497,-4.3497,-4.3497,-4.3497,-4.3497,-4.3497,-4.3497,-4.3497,-4.3497,-4.3497,-4.3497,-4.3497,-4.3552,-4.4378,-4.4232,-4.3571,-4.4397,-4.4213,-4.3497,-4.3497,-4.3497,-4.3497,-4.3497,-4.3497,-4.3497,-4.3497,-4.3497,-4.3497,-4.3497,-4.3497,-4.3497,-4.3497,-4.3497,-4.3497,-4.3497,-4.3497,-4.3497,-4.3497,-4.3497,-4.3497,-4.3497,-4.3497,-4.3497,-4.3497,-4.3497,-4.3497,-4.3497,-4.3497,-4.3497,-4.3497,-4.3497,-4.3497,-4.3497,-4.3497,-4.3497,-4.3497,-4.3497,-4.3497,-4.3497,-4.3497,-4.3587,-4.3771,-4.3771,-4.3915,-4.4226,-4.4069,-4.4146,-4.4407,-4.4133,-4.4102,-4.4221,-4.4072,-4.3918,-4.3781,-4.3781,-4.3682,-3.2284,-3.2614,-3.2908,-3.3495,-3.3128,-3.2339,-3.1311,-3.1072,-3.0613,-2.9017,-2.9329,-2.9879,-2.9879,-3.0632,-3.2027,-3.4468,-3.6248,-3.8212,-4.0763,-4.1791,-4.2598,-4.3387,-4.3497,-4.3497,-4.3497,-4.3497,-4.3497,-4.3497,-4.3497,-4.3497,-4.3497,-4.3497,-4.3497,-4.3497,-4.3497,-4.3497,-4.3497,-4.3497,-4.3497,-4.3497,-4.3497,-4.3497,-4.3497,-4.3497,-4.3497,-4.3497,-4.3497,-4.3497,-4.3552,-4.4378,-4.4232,-4.3571,-4.4397,-4.4213,-4.3497,-4.3497,-4.3497,-4.3497,-4.3497,-4.3497,-4.3497,-4.3497,-4.3497,-4.3497,-4.3497,-4.3497,-4.3497,-4.3497,-4.3497,-4.3497,-4.3497,-4.3497,-4.3497,-4.3497,-4.3497,-4.3497,-4.3497,-4.3497,-4.3497,-4.3497,-4.3497,-4.3497,-4.3497,-4.3497,-4.3497,-4.3497,-4.3497,-4.3497,-4.3497,-4.3497,-4.3497,-4.3497,-4.3497,-4.3497,-4.3497,-4.3497,-4.3497,-4.3497,-4.3497,-4.3642,-4.3934,-4.366,-4.3752,-4.4281,-4.3771,-4.3649,-4.3942,-4.3649,-4.3497,-4.3497,-4.3497,-4.3497,-3.1751,-3.2577,-3.3476,-3.2944,-3.2706,-3.2045,-2.9892,-2.9439,-2.8962,-2.7365,-2.7658,-2.8209,-2.8209,-2.942,-3.1201,-3.3623,-3.5404,-3.7569,-4.0689,-4.1791,-4.2598,-4.3387,-4.3497,-4.3497,-4.3497,-4.3497,-4.3497,-4.3497,-4.3497,-4.3497,-4.3497,-4.3497,-4.3497,-4.3497,-4.3497,-4.3497,-4.3497,-4.3497,-4.3497,-4.3497,-4.3497,-4.3497,-4.3497,-4.3497,-4.3497,-4.3497,-4.3497,-4.3497,-4.3552,-4.4378,-4.4232,-4.3571,-4.4397,-4.4213,-4.3497,-4.3497,-4.3497,-4.3497,-4.3497,-4.3497,-4.3497,-4.3497,-4.3497,-4.3497,-4.3497,-4.3497,-4.3497,-4.3497,-4.3497,-4.3497,-4.3497,-4.3497,-4.3497,-4.3497,-4.3497,-4.3497,-4.3497,-4.3497,-4.3497,-4.3497,-4.3497,-4.3497,-4.3497,-4.3497,-4.3497,-4.3497,-4.3497,-4.3497,-4.3497,-4.3497,-4.3497,-4.3497,-4.3497,-4.3497,-4.3497,-4.3497,-4.3497,-4.3497,-4.3497,-4.3516,-4.3587,-4.3516,-4.3534,-4.366,-4.3534,-4.3513,-4.3582,-4.3513,-4.3497,-4.3497,-4.3497,-4.3497,-3.2027,-3.2596,-3.3091,-3.2706,-3.2302,-3.1347,-2.8925,-2.8374,-2.7915,-2.63,-2.6612,-2.7291,-2.7714,-2.8778,-3.0375,-3.2779,-3.4192,-3.6285,-3.9955,-4.0818,-4.1662,-4.3296,-4.3497,-4.341,-4.3232,-4.3196,-4.3196,-4.3196,-4.3196,-4.3268,-4.3497,-4.3497,-4.3497,-4.3497,-4.3497,-4.3497,-4.3497,-4.3497,-4.3497,-4.3497,-4.3497,-4.3497,-4.3497,-4.3497,-4.3497,-4.3497,-4.3497,-4.3497,-4.3552,-4.4378,-4.4232,-4.3571,-4.4397,-4.4213,-4.3497,-4.3497,-4.3497,-4.3497,-4.3497,-4.3497,-4.3497,-4.3497,-4.3497,-4.3497,-4.3497,-4.3497,-4.3497,-4.3497,-4.3497,-4.3497,-4.3497,-4.3497,-4.3497,-4.3497,-4.3497,-4.3497,-4.3497,-4.3497,-4.3497,-4.3497,-4.3497,-4.3497,-4.3497,-4.3497,-4.3497,-4.3497,-4.3497,-4.3497,-4.3497,-4.3497,-4.3497,-4.3497,-4.3497,-4.3497,-4.3497,-4.3497,-4.3497,-4.3497,-4.3497,-4.3497,-4.3497,-4.3497,-4.3497,-4.3497,-4.3497,-4.3497,-4.3497,-4.3497,-4.3497,-4.3497,-4.3463,-4.3444,-3.1971,-3.2357,-3.2522,-3.2173,-3.1733,-3.0705,-2.8136,-2.753,-2.709,-2.5456,-2.5768,-2.6594,-2.7383,-2.8209,-2.9604,-3.2192,-3.3128,-3.4935,-3.8944,-3.9658,-4.061,-4.2844,-4.3176,-4.3142,-4.292,-4.2806,-4.2806,-4.2882,-4.2882,-4.3087,-4.3479,-4.3497,-4.3497,-4.3497,-4.3497,-4.3497,-4.3497,-4.3497,-4.3497,-4.3497,-4.3497,-4.3497,-4.3497,-4.3497,-4.3497,-4.3497,-4.3497,-4.3497,-4.3534,-4.4176,-4.4066,-4.3552,-4.4195,-4.4066,-4.3497,-4.3497,-4.3497,-4.3497,-4.3497,-4.3497,-4.3497,-4.3497,-4.3497,-4.3497,-4.3497,-4.3497,-4.3497,-4.3497,-4.3497,-4.3497,-4.3497,-4.3497,-4.3497,-4.3497,-4.3497,-4.3497,-4.3497,-4.3497,-4.3497,-4.3497,-4.3497,-4.3497,-4.3497,-4.3497,-4.3497,-4.3497,-4.3497,-4.3497,-4.3497,-4.3497,-4.3497,-4.3497,-4.3497,-4.3497,-4.3497,-4.3497,-4.3497,-4.3497,-4.3497,-4.3497,-4.3497,-4.3497,-4.3497,-4.3497,-4.3497,-4.3497,-4.3497,-4.3497,-4.3497,-4.3463,-4.3428,-4.3356,-3.0571,-3.1494,-3.2265,-3.0797,-3.0907,-3.0577,-2.7438,-2.6722,-2.6245,-2.463,-2.4942,-2.575,-2.6557,-2.7365,-2.8943,-3.21,-3.2669,-3.4009,-3.7747,-3.886,-3.9911,-4.1669,-4.2127,-4.2458,-4.2844,-4.2498,-4.2458,-4.2882,-4.2882,-4.3087,-4.3479,-4.3497,-4.3497,-4.3497,-4.3497,-4.3497,-4.3497,-4.3497,-4.3497,-4.3497,-4.3497,-4.3497,-4.3497,-4.3497,-4.3497,-4.3497,-4.3497,-4.3497,-4.3497,-4.3571,-4.3552,-4.3497,-4.3571,-4.3552,-4.3497,-4.3497,-4.3497,-4.3497,-4.3497,-4.3497,-4.3497,-4.3497,-4.3497,-4.3497,-4.3497,-4.3497,-4.3497,-4.3497,-4.3497,-4.3497,-4.3497,-4.3497,-4.3497,-4.3497,-4.3497,-4.3497,-4.3497,-4.3497,-4.3497,-4.3497,-4.3497,-4.3497,-4.3497,-4.3497,-4.3497,-4.3497,-4.3497,-4.3497,-4.3497,-4.3497,-4.3497,-4.3497,-4.3497,-4.3497,-4.3497,-4.3497,-4.3497,-4.3497,-4.3497,-4.3497,-4.3497,-4.3497,-4.3497,-4.3497,-4.3497,-4.3497,-4.3497,-4.3497,-4.3463,-4.3429,-4.3408,-4.332,-3.0155,-3.0668,-3.0999,-3.0356,-3.0448,-2.9953,-2.7218,-2.6612,-2.6153,-2.452,-2.4447,-2.4905,-2.5731,-2.6539,-2.7658,-2.942,-3.0399,-3.192,-3.4806,-3.6128,-3.772,-4.0308,-4.1178,-4.1658,-4.2021,-4.1906,-4.1864,-4.2032,-4.2338,-4.2537,-4.2732,-4.2995,-4.3142,-4.3142,-4.3375,-4.3497,-4.3497,-4.3497,-4.3497,-4.3497,-4.3497,-4.3497,-4.3497,-4.3497,-4.3497,-4.3497,-4.3497,-4.3497,-4.3497,-4.3497,-4.3497,-4.3497,-4.3497,-4.3497,-4.3497,-4.3497,-4.3497,-4.3497,-4.3497,-4.3497,-4.3497,-4.3497,-4.3497,-4.3497,-4.3497,-4.3497,-4.3497,-4.3497,-4.3497,-4.3497,-4.3497,-4.3497,-4.3497,-4.3497,-4.3497,-4.3497,-4.3497,-4.3497,-4.3497,-4.3497,-4.3497,-4.3497,-4.3497,-4.3497,-4.3497,-4.3497,-4.3497,-4.3497,-4.3497,-4.3497,-4.3497,-4.3497,-4.3497,-4.3497,-4.3497,-4.3497,-4.3497,-4.3497,-4.3497,-4.3497,-4.3497,-4.3497,-4.3497,-4.3497,-4.3461,-4.3444,-4.3449,-4.3339,-4.3303,-4.3267,-4.3232,-4.3212,-2.9622,-3.0026,-3.0136,-2.9898,-3.0026,-2.9567,-2.7163,-2.6612,-2.6153,-2.452,-2.4151,-2.4385,-2.5427,-2.602,-2.6777,-2.8033,-2.9246,-3.0782,-3.3019,-3.4508,-3.6345,-3.905,-3.9979,-4.057,-4.1113,-4.1394,-4.1472,-4.1472,-4.1821,-4.199,-4.199,-4.2418,-4.2768,-4.29,-4.3304,-4.3497,-4.3497,-4.3375,-4.3339,-4.3339,-4.3339,-4.3339,-4.3339,-4.3463,-4.3497,-4.3497,-4.3497,-4.3497,-4.3497,-4.3497,-4.3497,-4.3497,-4.3497,-4.3497,-4.3497,-4.3497,-4.3497,-4.3497,-4.3497,-4.3497,-4.3497,-4.3497,-4.3497,-4.3497,-4.3497,-4.3497,-4.3497,-4.3497,-4.3497,-4.3497,-4.3497,-4.3497,-4.3497,-4.3497,-4.3497,-4.3497,-4.3497,-4.3497,-4.3497,-4.3497,-4.3497,-4.3497,-4.3497,-4.3497,-4.3497,-4.3497,-4.3497,-4.3497,-4.3497,-4.3497,-4.3497,-4.3497,-4.3497,-4.3497,-4.3497,-4.3497,-4.3497,-4.3497,-4.3497,-4.3479,-4.3461,-4.3461,-4.3442,-4.3406,-4.3355,-4.334,-4.3324,-4.3269,-4.3213,-4.3159,-4.3124,-4.3087,-2.8773,-2.9604,-3.0008,-2.9195,-2.9622,-2.9567,-2.7163,-2.6612,-2.6153,-2.452,-2.3996,-2.4266,-2.5814,-2.5931,-2.6568,-2.8915,-2.9958,-3.1191,-3.3108,-3.4738,-3.6299,-3.7945,-3.8399,-3.9111,-4.0297,-4.1078,-4.1472,-4.1472,-4.1516,-4.1516,-4.1516,-4.1948,-4.2418,-4.2882,-4.3304,-4.3497,-4.3497,-4.3123,-4.292,-4.292,-4.292,-4.292,-4.292,-4.3339,-4.3497,-4.3497,-4.3497,-4.3497,-4.3497,-4.3497,-4.3497,-4.3497,-4.3497,-4.3497,-4.3497,-4.3497,-4.3497,-4.3497,-4.3497,-4.3497,-4.3497,-4.3497,-4.3497,-4.3497,-4.3497,-4.3497,-4.3497,-4.3497,-4.3497,-4.3497,-4.3497,-4.3497,-4.3497,-4.3497,-4.3497,-4.3497,-4.3497,-4.3497,-4.3497,-4.3497,-4.3497,-4.3497,-4.3497,-4.3497,-4.3497,-4.3497,-4.3497,-4.3497,-4.3497,-4.3497,-4.3497,-4.3497,-4.3497,-4.3497,-4.3497,-4.3497,-4.3497,-4.3497,-4.3497,-4.3461,-4.3406,-4.3406,-4.3351,-4.3206,-4.3177,-4.3214,-4.3174,-4.3214,-4.316,-4.3105,-4.3105,-4.3032,-2.7136,-2.7501,-2.7817,-2.724,-2.7268,-2.7169,-2.6041,-2.5646,-2.5208,-2.4135,-2.3714,-2.3683,-2.4167,-2.5099,-2.6185,-2.7406,-2.903,-3.0747,-3.2337,-3.4196,-3.5937,-3.7505,-3.9133,-4.0343,-4.0706,-4.0856,-4.0995,-4.1088,-4.0995,-4.0995,-4.1088,-4.149,-4.1948,-4.2418,-4.2864,-4.3087,-4.3087,-4.2673,-4.2418,-4.2418,-4.2418,-4.2595,-4.2882,-4.3032,-4.3087,-4.3123,-4.3375,-4.3339,-4.3105,-4.3375,-4.3497,-4.3479,-4.3196,-4.3087,-4.3032,-4.2732,-4.2598,-4.2598,-4.2598,-4.2598,-4.2655,-4.2995,-4.3087,-4.3142,-4.341,-4.3497,-4.3497,-4.3497,-4.3497,-4.3497,-4.3497,-4.3497,-4.3497,-4.3497,-4.3497,-4.3497,-4.3497,-4.3497,-4.3497,-4.3497,-4.3497,-4.3497,-4.3497,-4.3497,-4.3497,-4.3497,-4.3497,-4.3497,-4.3497,-4.3497,-4.3497,-4.3497,-4.3497,-4.3497,-4.3497,-4.3497,-4.3497,-4.3497,-4.3461,-4.3424,-4.3406,-4.3323,-4.3251,-4.3214,-4.3159,-4.314,-4.3119,-4.303,-4.2957,-4.2957,-4.2939,-4.2957,0.0,-2.6265,-2.6433,-2.6111,-2.6051,-2.5922,-2.5238,-2.4968,-2.4622,-2.3811,-2.3473,-2.3378,-2.3637,-2.4678,-2.5728,-2.6423,-2.8154,-3.0018,-3.1794,-3.3623,-3.5542,-3.7646,-3.9388,-4.044,-4.0393,-4.0573,-4.0697,-4.0728,-4.0745,-4.0697,-4.0728,-4.1174,-4.1543,-4.176,-4.2279,-4.2537,-4.248,-4.2015,-4.1803,-4.1846,-4.1846,-4.2015,-4.2378,-4.2555,-4.2634,-4.2634,-4.2884,-4.2864,0.0,-4.2902,-4.3014,-4.2958,-4.2732,-4.2634,-4.2595,-4.2297,-4.2198,-4.2198,-4.2198,-4.2198,-4.2257,-4.2537,-4.2634,-4.2711,-4.3142,-4.3375,-4.3497,-4.3497,-4.3497,-4.3497,-4.3497,-4.3497,-4.3497,-4.3497,-4.3497,-4.3497,-4.3497,-4.3497,-4.3497,-4.3497,-4.3497,-4.3497,-4.3497,-4.3497,-4.3497,-4.3497,-4.3497,-4.3497,-4.3497,-4.3497,-4.3497,-4.3497,-4.3497,-4.3497,-4.3497,-4.3497,-4.3479,-4.3461,-4.3424,-4.3355,-4.3268,-4.3195,-4.3137,-4.3083,-4.3047,-4.3029,-4.3029,-4.2918,-4.2882,-4.2882,-4.2882,-4.2882,0.0,-2.5579,-2.5604,-2.5401,-2.5426,-2.5332,-2.454,-2.4373,0.0,-2.344,-2.3177,-2.3298,-2.4051,-2.4587,-2.5212,-2.6126,-2.7523,-2.9265,-3.1558,-3.3283,-3.5404,-3.8318,-3.9319,-3.9692,-3.9598,-4.022,-4.0648,-4.0534,-4.06,-4.0648,-4.0534,-4.0972,-4.1168,-4.1047,-4.1595,-4.1853,-4.1768,-4.1303,-4.1122,-4.1258,-4.1258,-4.1321,-4.1472,-4.1948,-4.2115,-4.2115,-4.2157,-4.2157,-4.2157,-4.2157,-4.2198,-4.2216,-4.2157,-4.2157,-4.2157,-4.2115,-4.2133,-4.2133,-4.2133,-4.2133,-4.2115,-4.2115,-4.2157,-4.2297,-4.2711,-4.3142,-4.3444,-4.3479,-4.3497,-4.3497,-4.3497,-4.3497,-4.3497,-4.3497,-4.3497,-4.3497,-4.3497,-4.3497,-4.3497,-4.3497,-4.3497,-4.3497,-4.3497,-4.3497,-4.3497,-4.3497,-4.3497,-4.3497,-4.3497,-4.3497,-4.3479,-4.3479,-4.3479,-4.3479,-4.3479,-4.3479,-4.3461,-4.3406,-4.3389,-4.3304,-4.3101,-4.3083,-4.3047,-4.2882,-4.2882,-4.2882,-4.2882,-4.2882,-4.2882,-4.2882,-4.2882,-4.2882,-2.3177,0.0,-2.3068,-2.2119,-2.1935,-2.199,0.0,-2.2265,-2.2476,-2.23,0.0,-2.3015,-2.3759,-2.3998,-2.4919,-2.7454,-2.8644,-3.0041,-3.2317,-3.4909,-3.7239,-3.9095,-3.9877,-4.0309,-4.026,-4.0334,-4.0436,-4.0468,-4.0436,-4.0453,-4.0485,-4.0597,-4.0645,-4.05,-4.0645,-4.0879,-4.1258,-4.0849,-4.0645,-4.0693,-4.0789,-4.096,-4.1213,-4.1393,-4.1525,-4.1525,-4.1768,-4.1803,-4.1692,-4.1913,-4.2098,-4.2157,-4.1821,-4.1648,-4.1604,-4.1328,-4.1226,-4.1226,-4.1226,-4.1226,-4.1255,-4.1561,-4.1906,-4.2198,-4.2338,-4.2673,-4.3123,-4.341,-4.3497,-4.3497,-4.3497,-4.3497,-4.3497,-4.3497,-4.3497,-4.3497,-4.3497,-4.3497,-4.3497,-4.3497,-4.3497,-4.3497,-4.3497,-4.3497,-4.3497,-4.3497,-4.3497,-4.3497,-4.3497,-4.3461,-4.3424,-4.3424,-4.3332,-4.3277,-4.3277,-4.3369,-4.3424,-4.3406,-4.3269,-4.3159,-4.3101,-4.301,-4.2918,-4.2882,-4.2882,-4.2882,-4.2882,-4.2882,-4.2882,-4.2882,-4.2882,-4.2882,-2.2007,-2.2497,-2.2887,-2.2186,-2.2079,-2.2178,-2.2347,0.0,0.0,0.0,0.0,0.0,-2.3219,-2.4104,-2.536,-2.7029,-2.8508,-3.0331,-3.2904,-3.5557,-3.7775,-3.9281,-3.9764,-4.0109,-4.0402,-4.0337,-4.0288,-4.0337,-4.0288,-4.0288,-4.0337,-4.0387,-4.0337,-4.0188,-4.0188,-4.0353,-4.0642,-4.0402,-4.0337,-4.0387,-4.0485,-4.0614,-4.0849,-4.0896,-4.0926,-4.0926,-4.1139,-4.1157,-4.1053,-4.1248,-4.1366,-4.1383,-4.1128,-4.1036,-4.1007,-4.0871,-4.0793,-4.084,-4.0888,-4.0888,-4.0918,-4.1163,-4.1418,-4.1622,-4.1821,-4.2074,-4.2338,-4.277,-4.305,-4.3214,-4.3214,-4.3375,-4.3497,-4.3497,-4.3497,-4.3497,-4.3497,-4.3497,-4.3497,-4.3497,-4.3497,-4.3497,-4.3497,-4.3497,-4.3497,-4.3497,-4.3461,-4.3442,-4.3442,-4.3369,-4.3318,-4.3323,-4.3232,-4.3214,-4.3214,-4.3232,-4.3251,-4.3251,-4.3159,-4.3065,-4.3029,-4.2918,-4.2882,-4.2882,-4.2882,-4.2882,-4.2882,-4.2882,-4.2882,-4.2882,-4.2882,-4.2882,-2.1776,-2.272,-2.3716,-2.3198,-2.3192,-2.3316,-2.3278,0.0,0.0,0.0,0.0,0.0,0.0,-2.4557,-2.5905,-2.625,-2.8236,-3.0702,-3.3481,-3.5608,-3.7416,-3.8862,-3.9191,-3.9535,-4.0067,-4.017,-4.0238,-4.0138,-4.0188,-4.0238,-4.0138,-4.0188,-4.0238,-4.0121,-4.007,-4.007,-4.007,-4.007,-4.0188,-4.0255,-4.0288,-4.0337,-4.0436,-4.0485,-4.0485,-4.0485,-4.0436,-4.0485,-4.0485,-4.0485,-4.0485,-4.0485,-4.0485,-4.0485,-4.0534,-4.0648,-4.0648,-4.0697,-4.084,-4.0871,-4.0888,-4.0888,-4.0888,-4.0965,-4.1328,-4.1401,-4.149,-4.1864,-4.2378,-4.2806,-4.2882,-4.3142,-4.3424,-4.3479,-4.3497,-4.3497,-4.3497,-4.3497,-4.3497,-4.3497,-4.3497,-4.3497,-4.3497,-4.3479,-4.3479,-4.3479,-4.3424,-4.3353,-4.3373,-4.3246,-4.3177,-4.3175,-4.3155,-4.3137,-4.3137,-4.3101,-4.3065,-4.3065,-4.3065,-4.3029,-4.2882,-4.2882,-4.2882,-4.2882,-4.2882,-4.2882,-4.2882,-4.2882,-4.2882,-4.2882,-4.2882,-4.2882,-2.3005,-2.3811,-2.3845,-2.1266,-2.1165,-2.1524,-2.0967,0.0,0.0,0.0,0.0,0.0,0.0,-2.4667,-2.5538,-2.7451,-2.9689,-3.1995,-3.437,-3.5462,-3.631,-3.7206,-3.8353,-3.9088,-3.9206,-3.9765,-4.0138,-4.007,-4.0138,-4.0138,-4.007,-4.0138,-4.0138,-4.007,-4.007,-4.007,-4.007,-4.007,-4.0121,-4.0121,-4.0238,-4.0238,-4.0188,-4.0288,-4.0355,-4.0337,-4.0238,-4.0271,-4.0485,-4.0387,-4.0387,-4.0485,-4.0485,-4.0485,-4.0485,-4.0534,-4.0534,-4.0534,-4.0697,-4.0793,-4.0888,-4.0888,-4.0888,-4.0918,-4.0965,-4.1012,-4.1012,-4.1088,-4.1666,-4.2418,-4.2806,-4.2941,-4.3078,-4.3424,-4.3497,-4.3497,-4.3497,-4.3497,-4.3497,-4.3497,-4.3497,-4.3497,-4.3497,-4.3442,-4.3424,-4.3424,-4.3314,-4.3211,-4.325,-4.314,-4.314,-4.3101,-4.3029,-4.2936,-4.2936,-4.2918,-4.2918,-4.2918,-4.2918,-4.29,-4.2882,-4.2882,-4.2882,-4.2882,-4.2882,-4.2882,-4.2882,-4.2882,-4.2882,-4.2882,-4.2882,-4.2882,-2.2265,-2.3078,-2.3621,-2.2248,-2.2785,-2.3607,-2.3386,-2.3238,0.0,0.0,0.0,0.0,0.0,-2.5681,-2.7351,-3.0023,-3.1958,-3.3505,-3.4542,-3.5254,-3.6,-3.6746,-3.7428,-3.7956,-3.8362,-3.9056,-3.9495,-3.9495,-3.9851,-4.007,-4.007,-4.007,-4.007,-4.007,-4.007,-4.007,-4.007,-4.007,-4.007,-4.007,-4.0188,-4.0188,-4.007,-4.0188,-4.0188,-4.0188,-4.0138,-4.0171,-4.0288,-4.0238,-4.0238,-4.0271,-4.0271,-4.0271,-4.0271,-4.0387,-4.0485,-4.0648,-4.0697,-4.0793,-4.0888,-4.0888,-4.0888,-4.0888,-4.0888,-4.0888,-4.0888,-4.0888,-4.1328,-4.1888,-4.2085,-4.2538,-4.2933,-4.3133,-4.3351,-4.3497,-4.3497,-4.3497,-4.3497,-4.3497,-4.3497,-4.3497,-4.3497,-4.3442,-4.3391,-4.3397,-4.3269,-4.3142,-4.3157,-4.3065,-4.301,-4.301,-4.2918,-4.2882,-4.2882,-4.2882,-4.2882,-4.2882,-4.2882,-4.2882,-4.2882,-4.2882,-4.2882,-4.2882,-4.2882,-4.2882,-4.2882,-4.2882,-4.2882,-4.2882,-4.2882,-4.2882,-2.1769,-2.2395,-2.3224,-2.3562,0.0,-2.528,-2.5749,-2.5176,-2.4686,0.0,0.0,0.0,-2.538,-2.725,-2.961,-3.2275,-3.3702,-3.4556,-3.4726,-3.525,-3.5842,-3.6434,-3.6671,-3.7009,-3.7584,-3.8311,-3.8734,-3.8734,-3.9411,-3.9817,-3.9817,-3.9986,-4.007,-4.007,-4.007,-4.007,-4.007,-4.007,-4.007,-4.007,-4.007,-4.007,-4.007,-4.007,-4.007,-4.007,-4.007,-4.007,-4.007,-4.007,-4.007,-4.007,-4.007,-4.007,-4.0121,-4.0188,-4.0387,-4.06,-4.0648,-4.0745,-4.084,-4.0888,-4.0888,-4.0888,-4.0888,-4.0888,-4.0888,-4.0888,-4.1117,-4.1383,-4.1499,-4.2007,-4.265,-4.2845,-4.3133,-4.3387,-4.3479,-4.3497,-4.3497,-4.3497,-4.3497,-4.3497,-4.3479,-4.3406,-4.3356,-4.3321,-4.3155,-4.3047,-4.3047,-4.2974,-4.2882,-4.2882,-4.2882,-4.2882,-4.2882,-4.2882,-4.2882,-4.2882,-4.2882,-4.2882,-4.2882,-4.2882,-4.2882,-4.2882,-4.2882,-4.2882,-4.2882,-4.2882,-4.2882,-4.2882,-4.2882,-4.2882,-2.2868,-2.2818,-2.2716,-2.4069,-2.3985,-2.3947,-2.5382,-2.5079,-2.4896,-2.6333,-2.6605,-2.6759,-2.7452,-2.9431,-3.1478,-3.3068,-3.3981,-3.4742,-3.5436,-3.5588,-3.5639,-3.569,-3.6349,-3.6806,-3.6857,-3.755,-3.799,-3.799,-3.8667,-3.9073,-3.9073,-3.9715,-4.007,-4.007,-4.007,-4.007,-4.007,-4.007,-4.007,-4.007,-4.007,-4.007,-4.007,-4.007,-4.007,-4.007,-4.007,-4.007,-4.007,-4.007,-4.007,-4.007,-4.007,-4.007,-4.007,-4.0121,-4.0188,-4.0355,-4.0485,-4.0534,-4.0583,-4.0823,-4.084,-4.0745,-4.0888,-4.0888,-4.0888,-4.0888,-4.0918,-4.1041,-4.1383,-4.1565,-4.1797,-4.2668,-4.2915,-4.3059,-4.3424,-4.3497,-4.3497,-4.3497,-4.3497,-4.3479,-4.3424,-4.3314,-4.3193,-4.314,-4.301,-4.29,-4.29,-4.29,-4.2882,-4.2882,-4.2882,-4.2882,-4.2882,-4.2882,-4.2882,-4.2882,-4.2882,-4.2882,-4.2882,-4.2882,-4.2882,-4.2882,-4.2882,-4.2882,-4.2882,-4.2882,-4.2882,-4.2882,-4.2882,-4.2882,-2.1898,-2.2158,-2.2591,-2.3809,-2.4101,0.0,0.0,-2.642,-2.686,-2.7927,-2.8147,-2.8349,-2.9093,-3.0311,-3.1681,-3.3169,-3.4015,-3.4759,-3.552,-3.5622,-3.5622,-3.5622,-3.5876,-3.6062,-3.6062,-3.6755,-3.7212,-3.7212,-3.8311,-3.8988,-3.8988,-3.9681,-4.007,-4.007,-4.007,-4.007,-4.007,-4.007,-4.007,-4.007,-4.007,-4.007,-4.007,-4.007,-4.007,-4.007,-4.007,-4.007,-4.007,-4.007,-4.007,-4.007,-4.007,-4.007,-4.007,-4.007,-4.0188,-4.0305,-4.0337,-4.0436,-4.0534,-4.0631,-4.0631,-4.0583,-4.0631,-4.068,-4.0793,-4.0793,-4.084,-4.0918,-4.1088,-4.1331,-4.1603,-4.1961,-4.2495,-4.2922,-4.3105,-4.3339,-4.3479,-4.3442,-4.3442,-4.3406,-4.3296,-4.3177,-4.3123,-4.3121,-4.301,-4.2882,-4.2882,-4.2882,-4.2882,-4.2882,-4.2882,-4.2882,-4.2882,-4.2882,-4.2882,-4.2882,-4.2882,-4.2882,-4.2882,-4.2882,-4.2882,-4.2882,-4.2882,-4.2882,-4.2882,-4.2882,-4.2882,-4.2882,-4.2882,-4.2882,-2.1069,-2.1495,-2.2237,-2.3443,0.0,0.0,-2.6657,-2.7452,-2.818,-2.9414,-2.9668,-2.9837,-3.0362,-3.1055,-3.1935,-3.3203,-3.4015,-3.4759,-3.552,-3.5622,-3.5622,-3.5622,-3.5622,-3.5622,-3.5622,-3.6096,-3.6417,-3.6417,-3.7584,-3.8294,-3.8294,-3.8988,-3.9495,-3.9732,-3.9732,-3.9834,-4.007,-4.007,-4.007,-4.007,-4.007,-4.007,-4.007,-4.007,-4.007,-4.007,-4.007,-4.007,-4.007,-4.007,-4.007,-4.007,-4.007,-4.007,-4.007,-4.007,-4.0188,-4.0238,-4.0305,-4.0337,-4.0387,-4.0485,-4.0485,-4.0436,-4.0485,-4.0583,-4.0648,-4.0648,-4.068,-4.0776,-4.0776,-4.1043,-4.1331,-4.142,-4.2032,-4.2645,-4.2768,-4.3105,-4.3391,-4.3336,-4.3355,-4.3284,-4.3194,-4.3123,-4.3083,-4.3047,-4.2974,-4.2882,-4.2882,-4.2882,-4.2882,-4.2882,-4.2882,-4.2882,-4.2882,-4.2882,-4.2882,-4.2882,-4.2882,-4.2882,-4.2882,-4.2882,-4.2882,-4.2882,-4.2882,-4.2882,-4.2882,-4.2882,-4.2882,-4.2882,-4.2882,-4.2882,-2.0777,-2.1015,-2.1559,-2.3038,0.0,0.0,-2.7282,-2.7806,-2.8484,-3.0734,-3.119,-3.119,-3.119,-3.1782,-3.2527,-3.3288,-3.4015,-3.4759,-3.552,-3.5622,-3.5622,-3.5622,-3.5622,-3.5622,-3.5622,-3.5622,-3.5622,-3.5622,-3.6349,-3.6772,-3.6772,-3.7499,-3.8227,-3.8954,-3.8988,-3.9343,-4.0054,-4.007,-4.007,-4.007,-4.007,-4.007,-4.007,-4.007,-4.007,-4.007,-4.007,-4.007,-4.007,-4.007,-4.007,-4.007,-4.007,-4.007,-4.007,-4.007,-4.007,-4.0138,-4.0238,-4.0188,-4.0121,-4.0436,-4.0387,-4.0337,-4.0436,-4.0485,-4.0485,-4.0485,-4.0485,-4.0485,-4.0485,-4.068,-4.0948,-4.123,-4.1656,-4.2098,-4.2404,-4.2846,-4.3178,-4.3195,-4.3196,-4.3178,-4.3121,-4.3101,-4.3047,-4.29,-4.2882,-4.2882,-4.2882,-4.2882,-4.2882,-4.2882,-4.2882,-4.2882,-4.2882,-4.2882,-4.2882,-4.2882,-4.2882,-4.2882,-4.2882,-4.2882,-4.2882,-4.2882,-4.2882,-4.2882,-4.2882,-4.2882,-4.2882,-4.2882,-4.2882,-4.2882,-2.0628,-2.1015,0.0,-2.3326,0.0,0.0,0.0,-2.8437,0.0,-3.0852,-3.119,-3.119,-3.119,-3.1782,-3.2527,-3.3288,-3.4015,-3.4759,-3.552,-3.5622,-3.5622,-3.5622,-3.5622,-3.5622,-3.5622,-3.5622,-3.5622,-3.5622,-3.6349,-3.6772,-3.6772,-3.7499,-3.8007,-3.8227,-3.8717,-3.9106,-3.9309,-3.9817,-4.007,-4.007,-4.007,-4.007,-4.007,-4.007,-4.007,-4.007,-4.007,-4.007,-4.007,-4.007,-4.007,-4.007,-4.007,-4.007,-4.007,-4.007,-4.007,-4.0138,-4.0138,-4.0121,-4.0121,-4.0171,-4.0188,-4.0188,-4.0238,-4.0288,-4.0337,-4.0337,-4.0436,-4.0485,-4.0485,-4.0583,-4.0631,-4.0741,-4.1065,-4.1481,-4.199,-4.24,-4.279,-4.3069,-4.3123,-4.3105,-4.2974,-4.2974,-4.2936,-4.29,-4.2882,-4.2882,-4.2882,-4.2882,-4.2882,-4.2882,-4.2882,-4.2882,-4.2882,-4.2882,-4.2882,-4.2882,-4.2882,-4.2882,-4.2882,-4.2882,-4.2882,-4.2882,-4.2882,-4.2882,-4.2882,-4.2882,-4.2882,-4.2882,-4.2882,-4.2882,-2.0257,-2.1002,0.0,-2.3342,-2.4744,-2.626,-2.8002,-2.9152,-3.0125,-3.1004,-3.1055,-3.0975,-3.1151,-3.1247,-3.1784,-3.3195,-3.3633,-3.4229,-3.5425,-3.5622,-3.5622,-3.5622,-3.5622,-3.5622,-3.5622,-3.5622,-3.5622,-3.5622,-3.6045,-3.6315,-3.6315,-3.6755,-3.7144,-3.7449,-3.7889,-3.8261,-3.8565,-3.8988,-3.9225,-3.9225,-3.9512,-3.9648,-3.9648,-3.9952,-4.007,-4.007,-4.007,-4.007,-4.007,-4.007,-4.007,-4.007,-4.007,-4.007,-4.007,-4.007,-4.007,-4.007,-4.007,-4.007,-4.007,-4.007,-4.007,-4.007,-4.007,-4.0138,-4.0238,-4.0238,-4.0288,-4.032,-4.032,-4.032,-4.032,-4.0387,-4.0772,-4.1185,-4.163,-4.2098,-4.2519,-4.2957,-4.3032,-4.2995,-4.292,-4.2882,-4.2882,-4.2882,-4.2882,-4.2882,-4.2882,-4.2882,-4.2882,-4.2882,-4.2882,-4.2882,-4.2882,-4.2882,-4.2882,-4.2882,-4.2882,-4.2882,-4.2882,-4.2882,-4.2882,-4.2882,-4.2882,-4.2882,-4.2882,-4.2882,-4.2882,-4.2882,-4.2882,-4.2882,-1.9767,-2.0959,-2.2393,-2.3203,-2.4058,-2.5366,-2.7883,-2.9794,-3.1112,-3.119,-3.0797,-3.0559,-3.1055,-3.0459,-3.062,-3.2858,-3.2988,-3.3434,-3.5228,-3.5571,-3.5622,-3.5622,-3.5622,-3.5622,-3.5622,-3.5622,-3.5622,-3.5622,-3.5622,-3.5622,-3.5622,-3.5622,-3.5943,-3.6654,-3.6738,-3.711,-3.7787,-3.7872,-3.7905,-3.7922,-3.8582,-3.892,-3.9022,-3.9749,-4.007,-4.007,-4.007,-4.007,-4.007,-4.007,-4.007,-4.007,-4.007,-4.007,-4.007,-4.007,-4.007,-4.007,-4.007,-4.007,-4.007,-4.007,-4.007,-4.007,-4.007,-4.007,-4.007,-4.007,-4.007,-4.007,-4.007,-4.007,-4.0121,-4.0238,-4.0645,-4.1065,-4.1437,-4.1888,-4.2338,-4.2806,-4.2882,-4.2882,-4.2882,-4.2882,-4.2882,-4.2882,-4.2882,-4.2882,-4.2882,-4.2882,-4.2882,-4.2882,-4.2882,-4.2882,-4.2882,-4.2882,-4.2882,-4.2882,-4.2882,-4.2882,-4.2882,-4.2882,-4.2882,-4.2882,-4.2882,-4.2882,-4.2882,-4.2882,-4.2882,-4.2882,-4.2882,-4.2882,-1.964,-2.0591,0.0,-2.3056,-2.5227,-2.7267,-2.8453,-2.9433,-3.0326,-3.1072,-3.0535,-3.0097,-3.0559,-3.0685,-3.0941,-3.1855,-3.2851,-3.3851,-3.4648,-3.525,-3.5622,-3.5622,-3.5622,-3.5622,-3.5622,-3.5622,-3.5622,-3.5622,-3.5622,-3.5622,-3.5622,-3.5622,-3.569,-3.5859,-3.6468,-3.6857,-3.7026,-3.7618,-3.7905,-3.7905,-3.8075,-3.8447,-3.9022,-3.9749,-4.007,-4.007,-4.007,-4.007,-4.007,-4.007,-4.007,-4.007,-4.007,-4.007,-4.007,-4.007,-4.007,-4.007,-4.007,-4.007,-4.007,-4.007,-4.007,-4.007,-4.007,-4.007,-4.007,-4.007,-4.007,-4.007,-4.007,-4.007,-4.0138,-4.0138,-4.0483,-4.0972,-4.1393,-4.1888,-4.2338,-4.2806,-4.2882,-4.2882,-4.2882,-4.2882,-4.2882,-4.2882,-4.2882,-4.2882,-4.2882,-4.2882,-4.2882,-4.2882,-4.2882,-4.2882,-4.2882,-4.2882,-4.2882,-4.2882,-4.2882,-4.2882,-4.2882,-4.2882,-4.2882,-4.2882,-4.2882,-4.2882,-4.2882,-4.2882,-4.2882,-4.2882,-4.2882,-4.2882,-1.9264,0.0,0.0,-2.3417,0.0,-2.6788,-2.7785,-2.8315,-2.901,-3.0243,-2.9968,-2.9617,-3.0097,-2.9907,-3.0048,-3.1095,-3.1933,-3.2793,-3.4019,-3.4695,-3.5216,-3.5571,-3.5622,-3.5622,-3.5622,-3.5622,-3.5622,-3.5622,-3.5622,-3.5622,-3.5622,-3.5622,-3.5622,-3.5622,-3.6011,-3.6231,-3.6231,-3.662,-3.6806,-3.6806,-3.7195,-3.7939,-3.9022,-3.9749,-4.007,-4.007,-4.007,-4.007,-4.007,-4.007,-4.007,-4.007,-4.007,-4.007,-4.007,-4.007,-4.007,-4.007,-4.007,-4.007,-4.002,-3.9681,-3.9546,-3.9495,-3.914,-3.9039,-3.9039,-3.9039,-3.9292,-3.9546,-3.9546,-3.9817,-4.007,-4.007,-4.0303,-4.0659,-4.1348,-4.17,-4.2056,-4.2768,-4.2882,-4.2882,-4.2882,-4.2882,-4.2882,-4.2882,-4.2882,-4.2882,-4.2882,-4.2882,-4.2882,-4.2882,-4.2882,-4.2882,-4.2882,-4.2882,-4.2882,-4.2882,-4.2882,-4.2882,-4.2882,-4.2882,-4.2882,-4.2882,-4.2882,-4.2882,-4.2882,-4.2882,-4.2882,-4.2882,-4.2882,-4.2882,-1.8777,0.0,-2.1784,-2.3656,-2.4733,-2.5574,-2.6734,-2.719,-2.7798,-2.9265,-2.9273,-2.9136,-2.9572,-2.8967,-2.8887,-3.0328,-3.0749,-3.1479,-3.3193,-3.394,-3.4539,-3.5165,-3.5351,-3.5419,-3.5419,-3.5537,-3.5622,-3.5622,-3.5622,-3.5622,-3.5622,-3.5622,-3.5622,-3.5622,-3.5622,-3.5622,-3.5622,-3.5622,-3.5622,-3.5622,-3.6417,-3.7432,-3.8633,-3.936,-3.9834,-4.007,-4.007,-4.007,-4.007,-4.007,-4.007,-4.007,-4.007,-4.007,-4.007,-4.007,-4.007,-4.007,-4.007,-4.0003,-3.9783,-3.9191,-3.8903,-3.87,-3.8091,-3.7905,-3.7905,-3.7905,-3.8345,-3.8836,-3.8954,-3.9445,-3.9918,-4.0054,-4.007,-4.0336,-4.1196,-4.1429,-4.1757,-4.2621,-4.2846,-4.2882,-4.2882,-4.2882,-4.2882,-4.2882,-4.2882,-4.2882,-4.2882,-4.2882,-4.2882,-4.2882,-4.2882,-4.2882,-4.2882,-4.2882,-4.2882,-4.2882,-4.2882,-4.2882,-4.2882,-4.2882,-4.2882,-4.2882,-4.2882,-4.2882,-4.2882,-4.2882,-4.2882,-4.2882,-4.2882,-4.2882,-1.8299,0.0,-2.1624,0.0,-2.4379,-2.5503,-2.63,-2.6949,-2.7627,-2.8434,-2.8541,-2.8621,-2.9136,-2.8748,-2.8604,-2.9247,-3.0215,-3.1136,-3.1791,-3.2866,-3.3592,-3.3694,-3.4252,-3.4641,-3.4641,-3.5233,-3.5622,-3.5622,-3.5622,-3.5622,-3.5622,-3.5622,-3.5622,-3.5622,-3.5622,-3.5622,-3.5622,-3.5622,-3.5622,-3.5622,-3.6417,-3.6874,-3.711,-3.7855,-3.8886,-4.007,-4.007,-4.007,-4.007,-4.007,-4.007,-4.007,-4.007,-4.007,-4.007,-4.007,-4.007,-4.007,-4.007,-3.9665,-3.9123,-3.9022,-3.8565,-3.8041,-3.7939,-3.7905,-3.7905,-3.7905,-3.7973,-3.8193,-3.8819,-3.9056,-3.9292,-3.9935,-4.007,-4.0237,-4.0787,-4.1209,-4.1659,-4.2186,-4.2609,-4.2882,-4.2882,-4.2882,-4.2882,-4.2882,-4.2882,-4.2882,-4.2882,-4.2882,-4.2882,-4.2882,-4.2882,-4.2882,-4.2882,-4.2882,-4.2882,-4.2882,-4.2882,-4.2882,-4.2882,-4.2882,-4.2882,-4.2882,-4.2882,-4.2882,-4.2882,-4.2882,-4.2882,-4.2882,-4.2882,-4.2882,-1.85,-1.9746,-2.1168,0.0,-2.3748,-2.4471,-2.5549,-2.601,-2.6534,-2.7626,-2.7842,-2.8045,-2.8591,-2.8525,-2.8493,-2.8653,-2.9389,-3.0213,-3.1095,-3.1895,-3.2622,-3.3313,-3.3694,-3.4049,-3.4455,-3.4793,-3.5165,-3.5588,-3.5622,-3.5622,-3.5622,-3.5622,-3.5622,-3.5622,-3.5622,-3.5622,-3.5622,-3.5622,-3.5622,-3.5622,-3.596,-3.6349,-3.6789,-3.7127,-3.7855,-3.887,-3.887,-3.887,-3.887,-3.887,-3.887,-3.887,-3.887,-3.887,-3.887,-3.887,-3.887,-3.887,-3.887,-3.865,-3.8311,-3.7889,-3.7533,-3.7195,-3.6755,-3.662,-3.662,-3.662,-3.6941,-3.7449,-3.8193,-3.8684,-3.9174,-3.9901,-4.007,-4.0154,-4.0366,-4.0799,-4.1339,-4.2037,-4.2573,-4.2882,-4.2882,-4.2882,-4.2882,-4.2882,-4.2882,-4.2882,-4.2882,-4.2882,-4.2882,-4.2882,-4.2882,-4.2882,-4.2882,-4.2882,-4.2882,-4.2882,-4.2882,-4.2882,-4.2882,-4.2882,-4.2882,-4.2882,-4.2882,-4.2882,-4.2882,-4.2882,-4.2882,-4.2882,-4.2882,-4.2882,0.0,0.0,-2.0408,-2.2101,-2.2917,-2.3585,-2.4795,-2.5195,-2.5672,-2.6888,-2.7134,-2.7288,-2.7796,-2.8181,-2.8411,-2.8411,-2.8795,-2.9402,-3.0416,-3.097,-3.1632,-3.2681,-3.3,-3.3339,-3.388,-3.4269,-3.4726,-3.5301,-3.5504,-3.5622,-3.5622,-3.5622,-3.5622,-3.5622,-3.5622,-3.5622,-3.5622,-3.5622,-3.5622,-3.5622,-3.5622,-3.5926,-3.6485,-3.6485,-3.6789,-3.7347,-3.7736,-3.7905,-3.7905,-3.7905,-3.7905,-3.7905,-3.7905,-3.7905,-3.7905,-3.7905,-3.7905,-3.7905,-3.7905,-3.7787,-3.7533,-3.6958,-3.6637,-3.6366,-3.5791,-3.5622,-3.5622,-3.5622,-3.6045,-3.6671,-3.7432,-3.8041,-3.8684,-3.9598,-3.9817,-3.9851,-4.0054,-4.0483,-4.1013,-4.1724,-4.2235,-4.2598,-4.2718,-4.2737,-4.2774,-4.2864,-4.2882,-4.2882,-4.2882,-4.2882,-4.2882,-4.2882,-4.2882,-4.2882,-4.2882,-4.2882,-4.2882,-4.2882,-4.2882,-4.2882,-4.2882,-4.2882,-4.2882,-4.2882,-4.2882,-4.2882,-4.2882,-4.2882,-4.2882,-4.2882,-4.2882,-4.2882,-1.7884,-1.8713,0.0,-2.0239,-2.1848,-2.3396,-2.4168,-2.4856,-2.5533,-2.6287,-2.6411,-2.6411,-2.6488,-2.7534,-2.8411,-2.8411,-2.87,-2.9106,-2.9592,-3.006,-3.0559,-3.1076,-3.1861,-3.2381,-3.2391,-3.3677,-3.4506,-3.4539,-3.5216,-3.5622,-3.5622,-3.5622,-3.5622,-3.5622,-3.5622,-3.5622,-3.5622,-3.5622,-3.5622,-3.5622,-3.5622,-3.5639,-3.5673,-3.5673,-3.569,-3.5825,-3.728,-3.7905,-3.7905,-3.7905,-3.7905,-3.7905,-3.7905,-3.7905,-3.7905,-3.7905,-3.7905,-3.7905,-3.7905,-3.7432,-3.6823,-3.6789,-3.6282,-3.5673,-3.5639,-3.5622,-3.5622,-3.5622,-3.5656,-3.5876,-3.6658,-3.6912,-3.727,-3.874,-3.9043,-3.9244,-3.9969,-4.0493,-4.0797,-4.088,-4.1227,-4.1722,-4.2186,-4.2246,-4.2372,-4.2828,-4.2882,-4.2882,-4.2882,-4.2882,-4.2882,-4.2882,-4.2882,-4.2882,-4.2882,-4.2882,-4.2882,-4.2882,-4.2882,-4.2882,-4.2882,-4.2882,-4.2882,-4.2882,-4.2882,-4.2882,-4.2882,-4.2882,-4.2882,-4.2882,-4.2882,-4.2882,-1.7134,0.0,0.0,-1.9821,-2.1338,-2.2738,-2.3452,-2.4153,-2.4829,-2.5492,-2.5659,-2.5766,-2.6198,-2.7088,-2.775,-2.7639,-2.8088,-2.859,-2.8982,-2.9406,-2.9951,-3.0477,-3.0833,-3.1225,-3.1792,-3.2077,-3.2514,-3.3278,-3.3606,-3.3862,-3.4158,-3.4201,-3.4201,-3.4201,-3.4658,-3.5131,-3.5622,-3.5622,-3.5622,-3.5622,-3.5622,-3.5622,-3.5622,-3.5622,-3.5622,-3.5656,-3.6197,-3.6434,-3.6434,-3.6434,-3.6434,-3.6434,-3.6434,-3.6434,-3.6434,-3.6434,-3.6434,-3.6434,-3.6434,-3.6265,-3.6028,-3.6028,-3.5842,-3.5622,-3.5622,-3.5622,-3.5622,-3.5622,-3.5622,-3.5774,-3.6605,-3.6791,-3.717,-3.8639,-3.9379,-3.9783,-4.0037,-4.0459,-4.0878,-4.1192,-4.1398,-4.1735,-4.2512,-4.2408,-4.2354,-4.2828,-4.2882,-4.2882,-4.2882,-4.2882,-4.2882,-4.2882,-4.2882,-4.2882,-4.2882,-4.2882,-4.2882,-4.2882,-4.2882,-4.2882,-4.2882,-4.2882,-4.2882,-4.2882,-4.2882,-4.2882,-4.2882,-4.2882,-4.2882,-4.2882,-4.2882,-4.2882,-1.6708,-1.7486,-1.8228,-1.9383,-2.0725,-2.1873,-2.2378,-2.3197,-2.3978,-2.4395,-2.4698,-2.5004,-2.5463,-2.6107,-2.6719,-2.7148,-2.7511,-2.7959,-2.8528,-2.9042,-2.954,-3.0123,-3.0393,-3.0717,-3.1113,-3.1161,-3.149,-3.2293,-3.2408,-3.2646,-3.3117,-3.3031,-3.2988,-3.316,-3.4013,-3.4742,-3.5233,-3.5504,-3.5622,-3.5622,-3.5622,-3.5622,-3.5622,-3.5622,-3.5622,-3.5622,-3.5622,-3.5622,-3.5622,-3.5622,-3.5622,-3.5622,-3.5622,-3.5622,-3.5622,-3.5622,-3.5622,-3.5622,-3.5622,-3.5622,-3.5622,-3.5622,-3.5622,-3.5622,-3.5622,-3.5622,-3.5622,-3.5622,-3.5622,-3.5707,-3.6248,-3.678,-3.7418,-3.8405,-3.9396,-4.007,-4.007,-4.0358,-4.0641,-4.0983,-4.114,-4.1492,-4.2279,-4.2299,-4.2354,-4.2826,-4.2882,-4.2882,-4.2882,-4.2882,-4.2882,-4.2882,-4.2882,-4.2882,-4.2882,-4.2882,-4.2882,-4.2882,-4.2882,-4.2882,-4.2882,-4.2882,-4.2882,-4.2882,-4.2882,-4.2882,-4.2882,-4.2882,-4.2882,-4.2882,-4.2882,-4.2882,0.0,0.0,0.0,-1.8773,-1.9935,-2.0918,-2.1051,-2.2071,-2.2991,-2.3071,-2.3564,-2.4009,-2.4166,-2.4615,-2.5423,-2.6902,-2.6972,-2.7152,-2.8307,-2.8888,-2.939,-2.9881,-3.0535,-3.0757,-3.0293,-3.0995,-3.1494,-3.1553,-3.1782,-3.2128,-3.2625,-3.2174,-3.2128,-3.2641,-3.3772,-3.4395,-3.4489,-3.5172,-3.5543,-3.5622,-3.5622,-3.5622,-3.5622,-3.5622,-3.5622,-3.5622,-3.5622,-3.5622,-3.5622,-3.5622,-3.5622,-3.5622,-3.5622,-3.5622,-3.5622,-3.5622,-3.5622,-3.5622,-3.5622,-3.5622,-3.5622,-3.5622,-3.5622,-3.5622,-3.5622,-3.5622,-3.5622,-3.5622,-3.5622,-3.5622,-3.5622,-3.6709,-3.7887,-3.7853,-3.8975,-4.0054,-4.0054,-4.0054,-4.0121,-4.0121,-4.051,-4.0979,-4.1447,-4.1911,-4.2356,-4.2822,-4.2882,-4.2882,-4.2882,-4.2882,-4.2882,-4.2882,-4.2882,-4.2882,-4.2882,-4.2882,-4.2882,-4.2882,-4.2882,-4.2882,-4.2882,-4.2882,-4.2882,-4.2882,-4.2882,-4.2882,-4.2882,-4.2882,-4.2882,-4.2882,-4.2882,-4.2882,-1.6804,0.0,0.0,0.0,0.0,0.0,-2.0827,-2.1622,-2.2404,-2.2793,-2.3076,-2.3462,-2.3948,-2.4091,-2.4442,-2.5439,-2.6272,-2.6856,-2.7119,-2.7948,-2.8622,-2.8873,-2.9104,-2.9241,-2.9287,-2.9201,-2.9451,-3.0217,-3.0368,-3.0598,-3.1073,-3.0642,-3.0693,-3.1393,-3.1724,-3.2574,-3.3968,-3.4184,-3.4751,-3.5622,-3.5622,-3.5622,-3.5622,-3.5622,-3.5622,-3.5622,-3.5622,-3.5622,-3.5622,-3.5622,-3.5622,-3.5622,-3.5622,-3.5622,-3.5622,-3.5622,-3.5622,-3.5622,-3.5622,-3.5622,-3.5622,-3.5622,-3.5622,-3.5622,-3.5622,-3.5622,-3.5622,-3.5622,-3.5622,-3.5622,-3.5622,-3.6332,-3.7094,-3.7121,-3.8229,-3.9291,-3.9276,-3.9698,-4.0303,-4.0955,-4.0965,-4.1157,-4.2305,-4.2341,-4.2364,-4.2824,-4.2882,-4.2882,-4.2882,-4.2882,-4.2882,-4.2882,-4.2882,-4.2882,-4.2882,-4.2882,-4.2882,-4.2882,-4.2882,-4.2882,-4.2882,-4.2882,-4.2882,-4.2882,-4.2882,-4.2882,-4.2882,-4.2882,-4.2882,-4.2882,-4.2882,-4.2882,-1.7479,-1.7882,-1.816,-1.8463,0.0,0.0,-2.0285,-2.0737,-2.1303,-2.2199,-2.241,-2.2752,-2.3758,-2.3613,-2.3616,-2.4453,-2.5319,-2.6068,-2.6512,-2.7601,-2.8352,-2.84,-2.8638,-2.8779,-2.8764,-2.859,-2.8764,-2.9393,-2.9273,-2.9319,-2.9617,-2.9572,-2.9704,-3.0167,-3.0639,-3.1553,-3.2873,-3.3188,-3.3929,-3.5148,-3.5148,-3.5318,-3.5622,-3.5622,-3.5622,-3.5622,-3.5622,-3.5622,-3.5622,-3.5622,-3.5622,-3.5622,-3.5622,-3.5622,-3.5622,-3.5622,-3.5622,-3.5622,-3.5622,-3.5622,-3.5622,-3.5622,-3.5622,-3.5622,-3.5622,-3.5622,-3.5622,-3.5622,-3.5622,-3.5622,-3.5622,-3.6192,-3.678,-3.6806,-3.7905,-3.9003,-3.8988,-3.9563,-4.0254,-4.0832,-4.1007,-4.1332,-4.2162,-4.24,-4.2577,-4.2844,-4.2882,-4.2882,-4.2882,-4.2882,-4.2882,-4.2882,-4.2882,-4.2882,-4.2882,-4.2882,-4.2882,-4.2882,-4.2882,-4.2882,-4.2882,-4.2882,-4.2882,-4.2882,-4.2882,-4.2882,-4.2882,-4.2882,-4.2882,-4.2882,-4.2882,-4.2882,-1.8403,-1.8702,-1.8837,-1.9435,-1.9196,0.0,-1.9536,-1.9741,-2.0145,-2.1317,-2.1594,-2.2004,-2.3345,-2.3095,-2.2915,-2.3637,-2.4235,-2.5061,-2.6303,-2.7446,-2.8115,-2.8192,-2.8701,-2.8841,-2.8463,-2.8622,-2.8811,-2.8858,-2.8621,-2.8444,-2.8493,-2.8826,-2.9044,-2.9044,-3.0076,-3.09,-3.144,-3.2111,-3.3073,-3.431,-3.431,-3.4665,-3.5385,-3.5453,-3.5504,-3.5504,-3.5588,-3.5622,-3.5622,-3.5622,-3.5622,-3.5622,-3.5622,-3.5622,-3.5622,-3.5622,-3.5622,-3.5622,-3.5622,-3.5622,-3.5622,-3.5622,-3.5622,-3.5622,-3.5622,-3.5622,-3.5622,-3.5622,-3.5622,-3.5622,-3.5622,-3.6118,-3.6675,-3.6671,-3.7719,-3.8751,-3.8751,-3.9377,-3.9952,-3.9952,-4.0776,-4.1453,-4.149,-4.2239,-4.2806,-4.2806,-4.2882,-4.2882,-4.2882,-4.2882,-4.2882,-4.2882,-4.2882,-4.2882,-4.2882,-4.2882,-4.2882,-4.2882,-4.2882,-4.2882,-4.2882,-4.2882,-4.2882,-4.2882,-4.2882,-4.2882,-4.2882,-4.2882,-4.2882,-4.2882,-4.2882,-4.2882,-1.8777,-1.8702,-1.8732,-1.8867,-1.9196,0.0,-1.8986,-1.9735,-2.0423,-2.016,-2.0513,-2.118,-2.2024,-2.2465,-2.2574,-2.2275,-2.3634,-2.5048,-2.5845,-2.6507,-2.7109,-2.7685,-2.7845,-2.7894,-2.7925,-2.7974,-2.8204,-2.8685,-2.8764,-2.8873,-2.8951,-2.87,-2.8541,-2.8541,-2.8745,-2.9391,-3.0447,-3.0638,-3.1489,-3.304,-3.304,-3.3299,-3.3863,-3.4438,-3.4709,-3.4742,-3.5351,-3.5622,-3.5622,-3.5622,-3.5622,-3.5622,-3.5622,-3.5622,-3.5622,-3.5622,-3.5622,-3.5622,-3.5622,-3.5622,-3.5622,-3.5622,-3.5622,-3.5622,-3.5622,-3.5622,-3.5622,-3.5622,-3.5622,-3.5622,-3.5622,-3.5695,-3.5814,-3.5842,-3.6552,-3.7212,-3.7212,-3.8261,-3.9208,-3.9208,-4.0134,-4.1059,-4.1437,-4.1973,-4.2338,-4.2338,-4.2673,-4.2882,-4.2882,-4.2882,-4.2882,-4.2882,-4.2882,-4.2882,-4.2882,-4.2882,-4.2882,-4.2882,-4.2882,-4.2882,-4.2882,-4.2882,-4.2882,-4.2882,-4.2882,-4.2882,-4.2882,-4.2882,-4.2882,-4.2882,-4.2882,-4.2882,-1.9289,-1.9196,-1.9271,-1.9615,-1.945,0.0,0.0,-1.9705,-1.9899,-2.0557,-2.0423,-2.0602,-2.1999,-2.1944,-2.1734,-2.1783,-2.2911,-2.3981,-2.4716,-2.5681,-2.6387,-2.6654,-2.7048,-2.7293,-2.7293,-2.7743,-2.8204,-2.8748,-2.8858,-2.9044,-2.9348,-2.8748,-2.8621,-2.9106,-2.8873,-2.9124,-2.9966,-3.0012,-3.0593,-3.1835,-3.2056,-3.249,-3.3074,-3.3693,-3.415,-3.4506,-3.4895,-3.5267,-3.5622,-3.5622,-3.5622,-3.5622,-3.5622,-3.5622,-3.5622,-3.5622,-3.5622,-3.5622,-3.5622,-3.5622,-3.5622,-3.5622,-3.5622,-3.5622,-3.5622,-3.5622,-3.5622,-3.5622,-3.5622,-3.5622,-3.5622,-3.5622,-3.5622,-3.5622,-3.6192,-3.6791,-3.6791,-3.7984,-3.8988,-3.8988,-3.981,-4.0611,-4.1065,-4.1543,-4.1846,-4.1846,-4.2056,-4.218,-4.218,-4.2418,-4.2458,-4.2239,-4.2616,-4.2806,-4.2595,-4.2537,-4.2634,-4.2882,-4.244,-4.24,-4.2882,-4.2673,-4.2673,-4.29,-4.2882,-4.2882,-4.2882,-4.2882,-4.2882,-4.2882,-4.2882,-4.2882,-2.0087,-2.0079,-2.0168,-2.0602,-1.9989,-1.9465,0.0,0.0,0.0,-2.0842,-2.0348,-2.022,-2.1799,-2.1335,-2.0842,-2.1332,-2.2134,-2.2885,-2.336,-2.4669,-2.5576,-2.5559,-2.6438,-2.6864,-2.6449,-2.7215,-2.7992,-2.8669,-2.8607,-2.8716,-2.9303,-2.87,-2.87,-2.9499,-2.9182,-2.9136,-2.9544,-2.9544,-2.9862,-3.0545,-3.1052,-3.1626,-3.232,-3.2891,-3.3508,-3.4083,-3.437,-3.4844,-3.5419,-3.5554,-3.5622,-3.5622,-3.5622,-3.5622,-3.5622,-3.5622,-3.5622,-3.5622,-3.5622,-3.5622,-3.5622,-3.5622,-3.5622,-3.5622,-3.5622,-3.5622,-3.5622,-3.5622,-3.5622,-3.5622,-3.5622,-3.5622,-3.5622,-3.5622,-3.6084,-3.6576,-3.6576,-3.7611,-3.8565,-3.8565,-3.9357,-4.0133,-4.0594,-4.1047,-4.1393,-4.1481,-4.1569,-4.1613,-4.1613,-4.2056,-4.2115,-4.1569,-4.236,-4.2711,-4.2239,-4.2279,-4.2498,-4.2882,-4.218,-4.2098,-4.2882,-4.2555,-4.2498,-4.2882,-4.2882,-4.2882,-4.2882,-4.2882,-4.2882,-4.2882,-4.2882,-4.2882,-2.1352,-2.147,-2.135,-2.0842,-2.1036,-2.0932,-1.9301,0.0,-2.0213,-1.9241,0.0,-1.975,-1.9989,0.0,0.0,-2.0025,-2.1519,-2.2621,-2.2109,-2.3277,-2.4351,-2.4717,-2.6104,-2.65,-2.5168,-2.565,-2.6635,-2.8012,-2.7443,-2.74,-2.8286,-2.8284,-2.8332,-2.8525,-2.8493,-2.8493,-2.8589,-2.8589,-2.8826,-2.9339,-2.9774,-3.026,-3.0784,-3.1924,-3.2442,-3.2594,-3.3914,-3.4539,-3.4675,-3.5351,-3.5622,-3.5622,-3.5622,-3.5622,-3.5622,-3.5622,-3.5622,-3.5622,-3.5622,-3.5622,-3.5622,-3.5622,-3.5622,-3.5622,-3.5622,-3.5622,-3.5622,-3.5622,-3.5622,-3.5622,-3.5622,-3.5622,-3.5622,-3.5622,-3.5673,-3.5723,-3.5723,-3.6417,-3.7026,-3.7026,-3.8504,-3.9856,-4.0152,-4.058,-4.1019,-4.1437,-4.1846,-4.2115,-4.2115,-4.2537,-4.2498,-4.1613,-4.236,-4.2711,-4.2239,-4.2577,-4.2844,-4.29,-4.2806,-4.2806,-4.29,-4.2844,-4.2844,-4.2882,-4.2882,-4.2882,-4.2882,-4.2882,-4.2882,-4.2882,-4.2882,-4.2882,-2.1664,-2.1695,-2.1635,-2.135,-2.1201,-2.0902,-2.0064,-2.0004,-2.0064,-1.9899,0.0,0.0,0.0,0.0,0.0,0.0,-2.076,-2.1464,-2.118,-2.2064,-2.3085,-2.3996,-2.5153,-2.5773,-2.5636,-2.603,-2.6594,-2.7226,-2.7226,-2.7489,-2.8153,-2.8134,-2.8414,-2.9074,-2.8826,-2.8748,-2.8826,-2.8826,-2.8795,-2.87,-2.9182,-2.9661,-3.0097,-3.0875,-3.1648,-3.2307,-3.2933,-3.3457,-3.3931,-3.4658,-3.4962,-3.5013,-3.5453,-3.5622,-3.5622,-3.5622,-3.5622,-3.5622,-3.5622,-3.5622,-3.5622,-3.5622,-3.5622,-3.5622,-3.5622,-3.5622,-3.5622,-3.5622,-3.5622,-3.5622,-3.5622,-3.5622,-3.5622,-3.5622,-3.5622,-3.5622,-3.5622,-3.6231,-3.6772,-3.6772,-3.8146,-3.9316,-3.9443,-4.0414,-4.1185,-4.1111,-4.1499,-4.1803,-4.1803,-4.2198,-4.2239,-4.1569,-4.236,-4.2711,-4.2239,-4.2378,-4.2634,-4.2882,-4.2882,-4.2768,-4.2516,-4.2768,-4.2882,-4.2882,-4.2882,-4.2882,-4.2882,-4.2882,-4.2882,-4.2882,-4.2882,-4.2882,-2.1966,-2.2014,-2.1966,-2.1744,-2.1335,-2.0887,-2.0513,-2.0183,-2.0049,-2.0363,-2.0183,0.0,0.0,0.0,-1.9899,-1.972,0.0,-2.0917,-2.0737,-2.13,-2.2084,-2.2851,-2.3504,-2.442,-2.5726,-2.5746,-2.5799,-2.6215,-2.6348,-2.6762,-2.7567,-2.7487,-2.7933,-2.9134,-2.8858,-2.8764,-2.8858,-2.8858,-2.8685,-2.8348,-2.8826,-2.9303,-2.975,-3.0251,-3.1065,-3.1985,-3.2188,-3.2594,-3.3169,-3.41,-3.4489,-3.4573,-3.5318,-3.5622,-3.5622,-3.5622,-3.5622,-3.5622,-3.5622,-3.5622,-3.5622,-3.5622,-3.5622,-3.5622,-3.5622,-3.5622,-3.5622,-3.5622,-3.5622,-3.5622,-3.5622,-3.5622,-3.5622,-3.5622,-3.5622,-3.5622,-3.5622,-3.6062,-3.6468,-3.6468,-3.764,-3.8622,-3.8715,-4.0023,-4.1047,-4.0849,-4.1111,-4.1251,-4.1024,-4.1722,-4.186,-4.0889,-4.1795,-4.2232,-4.1712,-4.1599,-4.1773,-4.2193,-4.2448,-4.2296,-4.1751,-4.2278,-4.2574,-4.2574,-4.2574,-4.2683,-4.2882,-4.2882,-4.2882,-4.2882,-4.2882,-4.2882,-2.2606,-2.2876,-2.2673,-2.1873,-2.168,-2.1321,-2.0019,-2.0228,-2.0498,-1.9854,-2.0228,-2.0483,-1.9839,-2.0243,-2.0468,-1.9794,-2.0797,0.0,0.0,-2.1276,-2.147,-2.0872,-2.0956,-2.2097,-2.4756,-2.3746,-2.3519,-2.4952,-2.4234,-2.4401,-2.5971,-2.5969,-2.6527,-2.8024,-2.8137,-2.822,-2.8235,-2.8235,-2.8235,-2.8186,-2.8685,-2.9166,-2.9629,-3.0208,-3.0757,-3.1275,-3.1968,-3.229,-3.2425,-3.3897,-3.4489,-3.4573,-3.5318,-3.5622,-3.5622,-3.5622,-3.5622,-3.5622,-3.5622,-3.5622,-3.5622,-3.5622,-3.5622,-3.5622,-3.5622,-3.5622,-3.5622,-3.5622,-3.5622,-3.5622,-3.5622,-3.5622,-3.5622,-3.5622,-3.5622,-3.5622,-3.5622,-3.5639,-3.5656,-3.5656,-3.6669,-3.7634,-3.7899,-3.9172,-4.0303,-4.0707,-4.0802,-4.0543,-3.9865,-4.119,-4.1392,-3.9316,-4.0324,-4.0953,-4.0393,-4.0121,-4.0159,-4.0546,-4.1325,-4.1361,-4.0583,-4.1306,-4.1759,-4.1759,-4.1759,-4.2122,-4.2882,-4.2882,-4.2882,-4.2882,-4.2882,-4.2882,-2.2189,-2.2314,-2.2267,-2.193,-2.1489,-2.1028,-2.0497,-2.0543,-2.0513,-1.9824,-2.0228,-2.0513,-1.9809,-1.9884,-2.0109,-2.0333,-2.0752,-2.0812,0.0,-1.9854,-1.9794,-2.0004,-2.0888,-2.1853,-2.2783,-2.2899,-2.2955,-2.2996,-2.397,-2.4519,-2.4549,-2.5756,-2.6675,-2.7176,-2.7663,-2.7989,-2.8054,-2.8054,-2.8054,-2.8054,-2.8235,-2.8716,-2.9496,-2.9673,-3.0208,-3.1009,-3.1244,-3.1345,-3.1429,-3.2437,-3.3127,-3.3664,-3.4387,-3.4975,-3.5412,-3.5532,-3.5622,-3.5622,-3.5622,-3.5622,-3.5622,-3.5622,-3.5622,-3.5622,-3.5622,-3.5622,-3.5622,-3.5622,-3.5622,-3.5622,-3.5622,-3.5622,-3.5622,-3.5622,-3.5622,-3.5622,-3.5622,-3.5622,-3.5622,-3.5622,-3.6367,-3.707,-3.7157,-3.799,-3.9149,-4.0569,-4.1047,-4.1171,-4.0926,-4.0945,-4.0725,-3.9998,-3.9919,-3.9829,-3.9645,-3.9541,-3.9545,-3.9722,-3.9971,-4.0125,-4.0088,-4.0376,-4.0885,-4.1668,-4.1723,-4.2103,-4.2882,-4.2882,-4.2882,-4.2882,-4.2882,-4.2882,-2.1883,-2.2083,-2.2136,-2.1979,-2.1598,-2.1126,-2.0529,-2.0587,-2.0626,-2.0146,-2.0408,-2.0722,-2.0752,-2.0557,-2.0617,-2.1306,-2.1216,-2.0737,0.0,-1.9316,-1.9211,-1.963,-2.0512,-2.1166,-2.1383,-2.1642,-2.1855,-2.1901,-2.2697,-2.3353,-2.387,-2.5048,-2.6072,-2.6781,-2.7444,-2.784,-2.7905,-2.7905,-2.7905,-2.7905,-2.7905,-2.835,-2.9088,-2.9316,-2.9848,-3.0634,-3.0814,-3.0912,-3.0979,-3.1692,-3.2278,-3.2813,-3.3801,-3.4471,-3.4968,-3.5335,-3.5493,-3.5493,-3.5493,-3.5493,-3.5493,-3.5543,-3.5543,-3.556,-3.556,-3.5622,-3.5622,-3.5622,-3.5622,-3.5622,-3.5622,-3.5622,-3.5622,-3.5622,-3.5622,-3.5622,-3.5622,-3.5622,-3.5622,-3.5622,-3.6028,-3.6451,-3.6738,-3.7178,-3.8085,-3.9867,-4.0435,-4.0602,-4.0602,-4.0321,-4.001,-3.9572,-3.899,-3.8542,-3.8279,-3.8491,-3.8594,-3.845,-3.8858,-3.9093,-3.904,-3.9476,-4.0201,-4.1234,-4.1289,-4.1814,-4.2882,-4.2882,-4.2882,-4.2882,-4.2882,-4.2882]}]]